[[{"header":{"parameterUnit":"m.s-1","parameterCategory":1,"la1":30.6,"la2":28.766,"lo1":-90.7593,"lo2":-88.6598,"dx":0.0162,"dy":0.0183,"nx":116,"ny":114,"refTime":"2023-01-25T06:00:00:Z","depth":0,"parameterNumber":2,"parameterNumberName":"U-component_of_WINDS"},"data":[0.0,0.0,0.0,0.0,0.0,0.0,0.0,0.0,0.0,0.0,0.0,0.0,0.0,0.0,0.0,0.0,0.0,0.0,0.0,0.0,0.0,0.0,0.0,0.0,0.0,0.0,0.0,0.0,0.0,0.0,0.0,0.0,0.0,0.0,0.0,0.0,0.0,0.0,0.0,0.0,0.0,0.0,0.0,0.0,0.0,0.0,0.0,0.0,0.0,0.0,0.0,0.0,0.0,0.0,0.0,0.0,0.0,0.0,0.0,0.0,0.0,0.0,0.0,0.0,0.0,0.0,0.0,0.0,0.0,0.0,0.0,0.0,0.0,0.0,0.0,0.0,0.0,0.0,0.0,0.0,0.0,0.0,0.0,0.0,0.0,0.0,0.0,0.0,0.0,0.0,0.0,0.0,0.0,0.0,0.0,0.0,0.0,0.0,0.0,0.0,0.0,0.0,0.0,0.0,0.0,0.0,0.0,0.0,0.0,0.0,0.0,0.0,0.0,0.0,0.0,0.0,0.0,0.0,0.0,0.0,0.0,0.0,0.0,0.0,0.0,0.0,0.0,0.0,0.0,0.0,0.0,0.0,0.0,0.0,0.0,0.0,0.0,0.0,0.0,0.0,0.0,0.0,0.0,0.0,0.0,0.0,0.0,0.0,0.0,0.0,0.0,0.0,0.0,0.0,0.0,0.0,0.0,0.0,0.0,0.0,0.0,0.0,0.0,0.0,0.0,0.0,0.0,0.0,0.0,0.0,0.0,0.0,0.0,0.0,0.0,0.0,0.0,0.0,0.0,0.0,0.0,0.0,0.0,0.0,0.0,0.0,0.0,0.0,0.0,0.0,0.0,0.0,0.0,0.0,0.0,0.0,0.0,0.0,0.0,0.0,0.0,0.0,0.0,0.0,0.0,0.0,0.0,0.0,0.0,0.0,0.0,0.0,0.0,0.0,0.0,0.0,0.0,0.0,0.0,0.0,0.0,0.0,0.0,0.0,0.0,0.0,0.0,0.0,0.0,0.0,0.0,0.0,0.0,0.0,0.0,0.0,0.0,0.0,0.0,0.0,0.0,0.0,0.0,0.0,0.0,0.0,0.0,0.0,0.0,0.0,0.0,0.0,0.0,0.0,0.0,0.0,0.0,0.0,0.0,0.0,0.0,0.0,0.0,0.0,0.0,0.0,0.0,0.0,0.0,0.0,0.0,0.0,0.0,0.0,0.0,0.0,0.0,0.0,0.0,0.0,0.0,0.0,0.0,0.0,0.0,0.0,0.0,0.0,0.0,0.0,0.0,0.0,0.0,0.0,0.0,0.0,0.0,0.0,0.0,0.0,0.0,0.0,0.0,0.0,0.0,0.0,0.0,0.0,0.0,0.0,0.0,0.0,0.0,0.0,0.0,0.0,0.0,0.0,0.0,0.0,0.0,0.0,0.0,0.0,0.0,0.0,0.0,0.0,0.0,0.0,0.0,0.0,0.0,0.0,0.0,0.0,0.0,0.0,0.0,0.0,0.0,0.0,0.0,0.0,0.0,0.0,0.0,0.0,0.0,0.0,0.0,0.0,0.0,0.0,0.0,0.0,0.0,0.0,0.0,0.0,0.0,0.0,0.0,0.0,0.0,0.0,0.0,0.0,0.0,0.0,0.0,0.0,0.0,0.0,0.0,0.0,0.0,0.0,0.0,0.0,0.0,0.0,0.0,0.0,0.0,0.0,0.0,0.0,0.0,0.0,0.0,0.0,0.0,0.0,0.0,0.0,0.0,0.0,0.0,0.0,0.0,0.0,0.0,0.0,0.0,0.0,0.0,0.0,0.0,0.0,0.0,0.0,0.0,0.0,0.0,0.0,0.0,0.0,0.0,0.0,0.0,0.0,0.0,0.0,0.0,0.0,0.0,0.0,0.0,0.0,0.0,0.0,0.0,0.0,0.0,0.0,0.0,0.0,0.0,0.0,0.0,0.0,0.0,0.0,0.0,0.0,0.0,0.0,0.0,0.0,0.0,0.0,0.0,0.0,0.0,0.0,0.0,0.0,0.0,0.0,0.0,0.0,0.0,0.0,0.0,0.0,0.0,0.0,0.0,0.0,0.0,0.0,0.0,0.0,0.0,0.0,0.0,0.0,0.0,0.0,0.0,0.0,0.0,0.0,0.0,0.0,0.0,0.0,0.0,0.0,0.0,0.0,0.0,0.0,0.0,0.0,0.0,0.0,0.0,0.0,0.0,0.0,0.0,0.0,0.0,0.0,0.0,0.0,0.0,0.0,0.0,0.0,0.0,0.0,0.0,0.0,0.0,0.0,0.0,0.0,0.0,0.0,0.0,0.0,0.0,0.0,0.0,0.0,0.0,0.0,0.0,0.0,0.0,0.0,0.0,0.0,0.0,0.0,0.0,0.0,0.0,0.0,0.0,0.0,0.0,0.0,0.0,0.0,0.0,0.0,0.0,0.0,0.0,0.0,0.0,0.0,0.0,0.0,0.0,0.0,0.0,0.0,0.0,0.0,0.0,0.0,0.0,0.0,0.0,0.0,0.0,0.0,0.0,0.0,0.0,0.0,0.0,0.0,0.0,0.0,0.0,0.0,0.0,0.0,0.0,0.0,0.0,0.0,0.0,0.0,0.0,0.0,0.0,0.0,0.0,0.0,0.0,0.0,0.0,0.0,0.0,0.0,0.0,0.0,0.0,0.0,0.0,0.0,0.0,0.0,0.0,0.0,0.0,0.0,0.0,0.0,0.0,0.0,0.0,0.0,0.0,0.0,0.0,0.0,0.0,0.0,0.0,0.0,0.0,0.0,0.0,0.0,0.0,0.0,0.0,0.0,0.0,0.0,0.0,0.0,0.0,0.0,0.0,0.0,0.0,0.0,0.0,0.0,0.0,0.0,0.0,0.0,0.0,0.0,0.0,0.0,0.0,0.0,0.0,0.0,0.0,0.0,0.0,0.0,0.0,0.0,0.0,0.0,0.0,0.0,0.0,0.0,0.0,0.0,0.0,0.0,0.0,0.0,0.0,0.0,0.0,0.0,0.0,0.0,0.0,0.0,0.0,0.0,0.0,0.0,0.0,0.0,0.0,0.0,0.0,0.0,0.0,0.0,0.0,0.0,0.0,0.0,0.0,0.0,0.0,0.0,0.0,0.0,0.0,0.0,0.0,0.0,0.0,0.0,0.0,0.0,0.0,0.0,0.0,0.0,0.0,0.0,0.0,0.0,0.0,0.0,0.0,0.0,0.0,0.0,0.0,0.0,0.0,0.0,0.0,0.0,0.0,0.0,0.0,0.0,0.0,0.0,0.0,0.0,0.0,0.0,0.0,0.0,0.0,0.0,0.0,0.0,0.0,0.0,0.0,0.0,0.0,0.0,0.0,0.0,0.0,0.0,0.0,0.0,0.0,0.0,0.0,0.0,0.0,0.0,0.0,0.0,0.0,0.0,0.0,0.0,0.0,0.0,0.0,0.0,0.0,0.0,0.0,0.0,0.0,0.0,0.0,0.0,0.0,0.0,0.0,0.0,0.0,0.0,0.0,0.0,0.0,0.0,0.0,0.0,0.0,0.0,0.0,0.0,0.0,0.0,0.0,0.0,0.0,0.0,0.0,0.0,0.0,0.0,0.0,0.0,0.0,0.0,0.0,0.0,0.0,0.0,0.0,0.0,0.0,0.0,0.0,0.0,0.0,0.0,0.0,0.0,0.0,0.0,0.0,0.0,0.0,0.0,0.0,0.0,0.0,0.0,0.0,0.0,0.0,0.0,0.0,0.0,0.0,0.0,0.0,0.0,0.0,0.0,0.0,0.0,0.0,0.0,0.0,0.0,0.0,0.0,0.0,0.0,0.0,0.0,0.0,0.0,0.0,0.0,0.0,0.0,0.0,0.0,0.0,0.0,0.0,0.0,0.0,0.0,0.0,0.0,0.0,0.0,0.0,0.0,0.0,0.0,0.0,0.0,0.0,0.0,0.0,0.0,0.0,0.0,0.0,0.0,0.0,0.0,0.0,0.0,0.0,0.0,0.0,0.0,0.0,0.0,0.0,0.0,0.0,0.0,0.0,0.0,0.0,0.0,0.0,0.0,0.0,0.0,0.0,0.0,0.0,0.0,0.0,0.0,0.0,0.0,0.0,0.0,0.0,0.0,0.0,0.0,0.0,0.0,0.0,0.0,0.0,0.0,0.0,0.0,0.0,0.0,0.0,0.0,0.0,0.0,0.0,0.0,0.0,0.0,0.0,0.0,0.0,0.0,0.0,0.0,0.0,0.0,0.0,0.0,0.0,0.0,0.0,0.0,0.0,0.0,0.0,0.0,0.0,0.0,0.0,0.0,0.0,0.0,0.0,0.0,0.0,0.0,0.0,0.0,0.0,0.0,0.0,0.0,0.0,0.0,0.0,0.0,0.0,0.0,0.0,0.0,0.0,0.0,0.0,0.0,0.0,0.0,0.0,0.0,0.0,0.0,0.0,0.0,0.0,0.0,0.0,0.0,0.0,0.0,0.0,0.0,0.0,0.0,0.0,0.0,0.0,0.0,0.0,0.0,0.0,0.0,0.0,0.0,0.0,0.0,0.0,0.0,0.0,0.0,0.0,0.0,0.0,0.0,0.0,0.0,0.0,0.0,0.0,0.0,0.0,0.0,0.0,0.0,0.0,0.0,0.0,0.0,0.0,0.0,0.0,0.0,0.0,0.0,0.0,0.0,0.0,0.0,0.0,0.0,0.0,0.0,0.0,0.0,0.0,0.0,0.0,0.0,0.0,0.0,0.0,0.0,0.0,0.0,0.0,0.0,0.0,0.0,0.0,0.0,0.0,0.0,0.0,0.0,0.0,0.0,0.0,0.0,0.0,0.0,0.0,0.0,0.0,0.0,0.0,0.0,0.0,0.0,0.0,0.0,0.0,0.0,0.0,0.0,0.0,0.0,0.0,0.0,0.0,0.0,0.0,0.0,0.0,0.0,0.0,0.0,0.0,0.0,0.0,0.0,0.0,0.0,0.0,0.0,0.0,0.0,0.0,0.0,0.0,0.0,0.0,0.0,0.0,0.0,0.0,0.0,0.0,0.0,0.0,0.0,0.0,0.0,0.0,0.0,0.0,0.0,0.0,0.0,0.0,0.0,0.0,0.0,0.0,0.0,0.0,0.0,0.0,0.0,0.0,0.0,0.0,0.0,0.0,0.0,0.0,0.0,0.0,0.0,0.0,0.0,0.0,0.0,0.0,0.0,0.0,0.0,0.0,0.0,0.0,0.0,0.0,0.0,0.0,0.0,0.0,0.0,0.0,0.0,0.0,0.0,0.0,0.0,0.0,0.0,0.0,0.0,0.0,0.0,0.0,0.0,0.0,0.0,0.0,0.0,0.0,0.0,0.0,0.0,0.0,0.0,0.0,0.0,0.0,0.0,0.0,0.0,0.0,0.0,0.0,0.0,0.0,0.0,0.0,0.0,0.0,0.0,0.0,0.0,0.0,0.0,0.0,0.0,0.0,0.0,0.0,0.0,0.0,0.0,0.0,0.0,0.0,0.0,0.0,0.0,0.0,0.0,0.0,0.0,0.0,0.0,0.0,0.0,0.0,0.0,0.0,0.0,0.0,0.0,0.0,0.0,0.0,0.0,0.0,0.0,0.0,0.0,0.0,0.0,0.0,0.0,0.0,0.0,0.0,0.0,0.0,0.0,0.0,0.0,0.0,0.0,0.0,0.0,0.0,0.0,0.0,0.0,0.0,0.0,0.0,0.0,0.0,0.0,0.0,0.0,0.0,0.0,0.0,0.0,0.0,0.0,0.0,0.0,0.0,0.0,0.0,0.0,0.0,0.0,0.0,0.0,0.0,0.0,0.0,0.0,0.0,0.0,0.0,0.0,0.0,0.0,0.0,0.0,0.0,0.0,0.0,0.0,0.0,0.0,0.0,0.0,0.0,0.0,0.0,0.0,0.0,0.0,0.0,0.0,0.0,0.0,0.0,0.0,0.0,0.0,0.0,0.0,0.0,0.0,0.0,0.0,0.0,0.0,0.0,0.0,0.0,0.0,0.0,0.0,0.0,0.0,0.0,0.0,0.0,0.0,0.0,0.0,0.0,0.0,0.0,0.0,0.0,0.0,0.0,0.0,0.0,0.0,0.0,0.0,-3.0702,0.0,0.0,0.0,0.0,0.0,0.0,0.0,0.0,0.0,0.0,0.0,0.0,0.0,0.0,0.0,0.0,0.0,0.0,0.0,0.0,0.0,0.0,0.0,0.0,0.0,0.0,0.0,0.0,0.0,0.0,0.0,0.0,0.0,0.0,0.0,0.0,0.0,0.0,0.0,0.0,0.0,0.0,0.0,0.0,0.0,0.0,0.0,0.0,0.0,0.0,0.0,0.0,0.0,0.0,0.0,0.0,0.0,0.0,0.0,0.0,0.0,0.0,0.0,0.0,0.0,0.0,0.0,0.0,0.0,0.0,0.0,0.0,0.0,0.0,0.0,0.0,0.0,0.0,0.0,0.0,0.0,0.0,0.0,0.0,0.0,0.0,0.0,0.0,0.0,0.0,0.0,0.0,0.0,0.0,0.0,0.0,0.0,0.0,0.0,0.0,0.0,0.0,0.0,0.0,0.0,0.0,0.0,0.0,0.0,0.0,0.0,0.0,0.0,0.0,0.0,0.0,-3.1811,0.0,0.0,0.0,0.0,0.0,0.0,0.0,0.0,0.0,0.0,0.0,0.0,0.0,0.0,0.0,0.0,0.0,0.0,0.0,0.0,0.0,0.0,0.0,0.0,0.0,0.0,0.0,0.0,0.0,0.0,0.0,0.0,0.0,0.0,0.0,0.0,0.0,0.0,0.0,0.0,0.0,0.0,0.0,0.0,0.0,0.0,0.0,0.0,0.0,0.0,0.0,0.0,0.0,0.0,0.0,0.0,0.0,0.0,0.0,0.0,0.0,0.0,0.0,0.0,0.0,0.0,0.0,0.0,0.0,0.0,0.0,0.0,0.0,0.0,0.0,0.0,0.0,0.0,0.0,0.0,0.0,0.0,0.0,0.0,0.0,0.0,0.0,0.0,0.0,0.0,0.0,0.0,0.0,0.0,0.0,0.0,0.0,0.0,0.0,0.0,0.0,0.0,0.0,0.0,0.0,0.0,0.0,0.0,0.0,-3.3677,-3.3738,-3.3677,-3.3673,-3.3741,-3.3816,-3.326,-3.2303,0.0,0.0,0.0,0.0,0.0,0.0,0.0,0.0,0.0,0.0,0.0,0.0,0.0,0.0,0.0,0.0,0.0,0.0,0.0,0.0,0.0,0.0,0.0,0.0,0.0,0.0,0.0,0.0,0.0,0.0,0.0,0.0,0.0,0.0,0.0,0.0,0.0,0.0,0.0,0.0,0.0,0.0,0.0,0.0,0.0,0.0,0.0,0.0,0.0,0.0,0.0,0.0,0.0,0.0,0.0,0.0,0.0,0.0,0.0,0.0,0.0,0.0,0.0,0.0,0.0,0.0,0.0,0.0,0.0,0.0,0.0,0.0,0.0,0.0,0.0,0.0,0.0,0.0,0.0,0.0,0.0,0.0,0.0,0.0,0.0,0.0,0.0,-3.3515,-3.5195,0.0,0.0,0.0,0.0,0.0,0.0,0.0,0.0,0.0,0.0,0.0,0.0,0.0,0.0,-3.3206,-3.3953,-3.4322,-3.4341,-3.503,-3.5417,-3.5463,-3.5463,-3.546,-3.5473,-3.5548,0.0,-3.3142,-3.3142,0.0,0.0,0.0,0.0,0.0,0.0,0.0,0.0,0.0,0.0,0.0,0.0,0.0,0.0,0.0,0.0,0.0,0.0,0.0,0.0,0.0,0.0,0.0,0.0,0.0,0.0,0.0,0.0,0.0,0.0,0.0,0.0,0.0,0.0,0.0,0.0,0.0,0.0,0.0,0.0,0.0,0.0,0.0,0.0,0.0,0.0,0.0,0.0,0.0,0.0,0.0,0.0,0.0,0.0,0.0,0.0,0.0,0.0,0.0,0.0,0.0,0.0,0.0,0.0,0.0,0.0,0.0,0.0,0.0,0.0,0.0,0.0,0.0,0.0,0.0,0.0,0.0,0.0,0.0,0.0,0.0,0.0,0.0,0.0,0.0,-3.3414,-3.4726,-3.451,-3.532,-3.5757,0.0,0.0,0.0,0.0,0.0,0.0,0.0,0.0,0.0,-3.5127,-3.4826,-3.4641,-3.4603,-3.4972,-3.5166,-3.5185,-3.5563,-3.5775,-3.5803,-3.5795,-3.5806,-3.5794,-3.5839,-3.5428,-3.4724,-3.4277,-3.3591,-3.2783,0.0,0.0,0.0,0.0,0.0,-3.1565,0.0,0.0,0.0,0.0,0.0,0.0,0.0,0.0,0.0,0.0,0.0,0.0,0.0,0.0,0.0,0.0,0.0,0.0,0.0,0.0,0.0,0.0,0.0,0.0,0.0,0.0,0.0,0.0,0.0,0.0,0.0,0.0,0.0,0.0,0.0,0.0,0.0,0.0,0.0,0.0,0.0,0.0,0.0,0.0,0.0,0.0,0.0,0.0,0.0,0.0,0.0,0.0,0.0,0.0,0.0,0.0,0.0,0.0,0.0,0.0,0.0,0.0,0.0,0.0,0.0,0.0,0.0,0.0,0.0,0.0,0.0,0.0,0.0,0.0,0.0,0.0,0.0,-3.4196,-3.4941,-3.4137,-3.5142,-3.591,0.0,0.0,0.0,0.0,0.0,0.0,-3.5735,-3.5765,-3.5784,-3.5735,-3.5773,-3.5773,-3.5743,-3.5736,-3.5736,-3.5754,-3.5799,-3.5834,-3.583,-3.5833,-3.5836,-3.5836,-3.5836,-3.588,-3.5876,-3.5254,-3.4509,-3.3643,-3.2764,-3.2295,-3.2082,-3.1869,-3.1792,-3.1929,0.0,0.0,0.0,0.0,0.0,0.0,0.0,0.0,0.0,0.0,0.0,0.0,0.0,0.0,0.0,0.0,0.0,0.0,0.0,0.0,0.0,0.0,0.0,0.0,0.0,0.0,0.0,0.0,0.0,0.0,0.0,0.0,0.0,0.0,0.0,0.0,0.0,0.0,0.0,0.0,0.0,0.0,0.0,0.0,0.0,0.0,0.0,0.0,0.0,0.0,0.0,0.0,0.0,0.0,0.0,0.0,0.0,0.0,0.0,0.0,0.0,0.0,0.0,0.0,0.0,0.0,0.0,0.0,0.0,0.0,0.0,0.0,0.0,0.0,0.0,0.0,0.0,0.0,0.0,-3.5585,-3.5852,0.0,0.0,0.0,0.0,-3.5898,-3.583,-3.5801,-3.5801,-3.5788,-3.5799,-3.5801,-3.5803,-3.583,-3.5883,-3.583,-3.5823,-3.5879,-3.5897,-3.5885,-3.5896,-3.5887,-3.589,-3.5893,-3.597,-3.5994,-3.5994,-3.5874,-3.5361,-3.4545,-3.3688,-3.283,-3.201,-3.1246,-3.0953,-3.1089,0.0,0.0,0.0,0.0,0.0,0.0,0.0,0.0,0.0,0.0,0.0,0.0,0.0,0.0,0.0,0.0,0.0,0.0,0.0,0.0,0.0,0.0,0.0,0.0,0.0,0.0,0.0,0.0,0.0,0.0,0.0,0.0,0.0,0.0,0.0,0.0,0.0,0.0,0.0,0.0,0.0,0.0,0.0,0.0,0.0,0.0,0.0,0.0,0.0,0.0,0.0,0.0,0.0,0.0,0.0,0.0,0.0,0.0,0.0,0.0,0.0,0.0,0.0,0.0,0.0,0.0,0.0,0.0,0.0,0.0,0.0,0.0,0.0,0.0,0.0,0.0,0.0,0.0,0.0,-3.5886,-3.5951,0.0,0.0,-3.5897,-3.5894,-3.5909,-3.5887,-3.5853,-3.5853,-3.5856,-3.587,-3.586,-3.5866,-3.5866,-3.5836,-3.5816,-3.5816,-3.5851,-3.588,-3.5908,-3.5896,-3.5908,-3.5914,-3.5951,-3.5937,-3.5957,-3.5994,-3.5973,-3.5799,-3.5444,-3.4586,-3.4057,-3.3665,-3.2824,-3.286,-3.3385,0.0,0.0,0.0,0.0,0.0,0.0,0.0,0.0,0.0,0.0,0.0,0.0,0.0,0.0,0.0,0.0,0.0,0.0,0.0,0.0,0.0,0.0,0.0,0.0,0.0,0.0,0.0,0.0,0.0,0.0,0.0,0.0,0.0,0.0,0.0,0.0,0.0,0.0,0.0,0.0,0.0,0.0,-3.43,0.0,0.0,0.0,0.0,0.0,0.0,0.0,0.0,0.0,0.0,0.0,0.0,0.0,0.0,0.0,0.0,0.0,0.0,0.0,0.0,0.0,0.0,0.0,0.0,0.0,0.0,0.0,0.0,0.0,0.0,0.0,0.0,0.0,0.0,0.0,-3.5994,-3.5991,-3.5991,-3.5979,-3.5934,-3.5934,-3.5937,-3.5935,-3.5911,-3.5908,-3.5908,-3.5899,-3.5896,-3.5901,-3.5893,-3.5871,-3.5837,-3.5825,-3.5845,-3.5874,-3.5899,-3.5903,-3.5925,-3.5937,-3.5955,-3.5995,-3.5955,-3.5951,-3.6001,-3.5994,-3.5995,-3.5911,-3.5035,-3.4702,-3.456,-3.3389,-3.3504,-3.4298,0.0,0.0,0.0,0.0,0.0,0.0,0.0,0.0,0.0,0.0,0.0,0.0,0.0,0.0,0.0,0.0,0.0,0.0,0.0,0.0,0.0,0.0,0.0,0.0,0.0,0.0,0.0,0.0,0.0,0.0,0.0,0.0,0.0,0.0,0.0,0.0,0.0,0.0,0.0,0.0,0.0,0.0,-3.5165,0.0,0.0,0.0,0.0,0.0,0.0,0.0,0.0,0.0,0.0,0.0,0.0,0.0,0.0,0.0,0.0,0.0,0.0,0.0,0.0,0.0,0.0,0.0,0.0,0.0,0.0,0.0,0.0,0.0,0.0,0.0,0.0,0.0,-3.5981,-3.6005,-3.5994,-3.601,-3.5991,-3.5991,-3.5991,-3.5991,-3.5991,-3.5991,-3.5933,-3.5898,-3.5898,-3.589,-3.5908,-3.5898,-3.5909,-3.5909,-3.5898,-3.5909,-3.5947,-3.5995,-3.5937,-3.5936,-3.6003,-3.5996,-3.5994,-3.5994,-3.5994,-3.5991,-3.5994,-3.6001,-3.6003,-3.5927,-3.5075,-3.4743,-3.4526,-3.2809,-3.2728,-3.3561,0.0,0.0,0.0,0.0,0.0,0.0,0.0,0.0,0.0,0.0,0.0,0.0,0.0,0.0,0.0,0.0,0.0,0.0,0.0,0.0,0.0,0.0,0.0,0.0,0.0,0.0,0.0,0.0,0.0,0.0,0.0,0.0,0.0,0.0,0.0,0.0,0.0,0.0,0.0,0.0,0.0,0.0,-3.6801,0.0,0.0,0.0,0.0,0.0,0.0,0.0,0.0,0.0,0.0,0.0,0.0,0.0,0.0,0.0,0.0,0.0,0.0,0.0,0.0,0.0,0.0,0.0,0.0,0.0,0.0,0.0,0.0,0.0,0.0,0.0,0.0,-3.5914,-3.5914,-3.5934,-3.5958,-3.5994,-3.6001,-3.6004,-3.6004,-3.6007,-3.5991,-3.5991,-3.5979,-3.5964,-3.5964,-3.597,-3.597,-3.5964,-3.597,-3.597,-3.5964,-3.597,-3.5989,-3.6005,-3.5984,-3.5984,-3.6003,-3.5996,-3.5996,-3.6001,-3.5996,-3.5991,-3.5994,-3.5994,-3.5999,-3.5986,-3.5739,-3.564,-3.5519,-3.4389,-3.4131,-3.4474,0.0,0.0,0.0,0.0,0.0,0.0,0.0,0.0,0.0,0.0,0.0,0.0,0.0,0.0,0.0,0.0,0.0,0.0,0.0,0.0,0.0,0.0,0.0,0.0,0.0,0.0,0.0,0.0,0.0,0.0,0.0,0.0,0.0,0.0,0.0,0.0,0.0,0.0,0.0,0.0,0.0,0.0,-3.8419,-3.725,-3.6285,-3.544,-3.4642,-3.4502,-3.4507,-3.3266,0.0,0.0,0.0,0.0,0.0,0.0,0.0,0.0,0.0,0.0,0.0,0.0,0.0,0.0,0.0,0.0,0.0,0.0,0.0,0.0,0.0,0.0,0.0,0.0,-3.6142,-3.6031,-3.6387,-3.6138,-3.5914,-3.5986,-3.599,-3.5994,-3.6001,-3.6004,-3.6007,-3.5991,-3.5991,-3.5991,-3.5991,-3.5991,-3.5991,-3.5991,-3.5991,-3.5991,-3.5991,-3.5991,-3.5991,-3.5991,-3.5991,-3.5994,-3.5999,-3.5994,-3.5996,0.0,-3.5994,-3.5991,-3.5991,-3.5991,-3.5996,0.0,0.0,0.0,0.0,0.0,-3.5005,-3.4827,0.0,0.0,0.0,0.0,0.0,0.0,0.0,0.0,0.0,0.0,0.0,0.0,0.0,0.0,0.0,0.0,0.0,0.0,0.0,0.0,0.0,0.0,0.0,0.0,0.0,0.0,0.0,0.0,0.0,0.0,0.0,0.0,0.0,0.0,0.0,0.0,0.0,0.0,0.0,0.0,0.0,0.0,-4.0197,-3.8456,-3.7287,-3.6479,-3.5605,-3.4816,-3.4086,-3.3326,0.0,0.0,0.0,0.0,0.0,0.0,0.0,0.0,0.0,0.0,0.0,0.0,0.0,0.0,0.0,0.0,0.0,0.0,0.0,0.0,0.0,0.0,0.0,0.0,-3.6629,-3.6454,-3.7233,-3.6679,-3.6143,-3.602,-3.5981,-3.5986,-3.5997,-3.5997,-3.6001,-3.5991,-3.5991,-3.5991,-3.5991,0.0,0.0,0.0,0.0,-3.5991,-3.5991,-3.5991,-3.5991,-3.5991,-3.5991,-3.5991,-3.5991,-3.5991,-3.5991,-3.5991,-3.5991,-3.5991,-3.5991,-3.5991,-3.5994,-3.5996,-3.6005,-3.6007,-3.6003,-3.5996,-3.5508,0.0,0.0,0.0,0.0,0.0,0.0,0.0,0.0,0.0,0.0,0.0,0.0,0.0,0.0,0.0,0.0,0.0,0.0,0.0,0.0,0.0,0.0,0.0,0.0,0.0,0.0,0.0,0.0,0.0,0.0,0.0,0.0,0.0,0.0,0.0,0.0,0.0,0.0,0.0,0.0,0.0,0.0,0.0,-4.2577,-4.0381,-3.9001,-3.8221,-3.7382,-3.6667,-3.5962,-3.5088,-3.4888,-3.4773,-3.3417,0.0,0.0,0.0,0.0,0.0,0.0,0.0,0.0,0.0,0.0,0.0,0.0,0.0,0.0,0.0,0.0,0.0,0.0,0.0,0.0,-3.7163,-3.7642,-3.8052,-3.8227,-3.809,-3.7473,-3.6075,-3.5924,-3.5914,-3.5914,-3.5962,-3.5994,-3.6001,-3.6001,-3.6004,-3.5991,-3.5991,0.0,-3.5991,-3.5991,-3.5991,-3.5991,-3.5991,-3.5991,-3.5991,0.0,0.0,-3.5991,-3.5991,-3.5991,-3.5991,-3.5991,-3.5991,-3.5991,-3.5991,-3.5996,-3.6001,-3.5999,-3.6001,-3.6003,-3.5996,-3.5896,-3.5779,0.0,0.0,0.0,0.0,0.0,0.0,0.0,0.0,0.0,0.0,0.0,0.0,0.0,0.0,0.0,0.0,0.0,0.0,0.0,0.0,0.0,0.0,0.0,0.0,0.0,0.0,0.0,0.0,0.0,0.0,0.0,0.0,0.0,0.0,0.0,0.0,0.0,0.0,0.0,0.0,0.0,0.0,-4.5039,-4.265,-4.1282,-4.0375,-3.8773,-3.7497,-3.6369,-3.5121,-3.4488,-3.408,-3.325,-3.299,-3.3083,0.0,0.0,0.0,0.0,0.0,0.0,0.0,0.0,0.0,0.0,0.0,0.0,0.0,0.0,-3.6416,0.0,0.0,-3.7864,-3.8364,-3.8488,-3.8656,-3.9084,-3.8772,-3.8188,-3.7292,-3.681,-3.6543,-3.6553,-3.6187,-3.5962,-3.5994,-3.5994,-3.5994,-3.6001,-3.6004,-3.6007,-3.6007,-3.5991,-3.5991,-3.5991,-3.5991,-3.5991,-3.5991,-3.5991,-3.5991,-3.5991,-3.5991,-3.5991,-3.5991,-3.5991,-3.5991,-3.5991,-3.5991,-3.5994,-3.5999,-3.5994,-3.5988,-3.5942,-3.5951,-3.5909,-3.5844,0.0,0.0,0.0,0.0,0.0,0.0,0.0,0.0,0.0,0.0,0.0,0.0,0.0,0.0,0.0,0.0,0.0,0.0,0.0,0.0,0.0,0.0,0.0,0.0,0.0,0.0,0.0,0.0,0.0,0.0,0.0,0.0,0.0,0.0,0.0,0.0,0.0,0.0,0.0,0.0,0.0,0.0,-4.7076,-4.4654,-4.329,-4.2327,-3.9927,-3.8069,-3.6545,-3.5073,-3.4043,-3.3345,-3.3101,-3.2767,-3.2692,-3.3677,-3.3621,0.0,0.0,0.0,0.0,0.0,0.0,0.0,0.0,0.0,-3.5892,-3.6801,-3.7038,-3.7314,-3.8149,-3.8443,-3.8799,-3.9568,-3.9305,-3.9234,-3.9961,-3.9454,-3.9006,-3.9006,-3.7935,-3.7278,-3.7444,-3.6509,-3.5987,-3.6216,-3.6079,-3.5981,-3.6005,-3.5994,-3.5997,-3.5997,-3.6004,-3.6007,-3.601,-3.5965,-3.5962,-3.5981,-3.5955,-3.5931,-3.5931,-3.5931,-3.5931,-3.5931,-3.5931,-3.5931,-3.5931,-3.5962,-3.5981,-3.5981,-3.5981,-3.5923,-3.5869,-3.5889,-3.5833,-3.5737,0.0,0.0,0.0,0.0,0.0,0.0,0.0,0.0,0.0,0.0,0.0,0.0,0.0,0.0,0.0,0.0,0.0,0.0,0.0,0.0,0.0,0.0,0.0,0.0,0.0,0.0,0.0,0.0,0.0,0.0,0.0,0.0,0.0,0.0,0.0,0.0,0.0,0.0,0.0,0.0,0.0,0.0,-4.7902,-4.548,-4.4101,-4.3174,-4.0806,-3.8976,-3.7516,-3.6609,-3.581,-3.4959,-3.3473,-3.3956,-3.481,-3.351,0.0,-3.4086,-3.4179,-3.4197,-3.425,-3.4526,-3.5133,-3.5722,0.0,0.0,-3.7543,-3.7655,-3.7872,-3.8102,-3.8276,-3.8937,-3.952,-3.9677,-4.0276,-4.0777,-4.0929,-4.0877,-4.0818,-4.0818,-3.8675,-3.7506,-3.8285,-3.6863,-3.6231,-3.7001,-3.6358,-3.5934,-3.6005,-3.6005,-3.6005,-3.6005,-3.6009,-3.5994,-3.6001,-3.5885,-3.585,-3.5919,-3.5801,-3.5725,-3.5725,-3.5725,-3.5725,-3.5725,-3.5725,-3.5725,-3.5733,-3.5858,-3.5919,-3.5919,-3.5919,-3.582,-3.5745,-3.5872,-3.5883,-3.5852,0.0,0.0,0.0,0.0,0.0,0.0,0.0,0.0,0.0,0.0,0.0,0.0,0.0,0.0,0.0,0.0,0.0,0.0,0.0,0.0,0.0,0.0,0.0,0.0,0.0,0.0,0.0,0.0,0.0,0.0,0.0,0.0,0.0,0.0,0.0,0.0,0.0,0.0,0.0,0.0,0.0,0.0,-4.6746,-4.5278,-4.3626,-4.1912,-4.0068,-3.8403,0.0,0.0,-3.5101,-3.3918,-3.3213,-3.3157,-3.3287,-3.3064,-3.3231,0.0,-3.4067,0.0,0.0,0.0,-3.5866,-3.6603,-3.6761,-3.7643,-3.8456,-3.8542,-3.9023,-3.9456,-3.9554,-3.9908,-4.0219,0.0,-4.0684,-4.076,-4.0237,-4.0249,-4.0062,-3.9432,-3.8019,-3.7468,-3.8416,-3.7389,-3.6559,-3.6345,-3.6053,-3.5883,-3.5833,-3.5894,-3.5938,-3.5938,-3.5986,-3.5994,-3.599,-3.5899,-3.5839,-3.5839,-3.5753,-3.5693,-3.5693,-3.5693,-3.5693,-3.5693,-3.5704,-3.5704,-3.5702,-3.5764,-3.5779,-3.5787,-3.5787,-3.5753,-3.5693,-3.5724,-3.5698,-3.5658,0.0,0.0,0.0,0.0,0.0,0.0,0.0,0.0,0.0,0.0,0.0,0.0,0.0,0.0,0.0,0.0,0.0,0.0,0.0,0.0,0.0,0.0,0.0,0.0,0.0,0.0,0.0,0.0,0.0,0.0,0.0,0.0,0.0,0.0,0.0,0.0,0.0,0.0,0.0,0.0,0.0,0.0,-4.5094,-4.3846,-4.2029,-3.9955,-3.8944,-3.7701,0.0,0.0,-3.4476,-3.364,-3.3398,-3.3101,-3.2878,-3.3231,-3.3324,-3.351,-3.4327,0.0,0.0,-3.6092,-3.7107,-3.807,-3.8112,-3.9039,-3.9833,-3.9699,-4.0192,-4.0607,-4.0473,-4.0492,0.0,-4.0674,-4.0734,-4.0533,-3.9879,-3.9645,-3.9287,-3.8516,-3.7762,-3.7499,-3.8011,-3.7279,-3.655,-3.6075,-3.59,-3.5869,-3.6008,-3.5889,-3.5911,-3.6138,-3.5969,-3.5883,-3.5897,-3.5813,-3.5772,-3.5718,-3.564,-3.5591,-3.5591,-3.5591,-3.5591,-3.5591,-3.559,-3.56,-3.5601,-3.5641,-3.5631,-3.565,-3.5678,-3.5678,-3.5669,-3.5596,-3.5553,-3.5522,0.0,0.0,0.0,0.0,0.0,0.0,0.0,0.0,0.0,0.0,0.0,0.0,0.0,0.0,0.0,0.0,0.0,0.0,0.0,0.0,0.0,0.0,0.0,0.0,0.0,0.0,0.0,0.0,0.0,0.0,0.0,0.0,0.0,0.0,0.0,0.0,0.0,0.0,0.0,0.0,0.0,0.0,-4.3296,-4.0946,-3.9019,-3.7617,-3.7708,0.0,0.0,0.0,-3.4754,-3.5274,-3.442,-3.4717,0.0,-3.4401,-3.416,0.0,0.0,0.0,-3.6835,-3.7634,-3.9154,-4.0475,-4.0502,-4.1418,-4.2063,-4.1285,-4.136,-4.1299,-4.0454,-4.0317,-4.0332,-4.0392,-4.0408,-4.0438,-4.0453,-3.9753,-3.9239,-3.9264,-3.8562,-3.7773,0.0,-3.616,-3.5985,-3.6798,-3.6082,-3.5955,-3.6737,-3.6033,-3.5966,-3.6748,-3.6024,-3.562,-3.5601,-3.555,-3.5502,-3.5507,-3.5383,-3.5311,-3.5311,-3.5311,-3.5311,-3.5311,-3.5311,-3.5311,-3.5326,-3.5444,-3.5516,-3.5516,-3.5588,-3.5588,-3.5596,-3.5522,-3.554,-3.5585,0.0,0.0,0.0,0.0,0.0,0.0,0.0,0.0,0.0,0.0,0.0,0.0,0.0,0.0,0.0,0.0,0.0,0.0,0.0,0.0,0.0,0.0,0.0,0.0,0.0,0.0,0.0,0.0,0.0,0.0,0.0,0.0,0.0,0.0,0.0,0.0,0.0,0.0,0.0,0.0,0.0,0.0,-3.9423,-3.8597,-3.6945,-3.5138,0.0,0.0,0.0,0.0,0.0,0.0,-3.3491,0.0,0.0,-3.4123,0.0,0.0,0.0,0.0,-3.8488,-3.9342,-4.0477,-4.1409,-4.1409,-4.1792,-4.1788,-4.048,-4.0268,-3.9962,-3.8726,-3.8991,-3.9409,-3.9509,-3.9986,-4.0123,-3.9519,-3.9269,-3.867,-3.7455,-3.7149,0.0,0.0,0.0,0.0,-3.5926,-3.5717,-3.5941,-3.6691,-3.6006,-3.5974,-3.6764,-3.6024,-3.559,-3.5599,-3.5519,-3.5502,-3.5509,-3.5355,-3.5315,-3.5315,-3.5315,-3.5315,-3.53,-3.5304,-3.5304,-3.5296,-3.535,-3.5378,-3.5443,-3.5502,-3.5502,-3.5476,-3.5488,-3.5501,-3.5476,0.0,0.0,0.0,0.0,0.0,0.0,0.0,0.0,0.0,0.0,0.0,0.0,0.0,0.0,0.0,0.0,0.0,0.0,0.0,0.0,0.0,0.0,0.0,0.0,0.0,0.0,0.0,0.0,0.0,0.0,0.0,0.0,0.0,0.0,0.0,0.0,0.0,0.0,0.0,0.0,0.0,0.0,-3.6597,-3.6597,-3.544,0.0,0.0,0.0,0.0,0.0,0.0,0.0,0.0,0.0,0.0,0.0,0.0,0.0,0.0,-3.8748,-4.0197,-4.1051,-4.1938,-4.2518,-4.222,-4.2062,-4.1485,-3.9865,-3.9373,-3.8826,-3.7638,-3.7907,-3.8346,-3.8441,-3.8898,-3.9146,-3.888,-3.863,-3.8171,-3.73,-3.6993,0.0,0.0,0.0,0.0,-3.5392,-3.594,-3.6531,-3.7037,-3.6301,-3.6279,-3.7088,-3.6048,-3.5451,-3.5457,-3.5405,-3.5397,-3.5388,-3.53,-3.527,-3.527,-3.527,-3.527,-3.527,-3.5258,-3.5226,-3.5155,-3.5152,-3.5136,-3.5119,-3.519,-3.519,-3.5155,-3.5223,-3.5223,-3.5207,0.0,0.0,0.0,0.0,0.0,0.0,0.0,0.0,0.0,0.0,0.0,0.0,0.0,0.0,0.0,0.0,0.0,0.0,0.0,0.0,0.0,0.0,0.0,0.0,0.0,0.0,0.0,0.0,0.0,0.0,0.0,0.0,0.0,0.0,0.0,0.0,0.0,0.0,0.0,0.0,0.0,0.0,-3.4862,-3.4862,0.0,0.0,0.0,0.0,0.0,0.0,0.0,0.0,0.0,0.0,0.0,0.0,0.0,-3.8154,-3.899,-4.042,-4.185,-4.2649,-4.3392,-4.3726,-4.2927,-4.2172,-4.1185,-3.956,-3.869,-3.8005,0.0,0.0,-3.73,-3.7357,-3.7423,-3.7769,-3.8622,-3.8054,-3.7828,0.0,0.0,0.0,0.0,0.0,0.0,-3.534,0.0,-3.7642,-3.7755,-3.6897,-3.68,-3.7674,-3.6069,-3.5209,-3.5209,-3.5193,-3.5174,-3.5174,-3.5157,-3.5157,-3.5157,-3.5157,-3.5157,-3.5174,-3.5174,-3.5072,-3.4889,-3.4907,-3.4774,-3.4612,-3.4674,-3.4694,-3.4694,-3.4773,-3.4812,-3.4831,0.0,0.0,0.0,0.0,0.0,0.0,0.0,0.0,0.0,0.0,0.0,0.0,0.0,0.0,0.0,0.0,0.0,0.0,0.0,0.0,0.0,0.0,0.0,0.0,0.0,0.0,0.0,0.0,0.0,0.0,0.0,0.0,0.0,0.0,0.0,0.0,0.0,0.0,0.0,0.0,0.0,0.0,-3.3193,0.0,0.0,0.0,0.0,0.0,0.0,0.0,0.0,0.0,0.0,0.0,-3.5739,0.0,0.0,-3.9101,-4.0568,-4.1702,-4.2686,-4.3485,-4.3392,-4.289,-4.2092,-4.0802,-3.9518,-3.86,-3.7792,-3.7205,0.0,0.0,0.0,-3.7953,-3.8143,0.0,-3.9324,-3.9334,0.0,0.0,0.0,-3.8152,-3.7507,-3.8038,0.0,0.0,-3.73,-3.7871,-3.8499,-3.7128,-3.6709,-3.7604,-3.6058,-3.5198,-3.5198,-3.5056,-3.4982,-3.4963,-3.4774,-3.4675,-3.4675,-3.4675,-3.4774,-3.4982,-3.4982,-3.4964,-3.4889,-3.4907,-3.4774,-3.4612,-3.4674,-3.4674,-3.4653,-3.4753,-3.4733,-3.4653,0.0,0.0,0.0,0.0,0.0,0.0,0.0,0.0,0.0,0.0,0.0,0.0,0.0,0.0,0.0,0.0,0.0,0.0,0.0,0.0,0.0,0.0,0.0,0.0,0.0,0.0,0.0,0.0,0.0,0.0,0.0,0.0,0.0,0.0,0.0,0.0,0.0,0.0,0.0,0.0,0.0,0.0,0.0,0.0,0.0,0.0,0.0,0.0,0.0,0.0,0.0,-3.4715,-3.5247,-3.5922,-3.6764,-3.8006,0.0,-3.9955,-4.1237,-4.2184,-4.2816,-4.2927,-4.2872,-4.2389,-4.0847,-3.9491,-3.8366,-3.7646,-3.687,0.0,0.0,0.0,0.0,0.0,0.0,0.0,-3.8437,-3.8935,-3.9169,0.0,-3.9082,0.0,-3.8464,-3.8923,-3.8977,0.0,-3.8509,-3.8687,-3.8783,-3.7547,-3.7072,-3.7585,-3.6005,-3.5092,-3.4983,-3.487,-3.4753,-3.4614,-3.4467,-3.4401,-3.4401,-3.4445,-3.4529,-3.4674,0.0,-3.4672,-3.4588,-3.4593,-3.4464,-3.4237,-3.4302,-3.426,-3.426,-3.4371,-3.4371,-3.4302,0.0,0.0,0.0,0.0,0.0,0.0,0.0,0.0,0.0,0.0,0.0,0.0,0.0,0.0,0.0,0.0,0.0,0.0,0.0,0.0,0.0,0.0,0.0,0.0,0.0,0.0,0.0,0.0,0.0,0.0,0.0,0.0,0.0,0.0,0.0,0.0,0.0,0.0,0.0,0.0,0.0,0.0,0.0,0.0,0.0,0.0,0.0,0.0,0.0,0.0,-3.4465,-3.5301,-3.5412,-3.6518,-3.7998,-3.9016,-3.9814,-4.0558,-4.1468,-4.2247,-4.2593,-4.1794,-4.2036,-4.185,-3.9444,-3.8294,-3.7541,-3.6809,0.0,0.0,-3.6872,0.0,-3.5781,-3.5893,0.0,-3.6137,-3.7094,-3.785,-3.8601,-3.9389,-3.9599,-3.9628,-3.9628,-3.9735,-3.9656,-3.9283,-3.9519,-3.9353,-3.8715,-3.7843,-3.7296,-3.7147,-3.5742,-3.487,-3.4653,-3.4612,-3.4486,-3.4265,-3.4218,-3.4218,-3.4218,-3.4265,-3.4311,-3.4334,0.0,0.0,-3.4173,-3.4173,-3.4023,-3.3807,-3.3807,-3.3807,-3.3788,-3.3815,-3.3842,-3.3823,0.0,0.0,0.0,0.0,0.0,0.0,0.0,0.0,0.0,0.0,0.0,0.0,0.0,0.0,0.0,0.0,0.0,0.0,0.0,0.0,0.0,0.0,0.0,0.0,0.0,0.0,0.0,0.0,0.0,0.0,0.0,0.0,0.0,0.0,0.0,0.0,0.0,0.0,0.0,0.0,0.0,0.0,0.0,0.0,0.0,0.0,0.0,0.0,0.0,0.0,-3.4219,-3.5358,-3.6058,-3.6953,-3.8135,-4.0288,-4.0547,-4.0503,-4.202,-4.2582,-4.252,-4.1723,-4.1141,-4.0317,-3.8311,-3.7377,0.0,0.0,0.0,-3.7726,-3.8544,-3.7493,0.0,-3.7381,0.0,0.0,0.0,0.0,-3.8606,0.0,0.0,0.0,0.0,0.0,0.0,0.0,0.0,0.0,-3.8059,-3.7237,-3.6136,-3.4824,-3.4506,-3.4357,-3.4379,-3.4208,-3.4105,-3.4055,-3.3842,-3.3734,-3.3734,-3.3734,-3.385,-3.408,0.0,0.0,-3.4049,-3.4099,-3.3947,-3.3726,-3.378,-3.3807,-3.3762,-3.356,-3.3447,-3.3361,0.0,0.0,0.0,0.0,0.0,0.0,0.0,0.0,0.0,0.0,0.0,0.0,0.0,0.0,0.0,0.0,0.0,0.0,0.0,0.0,0.0,0.0,0.0,0.0,0.0,0.0,0.0,0.0,0.0,0.0,0.0,0.0,0.0,0.0,0.0,0.0,0.0,0.0,0.0,0.0,0.0,0.0,0.0,0.0,0.0,0.0,0.0,0.0,0.0,0.0,-3.3725,-3.4697,-3.5495,-3.6479,-3.7644,-3.9213,-3.9282,-3.913,-4.0385,-4.0748,-4.058,-3.9725,-3.9347,-3.8762,-3.7016,0.0,0.0,0.0,0.0,-3.7732,-3.8589,0.0,0.0,0.0,0.0,0.0,0.0,0.0,0.0,0.0,0.0,0.0,0.0,0.0,0.0,0.0,0.0,0.0,-3.7172,-3.6356,-3.5404,-3.4245,-3.4208,-3.416,-3.4043,-3.3928,-3.3834,-3.3671,-3.3549,-3.3509,-3.3509,-3.352,-3.3633,-3.3753,-3.378,0.0,-3.3807,-3.3868,-3.4072,-3.4348,-3.4403,-3.4302,-3.4142,-3.4007,-3.3587,-3.3032,0.0,0.0,0.0,0.0,0.0,0.0,0.0,0.0,0.0,0.0,0.0,0.0,0.0,0.0,0.0,0.0,0.0,0.0,0.0,0.0,0.0,0.0,0.0,0.0,0.0,0.0,0.0,0.0,0.0,0.0,0.0,0.0,0.0,0.0,0.0,0.0,0.0,0.0,0.0,0.0,0.0,0.0,0.0,0.0,0.0,0.0,0.0,0.0,0.0,0.0,-3.3093,-3.374,-3.4322,-3.5472,-3.6761,-3.7591,-3.7623,-3.7612,-3.8474,-3.8816,-3.869,-3.7719,-3.7623,-3.738,-3.589,-3.5711,0.0,0.0,-3.6726,-3.7517,-3.8223,0.0,0.0,0.0,0.0,0.0,0.0,0.0,0.0,0.0,0.0,0.0,0.0,0.0,0.0,0.0,0.0,0.0,-3.6507,-3.5404,-3.4647,-3.4231,-3.4046,-3.3895,-3.3698,-3.3698,-3.3605,-3.3393,-3.3393,-3.3393,-3.3393,-3.3452,-3.3542,-3.3599,-3.364,0.0,0.0,-3.3857,-3.4171,-3.4618,-3.4677,-3.4431,-3.4055,-3.3993,-3.3409,-3.2634,0.0,0.0,0.0,0.0,0.0,0.0,0.0,0.0,0.0,0.0,0.0,0.0,0.0,0.0,0.0,0.0,0.0,0.0,0.0,0.0,0.0,0.0,0.0,0.0,0.0,0.0,0.0,0.0,0.0,0.0,0.0,0.0,0.0,0.0,0.0,0.0,0.0,0.0,0.0,0.0,0.0,0.0,0.0,0.0,0.0,0.0,0.0,0.0,0.0,0.0,0.0,-3.2423,-3.2808,-3.4023,-3.5536,-3.6341,0.0,0.0,-3.7506,-3.8259,-3.8456,-3.6986,-3.6676,-3.6425,-3.5311,0.0,0.0,0.0,-3.7144,-3.8044,-3.8117,-3.7413,0.0,0.0,0.0,0.0,0.0,0.0,0.0,0.0,0.0,0.0,0.0,0.0,0.0,0.0,0.0,0.0,0.0,-3.4542,-3.3604,-3.4271,-3.3568,-3.3256,-3.3352,-3.3352,-3.3352,-3.3393,-3.3393,-3.3393,-3.3393,-3.3411,-3.361,-3.3955,0.0,0.0,0.0,-3.4481,-3.4164,-3.3651,-3.3684,-3.3293,-3.2657,-3.2336,-3.2161,-3.2039,0.0,0.0,0.0,0.0,0.0,0.0,0.0,0.0,0.0,0.0,0.0,0.0,0.0,0.0,0.0,0.0,0.0,0.0,0.0,0.0,0.0,0.0,0.0,0.0,0.0,0.0,0.0,0.0,0.0,0.0,0.0,0.0,0.0,0.0,0.0,0.0,0.0,0.0,0.0,0.0,0.0,0.0,0.0,0.0,0.0,0.0,0.0,0.0,0.0,0.0,0.0,0.0,-3.1948,-3.2474,0.0,0.0,-3.5095,-3.5731,-3.6068,-3.6698,-3.7053,-3.5983,-3.5465,-3.5011,-3.411,0.0,0.0,-3.5154,-3.6041,-3.6844,-3.7342,-3.7164,-3.6914,0.0,0.0,0.0,0.0,0.0,0.0,0.0,0.0,0.0,0.0,0.0,0.0,0.0,0.0,0.0,0.0,-3.5017,-3.3934,-3.4271,-3.353,-3.3135,-3.3165,-3.3165,-3.3196,-3.3226,-3.3055,-3.3104,-3.3322,-3.283,-3.3095,-3.3859,0.0,0.0,0.0,-3.3717,-3.3598,-3.3371,-3.3459,-3.3196,-3.2773,-3.2647,-3.2221,-3.1654,0.0,0.0,0.0,0.0,0.0,0.0,0.0,0.0,0.0,0.0,0.0,0.0,0.0,0.0,0.0,0.0,0.0,0.0,0.0,0.0,0.0,0.0,0.0,0.0,0.0,0.0,0.0,0.0,0.0,0.0,0.0,0.0,0.0,0.0,0.0,0.0,0.0,0.0,0.0,0.0,0.0,0.0,0.0,0.0,0.0,0.0,0.0,0.0,0.0,0.0,0.0,0.0,0.0,0.0,0.0,0.0,-3.3627,-3.4525,-3.4484,-3.5076,-3.5473,-3.4714,-3.4211,-3.3734,0.0,0.0,-3.363,-3.4623,-3.5311,-3.5962,-3.6768,-3.6908,-3.6908,0.0,0.0,0.0,0.0,0.0,0.0,0.0,0.0,0.0,0.0,0.0,0.0,0.0,0.0,0.0,0.0,-3.5243,-3.423,-3.4566,-3.3562,-3.3055,-3.3055,-3.2943,-3.2912,-3.2961,-3.2636,-3.2636,-3.2898,-3.2334,-3.2581,-3.3406,0.0,0.0,0.0,-3.3382,-3.327,-3.2931,-3.3231,-3.2928,-3.2397,-3.2397,-3.1914,-3.1308,0.0,0.0,0.0,0.0,0.0,0.0,0.0,0.0,0.0,0.0,0.0,0.0,0.0,0.0,0.0,0.0,0.0,0.0,0.0,0.0,0.0,0.0,0.0,0.0,0.0,0.0,0.0,0.0,0.0,0.0,0.0,0.0,0.0,0.0,0.0,0.0,0.0,0.0,0.0,0.0,0.0,0.0,0.0,0.0,0.0,0.0,0.0,0.0,0.0,0.0,0.0,0.0,0.0,0.0,0.0,0.0,-3.22,-3.29,-3.2857,-3.3446,-3.3921,-3.3128,-3.2921,-3.2904,0.0,0.0,-3.3335,-3.4869,-3.5342,-3.5745,-3.6545,-3.6702,-3.6702,-3.6702,-3.6018,0.0,0.0,0.0,0.0,0.0,0.0,0.0,0.0,0.0,0.0,0.0,0.0,0.0,0.0,-3.4766,-3.4248,-3.5151,-3.3687,-3.2948,-3.2979,-3.2603,-3.247,-3.2606,-3.2179,-3.2003,-3.1986,-3.1986,-3.2202,0.0,0.0,0.0,0.0,-3.3896,-3.3342,-3.2102,-3.2797,-3.2236,-3.0912,-3.0912,-3.0929,-3.0814,0.0,0.0,0.0,0.0,0.0,0.0,0.0,0.0,0.0,0.0,0.0,0.0,0.0,0.0,0.0,0.0,0.0,0.0,0.0,0.0,0.0,0.0,0.0,0.0,0.0,0.0,0.0,0.0,0.0,0.0,0.0,0.0,0.0,0.0,0.0,0.0,0.0,0.0,0.0,0.0,0.0,0.0,0.0,0.0,0.0,0.0,0.0,0.0,0.0,0.0,0.0,0.0,0.0,0.0,0.0,0.0,0.0,0.0,-3.2667,-3.3271,-3.3705,-3.2877,-3.2672,-3.2552,-3.2055,0.0,-3.2209,-3.3203,-3.3527,-3.4042,-3.5352,-3.5659,-3.5682,-3.5682,-3.5434,0.0,0.0,0.0,0.0,0.0,0.0,0.0,0.0,0.0,0.0,0.0,0.0,0.0,0.0,-3.4521,-3.3802,-3.4116,-3.2876,-3.2162,-3.1986,-3.258,-3.2544,-3.1861,-3.2046,-3.1953,-3.1625,-3.1145,0.0,0.0,0.0,0.0,0.0,-3.2546,-3.2137,-3.162,-3.1338,-3.0957,-3.0543,-3.0543,-3.0368,-3.0064,0.0,0.0,0.0,0.0,0.0,0.0,0.0,0.0,0.0,0.0,0.0,0.0,0.0,0.0,0.0,0.0,0.0,0.0,0.0,0.0,0.0,0.0,0.0,0.0,0.0,0.0,0.0,0.0,0.0,0.0,0.0,0.0,0.0,0.0,0.0,0.0,0.0,0.0,0.0,0.0,0.0,0.0,0.0,0.0,0.0,0.0,0.0,0.0,0.0,0.0,0.0,0.0,0.0,0.0,0.0,0.0,0.0,0.0,0.0,-3.2741,-3.2815,-3.232,-3.22,0.0,0.0,0.0,0.0,-3.1948,-3.2319,-3.2975,-3.4209,-3.4692,-3.4905,-3.4905,-3.5052,0.0,0.0,0.0,0.0,0.0,0.0,0.0,0.0,0.0,0.0,0.0,0.0,0.0,0.0,0.0,-3.305,-3.3007,-3.2144,-3.164,-3.1476,-3.1974,-3.1897,-3.1227,-3.1362,-3.1304,-3.0993,-3.0535,0.0,0.0,0.0,0.0,0.0,-3.1984,-3.1605,-3.1071,-3.0614,-3.0185,-2.9766,-2.9766,-2.9556,-2.9284,0.0,0.0,0.0,0.0,0.0,0.0,0.0,0.0,0.0,0.0,0.0,0.0,0.0,0.0,0.0,0.0,0.0,0.0,0.0,0.0,0.0,0.0,0.0,0.0,0.0,0.0,0.0,0.0,0.0,0.0,0.0,0.0,0.0,0.0,0.0,0.0,0.0,0.0,0.0,0.0,0.0,0.0,0.0,0.0,0.0,0.0,0.0,0.0,0.0,0.0,0.0,0.0,0.0,0.0,0.0,0.0,0.0,0.0,0.0,0.0,0.0,0.0,0.0,0.0,0.0,0.0,0.0,0.0,0.0,-3.2285,-3.3135,-3.3824,-3.4235,-3.43,-3.4748,0.0,0.0,0.0,0.0,0.0,0.0,0.0,0.0,0.0,0.0,0.0,0.0,0.0,0.0,0.0,-3.2059,-3.1965,-3.1458,-3.1283,-3.1283,-3.0998,-3.0814,-3.0723,-3.0392,-3.0195,-3.0205,-3.0146,0.0,0.0,0.0,0.0,0.0,-3.1867,-3.1475,-3.0416,-3.0368,-2.9611,-2.8638,-2.8638,-2.8591,-2.848,0.0,0.0,0.0,0.0,0.0,0.0,0.0,0.0,0.0,0.0,0.0,0.0,0.0,0.0,0.0,0.0,0.0,0.0,0.0,0.0,0.0,0.0,0.0,0.0,0.0,0.0,0.0,0.0,0.0,0.0,0.0,0.0,0.0,0.0,0.0,0.0,0.0,0.0,0.0,0.0,0.0,0.0,0.0,0.0,0.0,0.0,-2.9042,0.0,0.0,0.0,0.0,0.0,0.0,0.0,0.0,0.0,0.0,0.0,0.0,0.0,0.0,0.0,0.0,0.0,0.0,0.0,0.0,0.0,0.0,0.0,0.0,0.0,0.0,0.0,0.0,0.0,0.0,0.0,0.0,0.0,0.0,0.0,0.0,0.0,0.0,0.0,0.0,0.0,0.0,0.0,-3.1404,-3.142,-3.0236,-2.9881,-3.0326,-3.0869,-3.0783,-3.0172,-3.0465,-3.036,-2.9946,-2.9754,0.0,0.0,0.0,0.0,-2.9911,-2.9737,-2.9643,-2.9604,-2.8914,-2.8427,-2.8094,-2.8094,-2.77,-2.7181,0.0,0.0,0.0,0.0,0.0,0.0,0.0,0.0,0.0,0.0,0.0,0.0,0.0,0.0,0.0,0.0,0.0,0.0,0.0,0.0,0.0,0.0,0.0,0.0,0.0,0.0,0.0,0.0,0.0,0.0,0.0,0.0,0.0,0.0,0.0,0.0,0.0,0.0,0.0,0.0,0.0,0.0,0.0,0.0,0.0,0.0,-2.8383,-2.8463,0.0,-2.8431,-2.8701,-2.9042,0.0,0.0,0.0,0.0,-3.1063,0.0,0.0,0.0,0.0,0.0,0.0,0.0,0.0,0.0,0.0,0.0,0.0,0.0,0.0,0.0,0.0,0.0,0.0,0.0,0.0,0.0,0.0,0.0,0.0,0.0,0.0,0.0,0.0,0.0,0.0,0.0,0.0,0.0,-3.0733,-3.0733,-2.969,-2.9259,-2.9576,-3.0019,-3.018,-3.0041,-3.0318,-3.0256,-2.9996,-2.9657,0.0,0.0,0.0,0.0,-2.9212,-2.894,-2.8771,-2.8538,-2.7775,-2.7166,-2.6753,-2.6753,-2.6332,-2.5795,0.0,0.0,0.0,0.0,0.0,0.0,0.0,0.0,0.0,0.0,0.0,0.0,0.0,0.0,0.0,0.0,0.0,0.0,0.0,0.0,0.0,0.0,0.0,0.0,0.0,0.0,0.0,0.0,0.0,0.0,0.0,0.0,0.0,0.0,0.0,0.0,0.0,0.0,0.0,0.0,0.0,0.0,0.0,0.0,0.0,0.0,0.0,0.0,0.0,-2.7905,-2.8204,-2.8479,-2.821,0.0,0.0,0.0,0.0,0.0,0.0,0.0,0.0,0.0,0.0,0.0,0.0,0.0,0.0,0.0,0.0,0.0,0.0,0.0,0.0,0.0,0.0,0.0,0.0,0.0,0.0,0.0,0.0,0.0,0.0,0.0,0.0,0.0,0.0,0.0,0.0,0.0,0.0,-3.0193,-2.936,-2.8889,-2.8826,-2.9092,-2.947,-2.9909,-2.9973,-2.9909,-2.9732,-2.9345,0.0,0.0,0.0,0.0,-2.8329,-2.8381,-2.7965,-2.7241,-2.6669,-2.5932,-2.5231,-2.5161,-2.4811,-2.4341,0.0,0.0,0.0,0.0,0.0,0.0,0.0,0.0,0.0,0.0,0.0,0.0,0.0,0.0,0.0,0.0,0.0,0.0,0.0,0.0,0.0,0.0,0.0,0.0,0.0,0.0,0.0,0.0,0.0,0.0,0.0,0.0,0.0,0.0,0.0,0.0,0.0,0.0,0.0,0.0,0.0,0.0,0.0,0.0,0.0,0.0,0.0,0.0,0.0,-2.7625,-2.771,-2.7866,-2.8505,0.0,0.0,0.0,0.0,0.0,0.0,0.0,0.0,0.0,0.0,0.0,0.0,0.0,0.0,0.0,0.0,0.0,0.0,0.0,0.0,0.0,0.0,0.0,0.0,0.0,0.0,0.0,0.0,0.0,0.0,0.0,0.0,0.0,0.0,0.0,0.0,0.0,0.0,-3.0161,-2.8893,-2.7959,-2.76,-2.8969,-2.9506,-2.9108,-2.95,-2.9138,-2.8129,-2.7925,-2.7284,0.0,0.0,-2.6275,-2.5772,-2.6018,-2.5923,-2.555,-2.5355,-2.4921,-2.4452,-2.4084,-2.35,-2.2822,0.0,0.0,0.0,0.0,0.0,0.0,0.0,0.0,0.0,0.0,0.0,0.0,0.0,0.0,0.0,0.0,0.0,0.0,0.0,0.0,0.0,0.0,0.0,0.0,0.0,0.0,0.0,0.0,0.0,0.0,0.0,0.0,0.0,0.0,0.0,0.0,0.0,0.0,0.0,0.0,0.0,0.0,0.0,0.0,0.0,0.0,0.0,0.0,0.0,0.0,-2.7625,-2.7745,-2.8471,0.0,0.0,0.0,0.0,0.0,-3.1541,-3.0782,0.0,0.0,0.0,0.0,0.0,0.0,0.0,0.0,0.0,0.0,0.0,0.0,0.0,0.0,0.0,0.0,0.0,0.0,0.0,0.0,0.0,0.0,0.0,0.0,0.0,0.0,0.0,0.0,0.0,0.0,0.0,0.0,-2.7365,-2.6938,-2.6715,-2.7832,-2.8426,-2.8468,-2.8388,-2.8228,-2.7932,-2.7285,-2.6569,-2.5769,0.0,-2.537,-2.5118,-2.516,-2.4978,-2.4637,-2.4079,-2.3657,-2.3255,-2.2225,-2.1471,-2.0778,0.0,0.0,0.0,0.0,0.0,0.0,0.0,0.0,0.0,0.0,0.0,0.0,0.0,0.0,0.0,0.0,0.0,0.0,0.0,0.0,0.0,0.0,0.0,0.0,0.0,0.0,0.0,0.0,0.0,0.0,0.0,0.0,0.0,0.0,0.0,0.0,0.0,0.0,0.0,0.0,0.0,0.0,0.0,0.0,0.0,0.0,0.0,0.0,0.0,0.0,0.0,0.0,0.0,0.0,0.0,0.0,0.0,-3.1697,-3.1687,-3.0794,0.0,0.0,0.0,0.0,0.0,0.0,0.0,0.0,0.0,0.0,0.0,0.0,0.0,0.0,0.0,0.0,0.0,0.0,0.0,0.0,0.0,0.0,0.0,0.0,0.0,0.0,0.0,0.0,0.0,0.0,0.0,0.0,-2.6204,-2.6026,-2.5849,-2.6383,-2.7004,-2.781,-2.7385,-2.7301,-2.7505,-2.6535,-2.5727,-2.5119,-2.4765,-2.4607,-2.4607,-2.4492,-2.4176,-2.3682,-2.2905,-2.2225,-2.1631,-2.0311,-1.9465,-1.8849,0.0,0.0,0.0,0.0,0.0,0.0,0.0,0.0,0.0,0.0,0.0,0.0,0.0,0.0,0.0,0.0,0.0,0.0,0.0,0.0,0.0,0.0,0.0,0.0,0.0,0.0,0.0,0.0,0.0,0.0,0.0,0.0,0.0,0.0,0.0,0.0,0.0,0.0,0.0,0.0,0.0,0.0,0.0,0.0,0.0,0.0,0.0,0.0,0.0,0.0,0.0,0.0,0.0,0.0,0.0,0.0,0.0,-3.139,-3.0746,-3.0143,0.0,0.0,0.0,0.0,0.0,0.0,0.0,0.0,0.0,0.0,0.0,0.0,0.0,0.0,0.0,0.0,0.0,0.0,0.0,0.0,0.0,0.0,0.0,0.0,0.0,0.0,0.0,0.0,0.0,0.0,0.0,0.0,0.0,-2.5494,-2.4797,-2.4865,-2.5588,-2.7015,-2.6903,-2.6483,-2.5772,-2.4991,-2.4332,-2.3734,-2.3569,-2.3522,-2.3509,-2.3318,-2.2871,-2.2224,-2.1992,-2.0894,-1.9357,-1.8623,-1.8037,-1.7442,0.0,0.0,0.0,0.0,0.0,0.0,0.0,0.0,0.0,0.0,0.0,0.0,0.0,0.0,0.0,0.0,0.0,0.0,0.0,0.0,0.0,0.0,0.0,0.0,0.0,0.0,0.0,0.0,0.0,0.0,0.0,0.0,0.0,0.0,0.0,0.0,0.0,0.0,0.0,0.0,0.0,0.0,0.0,0.0,0.0,0.0,0.0,0.0,0.0,0.0,0.0,0.0,0.0,0.0,0.0,0.0,0.0,-3.1422,-3.121,-3.0317,0.0,0.0,0.0,0.0,0.0,0.0,0.0,0.0,0.0,0.0,0.0,0.0,0.0,0.0,0.0,0.0,0.0,0.0,0.0,0.0,0.0,0.0,0.0,0.0,0.0,0.0,0.0,0.0,0.0,0.0,0.0,0.0,0.0,-2.4292,-2.3989,-2.3943,-2.4333,-2.521,-2.4873,-2.4734,-2.488,-2.3695,-2.3027,-2.2786,-2.2286,-2.2286,-2.2555,-2.1916,-2.1717,-2.1643,-2.0406,-1.8982,-1.7745,-1.7501,-1.689,-1.6202,0.0,0.0,0.0,0.0,0.0,0.0,0.0,0.0,0.0,0.0,0.0,0.0,0.0,0.0,0.0,0.0,0.0,0.0,0.0,0.0,0.0,0.0,0.0,0.0,0.0,0.0,0.0,0.0,0.0,0.0,0.0,0.0,0.0,0.0,0.0,0.0,0.0,0.0,0.0,0.0,0.0,0.0,0.0,0.0,0.0,0.0,0.0,0.0,0.0,0.0,0.0,0.0,0.0,0.0,0.0,0.0,0.0,0.0,-3.0981,-2.9776,0.0,0.0,0.0,0.0,0.0,0.0,0.0,0.0,0.0,0.0,0.0,0.0,0.0,0.0,0.0,0.0,0.0,0.0,0.0,0.0,0.0,0.0,0.0,0.0,0.0,0.0,0.0,0.0,0.0,0.0,0.0,0.0,0.0,0.0,-2.2992,-2.2944,-2.2936,-2.2995,-2.253,-2.2899,-2.3904,-2.2677,-2.1978,-2.1705,-2.1192,-2.1129,-2.1404,-2.0696,-2.0429,-2.0278,-1.8726,-1.7482,-1.6551,-1.6482,-1.5912,-1.5204,0.0,0.0,0.0,0.0,0.0,0.0,0.0,0.0,0.0,0.0,0.0,0.0,0.0,0.0,0.0,0.0,0.0,0.0,0.0,0.0,0.0,0.0,0.0,0.0,0.0,0.0,0.0,0.0,0.0,0.0,0.0,0.0,0.0,0.0,0.0,0.0,0.0,0.0,0.0,0.0,0.0,0.0,0.0,0.0,0.0,0.0,0.0,0.0,0.0,0.0,0.0,0.0,0.0,0.0,0.0,0.0,-2.9628,-2.9333,-2.9941,0.0,0.0,0.0,0.0,0.0,0.0,0.0,0.0,0.0,0.0,0.0,0.0,0.0,0.0,0.0,0.0,0.0,0.0,0.0,0.0,0.0,0.0,0.0,0.0,0.0,0.0,0.0,0.0,0.0,0.0,0.0,0.0,0.0,0.0,0.0,-2.1616,-2.1815,-2.1342,-2.0278,-2.0171,-2.1009,-2.2655,-2.1902,-2.1227,-2.059,-2.0193,-2.0052,-2.0052,-1.9661,-1.887,-1.7813,-1.7166,-1.6403,-1.5762,-1.5568,-1.5125,-1.453,0.0,0.0,0.0,0.0,0.0,0.0,0.0,0.0,0.0,0.0,0.0,0.0,0.0,0.0,0.0,0.0,0.0,0.0,0.0,0.0,0.0,0.0,0.0,0.0,0.0,0.0,0.0,0.0,0.0,0.0,0.0,0.0,0.0,0.0,0.0,0.0,0.0,0.0,0.0,0.0,0.0,0.0,0.0,0.0,0.0,0.0,0.0,0.0,0.0,0.0,0.0,0.0,0.0,0.0,0.0,0.0,-2.9191,-2.9016,-2.8824,0.0,0.0,0.0,0.0,0.0,0.0,0.0,0.0,0.0,0.0,0.0,0.0,0.0,0.0,0.0,0.0,0.0,0.0,0.0,0.0,0.0,0.0,0.0,0.0,0.0,0.0,0.0,0.0,0.0,0.0,0.0,0.0,0.0,0.0,0.0,-2.1616,-2.1037,-2.0579,-2.0171,-1.9987,-2.0313,-2.1016,-2.0053,-1.9596,-1.9399,-1.8546,-1.8499,-1.8957,-1.8546,-1.7668,-1.6515,-1.6053,-1.563,-1.5117,-1.4768,-1.441,-1.397,0.0,0.0,0.0,0.0,0.0,0.0,0.0,0.0,0.0,0.0,0.0,0.0,0.0,0.0,0.0,0.0,0.0,0.0,0.0,0.0,0.0,0.0,0.0,0.0,0.0,0.0,0.0,0.0,0.0,0.0,0.0,0.0,0.0,0.0,0.0,0.0,0.0,0.0,0.0,0.0,0.0,0.0,0.0,0.0,0.0,0.0,0.0,0.0,0.0,0.0,0.0,0.0,0.0,0.0,0.0,-2.7805,-2.7913,-2.7664,0.0,0.0,0.0,0.0,0.0,0.0,0.0,0.0,0.0,0.0,0.0,0.0,0.0,0.0,0.0,0.0,0.0,0.0,0.0,0.0,0.0,0.0,0.0,0.0,0.0,0.0,0.0,0.0,0.0,0.0,0.0,0.0,0.0,0.0,0.0,0.0,-2.0386,-1.9868,-1.9344,-1.8946,-1.8813,-1.8803,-1.8926,-1.868,-1.8489,-1.822,-1.7423,-1.7295,-1.7628,-1.7198,-1.6585,-1.5771,-1.5338,-1.4689,-1.3954,-1.3977,-1.3244,-1.2271,0.0,0.0,0.0,0.0,0.0,0.0,0.0,0.0,0.0,0.0,0.0,0.0,0.0,0.0,0.0,0.0,0.0,0.0,0.0,0.0,0.0,0.0,0.0,0.0,0.0,0.0,0.0,0.0,0.0,0.0,0.0,0.0,0.0,0.0,0.0,0.0,0.0,0.0,0.0,0.0,0.0,0.0,0.0,0.0,0.0,0.0,0.0,0.0,0.0,0.0,0.0,0.0,0.0,0.0,0.0,-2.6466,-2.6231,0.0,0.0,0.0,0.0,0.0,0.0,0.0,0.0,0.0,0.0,0.0,0.0,0.0,0.0,0.0,0.0,0.0,0.0,0.0,0.0,0.0,0.0,0.0,0.0,0.0,0.0,0.0,0.0,0.0,0.0,0.0,0.0,0.0,0.0,0.0,0.0,0.0,-1.8499,-1.8442,-1.7969,0.0,-1.7166,-1.7038,-1.6908,-1.7677,-1.7677,-1.7097,-1.6673,-1.6403,-1.6202,-1.5833,-1.5551,-1.5204,-1.4609,-1.3585,-1.2492,-1.3032,-1.1768,-0.997,0.0,0.0,0.0,0.0,0.0,0.0,0.0,0.0,0.0,0.0,0.0,0.0,0.0,0.0,0.0,0.0,0.0,0.0,0.0,0.0,0.0,0.0,0.0,0.0,0.0,0.0,0.0,0.0,0.0,0.0,0.0,0.0,0.0,0.0,0.0,0.0,0.0,0.0,0.0,0.0,0.0,0.0,0.0,0.0,0.0,0.0,0.0,0.0,0.0,0.0,0.0,0.0,-2.5385,-2.5643,-2.5788,-2.6371,-2.613,0.0,0.0,0.0,0.0,0.0,0.0,0.0,0.0,0.0,0.0,0.0,0.0,0.0,0.0,0.0,0.0,0.0,0.0,0.0,0.0,0.0,0.0,0.0,0.0,0.0,0.0,0.0,0.0,0.0,0.0,0.0,0.0,0.0,0.0,0.0,0.0,-1.8834,-1.8509,-1.7988,-1.7461,0.0,-1.6968,-1.676,-1.6412,-1.6811,-1.6742,-1.6342,-1.6044,-1.5762,-1.5417,-1.5188,-1.4314,-1.323,-1.3077,-1.2191,-1.0932,-1.0938,-1.049,-0.9895,0.0,0.0,0.0,0.0,0.0,0.0,0.0,0.0,0.0,0.0,0.0,0.0,0.0,0.0,0.0,0.0,0.0,0.0,0.0,0.0,0.0,0.0,0.0,0.0,0.0,0.0,0.0,0.0,0.0,0.0,0.0,0.0,0.0,0.0,0.0,0.0,0.0,0.0,0.0,0.0,0.0,0.0,0.0,0.0,0.0,0.0,0.0,0.0,0.0,0.0,0.0,0.0,0.0,0.0,-2.5649,-2.5963,0.0,0.0,0.0,0.0,0.0,0.0,0.0,0.0,0.0,0.0,0.0,0.0,0.0,0.0,0.0,0.0,0.0,0.0,0.0,0.0,0.0,0.0,0.0,0.0,0.0,0.0,0.0,0.0,0.0,0.0,0.0,0.0,0.0,0.0,0.0,0.0,-1.8479,-1.8027,-1.7619,-1.7166,-1.6839,-1.6621,-1.6621,-1.6193,-1.548,-1.6114,-1.6123,-1.563,-1.5559,-1.5037,-1.4155,-1.3875,-1.307,-1.1822,-1.1527,-1.0783,-0.982,-0.9895,-0.9286,-0.8456,0.0,0.0,0.0,0.0,0.0,0.0,0.0,0.0,0.0,0.0,0.0,0.0,0.0,0.0,0.0,0.0,0.0,0.0,0.0,0.0,0.0,0.0,0.0,0.0,0.0,0.0,0.0,0.0,0.0,0.0,0.0,0.0,0.0,0.0,0.0,0.0,0.0,0.0,0.0,0.0,0.0,0.0,0.0,0.0,0.0,0.0,0.0,0.0,0.0,-2.6131,0.0,0.0,0.0,0.0,-2.5682,0.0,0.0,0.0,0.0,0.0,0.0,0.0,0.0,0.0,0.0,0.0,0.0,0.0,0.0,0.0,0.0,0.0,0.0,0.0,0.0,0.0,0.0,0.0,0.0,0.0,0.0,0.0,0.0,0.0,0.0,0.0,0.0,0.0,0.0,0.0,-1.867,-1.7939,-1.7736,-1.7276,-1.6542,-1.6342,-1.6123,-1.5982,-1.5833,-1.5188,-1.4314,-1.5108,-1.5259,-1.4911,-1.4768,-1.4091,-1.2903,-1.2405,-1.1675,-1.0714,-1.019,-0.9448,-0.8694,-0.9069,-0.8156,-0.6942,0.0,0.0,0.0,0.0,0.0,0.0,0.0,0.0,0.0,0.0,0.0,0.0,0.0,0.0,0.0,0.0,0.0,0.0,0.0,0.0,0.0,0.0,0.0,0.0,0.0,0.0,0.0,0.0,0.0,0.0,0.0,0.0,0.0,0.0,0.0,0.0,0.0,0.0,0.0,0.0,0.0,0.0,0.0,0.0,0.0,0.0,0.0,0.0,0.0,0.0,0.0,0.0,0.0,0.0,0.0,0.0,0.0,0.0,0.0,0.0,0.0,0.0,0.0,0.0,0.0,0.0,0.0,0.0,0.0,0.0,0.0,0.0,0.0,0.0,0.0,0.0,0.0,0.0,0.0,0.0,0.0,0.0,0.0,0.0,0.0,0.0,0.0,0.0,0.0,-1.7148,-1.6941,-1.6802,-1.6612,-1.6473,-1.6342,-1.6053,-1.5542,-1.4824,-1.381,-1.3302,-1.3157,-1.283,-1.3055,-1.368,-1.3157,-1.2705,-1.2338,-1.123,-1.019,-0.9296,-0.9226,-0.847,-0.7411,-0.7484,-0.7176,-0.6637,0.0,0.0,0.0,0.0,0.0,0.0,0.0,0.0,0.0,0.0,0.0,0.0,0.0,0.0,0.0,0.0,0.0,0.0,0.0,0.0,0.0,0.0,0.0,0.0,0.0,0.0,0.0,0.0,0.0,0.0,0.0,-1.8985,-1.9235,0.0,0.0,0.0,0.0,0.0,0.0,0.0,0.0,0.0,0.0,0.0,0.0,0.0,0.0,0.0,0.0,0.0,0.0,0.0,0.0,0.0,0.0,0.0,0.0,0.0,0.0,0.0,0.0,0.0,0.0,0.0,0.0,0.0,0.0,0.0,0.0,0.0,0.0,0.0,0.0,0.0,0.0,0.0,0.0,0.0,0.0,0.0,0.0,0.0,0.0,0.0,0.0,0.0,0.0,0.0,-1.6751,-1.6603,-1.6533,-1.6403,-1.6061,-1.585,-1.585,-1.5046,-1.4336,-1.3778,-1.2811,-1.2454,-1.2459,-1.1837,-1.1898,-1.2492,-1.197,-1.123,-1.0415,-0.9895,-0.8993,-0.8016,-0.8016,-0.7633,-0.7022,-0.6872,-0.6718,-0.6563,0.0,0.0,0.0,0.0,0.0,0.0,0.0,0.0,0.0,0.0,0.0,0.0,0.0,0.0,0.0,0.0,0.0,0.0,0.0,0.0,0.0,0.0,0.0,0.0,0.0,0.0,0.0,0.0,0.0,0.0,-1.837,-1.8577,-1.8577,0.0,-1.9294,0.0,0.0,0.0,0.0,0.0,0.0,0.0,0.0,0.0,0.0,0.0,0.0,0.0,0.0,0.0,0.0,0.0,0.0,0.0,0.0,0.0,0.0,0.0,0.0,0.0,0.0,0.0,0.0,0.0,0.0,0.0,0.0,0.0,0.0,0.0,0.0,0.0,0.0,0.0,0.0,0.0,0.0,0.0,0.0,0.0,0.0,0.0,0.0,0.0,0.0,0.0,0.0,0.0,-1.6342,-1.6403,-1.6333,-1.6132,-1.5638,-1.5355,-1.5284,-1.3962,-1.3086,-1.2705,-1.1954,-1.1558,-1.149,-1.0939,-1.07,-1.0877,-1.0726,-0.9943,-0.8846,-0.8623,-0.8016,-0.7103,-0.7103,-0.7022,-0.6788,-0.6637,-0.6563,-0.6405,0.0,0.0,0.0,0.0,0.0,0.0,0.0,0.0,0.0,0.0,0.0,0.0,0.0,0.0,0.0,0.0,0.0,0.0,0.0,0.0,0.0,0.0,0.0,0.0,0.0,0.0,0.0,0.0,0.0,0.0,-1.8594,-1.8223,-1.8027,-1.8027,-1.8676,-1.9328,-1.9958,0.0,0.0,0.0,0.0,0.0,0.0,0.0,0.0,0.0,0.0,0.0,0.0,0.0,0.0,0.0,0.0,0.0,0.0,0.0,0.0,0.0,0.0,0.0,0.0,0.0,0.0,0.0,0.0,0.0,0.0,0.0,0.0,0.0,0.0,0.0,0.0,0.0,0.0,0.0,0.0,0.0,0.0,0.0,0.0,0.0,0.0,0.0,0.0,0.0,0.0,0.0,-1.6272,-1.6202,-1.5921,-1.5568,-1.5346,-1.5062,-1.4641,-1.3157,-1.2045,-1.1272,-1.0668,-1.0253,-0.9984,-0.9572,-0.9124,-0.8598,-0.9139,-0.9019,-0.838,-0.7633,-0.7176,-0.6942,-0.6942,-0.6791,-0.6641,-0.6641,-0.6328,-0.5941,0.0,0.0,0.0,0.0,0.0,0.0,0.0,0.0,0.0,0.0,0.0,0.0,0.0,0.0,0.0,0.0,0.0,0.0,0.0,0.0,0.0,0.0,0.0,0.0,0.0,0.0,0.0,0.0,0.0,-1.9316,-1.9053,-1.918,-1.9228,-1.9228,-1.9174,-1.9291,-1.9551,-2.0098,0.0,0.0,0.0,0.0,0.0,0.0,0.0,0.0,0.0,0.0,0.0,0.0,0.0,0.0,0.0,0.0,0.0,0.0,0.0,0.0,0.0,0.0,0.0,0.0,0.0,0.0,0.0,0.0,0.0,0.0,0.0,0.0,0.0,0.0,0.0,0.0,0.0,0.0,0.0,0.0,0.0,0.0,0.0,0.0,0.0,0.0,0.0,0.0,0.0,0.0,-1.6008,-1.5409,-1.5188,-1.5275,-1.4027,-1.3029,-1.2408,-1.1885,-1.1265,-1.0642,-1.0402,-1.0196,-0.9984,-0.9473,-0.911,-0.8752,-0.8504,-0.8099,-0.7633,-0.7334,-0.7026,-0.6714,-0.6714,-0.6563,-0.6412,-0.6251,-0.6018,-0.5864,0.0,0.0,0.0,0.0,0.0,0.0,0.0,0.0,0.0,0.0,0.0,0.0,0.0,0.0,0.0,0.0,0.0,0.0,0.0,0.0,0.0,0.0,0.0,0.0,0.0,0.0,0.0,0.0,0.0,0.0,0.0,0.0,-1.9707,-1.9697,-1.9561,0.0,0.0,0.0,0.0,-2.0566,0.0,0.0,-2.0537,0.0,0.0,0.0,0.0,0.0,0.0,0.0,0.0,0.0,0.0,0.0,0.0,0.0,0.0,0.0,0.0,0.0,0.0,0.0,0.0,0.0,0.0,0.0,0.0,0.0,0.0,0.0,0.0,0.0,0.0,0.0,0.0,0.0,0.0,0.0,0.0,0.0,0.0,0.0,0.0,0.0,0.0,0.0,0.0,0.0,-1.5346,-1.4752,-1.4441,-1.434,-1.2938,-1.1885,-1.1088,-1.1088,-1.0745,-1.0065,-1.0065,-0.9923,-0.9777,-0.9345,-0.8979,-0.8624,-0.8033,-0.7525,-0.7188,-0.7114,-0.6687,-0.6093,-0.6409,-0.6254,-0.5867,-0.5864,-0.5702,-0.5389,0.0,0.0,0.0,0.0,0.0,0.0,0.0,0.0,0.0,0.0,0.0,0.0,0.0,0.0,0.0,0.0,0.0,0.0,0.0,0.0,0.0,0.0,0.0,0.0,0.0,0.0,0.0,0.0,0.0,0.0,0.0,0.0,-1.9326,0.0,-1.9746,-2.0166,-2.0537,0.0,-2.0176,-2.0566,0.0,-2.042,-2.0478,0.0,0.0,0.0,-1.8624,-1.8399,0.0,0.0,0.0,0.0,0.0,0.0,0.0,0.0,0.0,0.0,0.0,0.0,0.0,0.0,0.0,0.0,0.0,0.0,0.0,0.0,0.0,0.0,0.0,0.0,0.0,0.0,0.0,0.0,0.0,0.0,0.0,0.0,0.0,0.0,0.0,0.0,0.0,0.0,0.0,-1.5346,-1.4307,-1.4243,-1.3741,-1.2546,-1.2197,-1.1636,-1.0783,-1.0794,-1.0346,-0.9569,-0.9569,-0.9505,-0.9262,-0.8999,-0.8554,-0.7874,-0.7695,-0.7424,-0.7042,-0.6882,-0.607,-0.5087,-0.587,-0.5709,-0.5004,-0.5628,-0.5154,-0.4295,0.0,0.0,0.0,0.0,0.0,0.0,0.0,0.0,0.0,0.0,0.0,0.0,0.0,0.0,0.0,0.0,0.0,0.0,0.0,0.0,0.0,0.0,0.0,0.0,0.0,0.0,0.0,0.0,0.0,0.0,0.0,0.0,0.0,0.0,-2.0332,-2.0449,-2.0557,-2.0439,0.0,0.0,-2.0566,-2.0489,0.0,0.0,0.0,0.0,0.0,-1.8413,0.0,0.0,-1.8625,-1.8938,0.0,0.0,0.0,0.0,0.0,0.0,-2.0401,0.0,0.0,0.0,0.0,0.0,0.0,0.0,0.0,0.0,0.0,0.0,0.0,0.0,0.0,0.0,0.0,0.0,0.0,0.0,0.0,0.0,0.0,0.0,0.0,0.0,0.0,0.0,-1.4974,-1.4466,-1.3882,-1.3372,-1.2155,-1.0242,-1.0813,-1.0712,-0.973,-0.9893,-0.9747,-0.9352,-0.9178,-0.8856,-0.8464,-0.8292,-0.8093,-0.7872,-0.7614,-0.6997,-0.6131,-0.5947,-0.5565,-0.5047,-0.4484,-0.4064,-0.3828,-0.3675,-0.3519,-0.3207,0.0,0.0,0.0,0.0,0.0,0.0,0.0,0.0,0.0,0.0,0.0,0.0,0.0,0.0,0.0,0.0,0.0,0.0,0.0,0.0,0.0,0.0,0.0,0.0,0.0,0.0,0.0,0.0,0.0,0.0,0.0,0.0,0.0,0.0,0.0,0.0,0.0,0.0,0.0,0.0,-2.0062,0.0,0.0,-1.964,-1.9307,0.0,0.0,0.0,-1.7971,-1.8068,-1.8386,0.0,-1.9023,0.0,0.0,0.0,0.0,0.0,0.0,0.0,0.0,0.0,0.0,0.0,0.0,-1.9143,0.0,0.0,0.0,0.0,0.0,0.0,0.0,0.0,0.0,0.0,0.0,0.0,0.0,0.0,0.0,0.0,0.0,0.0,0.0,0.0,-1.4314,-1.3665,-1.2799,-1.1771,-1.0682,-0.96,-0.9922,-0.9901,-0.9335,-0.9459,-0.932,-0.8999,-0.8828,-0.856,-0.8201,-0.8028,-0.7856,-0.768,-0.7411,-0.6695,-0.5755,-0.516,-0.4632,-0.3991,-0.3614,-0.3205,-0.2895,-0.2818,-0.2584,-0.2271,0.0,0.0,0.0,0.0,0.0,0.0,0.0,0.0,0.0,0.0,0.0,0.0,0.0,0.0,0.0,0.0,0.0,0.0,0.0,0.0,0.0,-2.0635,-2.0596,-2.0566,0.0,0.0,0.0,0.0,0.0,0.0,0.0,0.0,0.0,0.0,0.0,0.0,0.0,0.0,0.0,-2.0157,-1.938,-1.9378,0.0,0.0,-1.8817,0.0,-1.8611,-1.8137,-1.7849,-1.8027,-1.8359,-1.8796,-1.8709,-1.8976,0.0,0.0,-1.945,0.0,0.0,0.0,0.0,0.0,0.0,0.0,-1.8098,-1.7831,-1.7682,0.0,0.0,0.0,0.0,0.0,0.0,0.0,0.0,0.0,0.0,0.0,0.0,0.0,0.0,0.0,0.0,0.0,-1.4832,-1.4235,-1.3665,-1.2732,-1.1303,-1.0057,-0.9501,-0.973,-0.9456,-0.9228,-0.9222,-0.9248,-0.8999,-0.8568,-0.8568,-0.8384,-0.8201,-0.794,-0.7591,-0.7326,-0.7054,-0.6331,-0.5328,-0.435,-0.3442,-0.2608,-0.2979,-0.266,-0.2038,-0.2349,-0.2036,-0.1411,0.0,0.0,0.0,0.0,0.0,0.0,0.0,0.0,0.0,0.0,0.0,0.0,0.0,0.0,0.0,0.0,0.0,0.0,0.0,0.0,-2.1103,-2.1103,-2.0762,-2.0566,-2.0566,0.0,0.0,0.0,0.0,0.0,0.0,0.0,0.0,0.0,0.0,0.0,0.0,0.0,0.0,-1.9715,-1.97,0.0,-1.9627,-1.9459,-1.9167,-1.8782,-1.8699,-1.8414,-1.7963,0.0,-1.7669,-1.7861,0.0,0.0,0.0,0.0,0.0,0.0,0.0,0.0,0.0,0.0,0.0,0.0,-1.8524,-1.8145,-1.7724,0.0,0.0,0.0,0.0,0.0,0.0,0.0,0.0,0.0,0.0,0.0,0.0,0.0,0.0,0.0,0.0,0.0,-1.4171,-1.3448,-1.2131,-1.097,-1.0031,-0.9836,-0.9494,-0.8841,-0.915,-0.9022,-0.8516,-0.8665,-0.8652,-0.8568,-0.8208,-0.8032,-0.794,-0.7496,-0.6786,-0.6077,-0.5985,-0.4958,-0.3309,-0.2968,-0.2755,-0.2642,-0.1591,-0.102,-0.0864,-0.0628,-0.0471,-0.0314,0.0,0.0,0.0,0.0,0.0,0.0,0.0,0.0,0.0,0.0,0.0,0.0,0.0,0.0,0.0,0.0,0.0,0.0,0.0,0.0,-2.1328,-2.1553,-2.1257,-2.106,-2.106,-2.0828,0.0,0.0,0.0,0.0,0.0,0.0,0.0,0.0,0.0,0.0,0.0,0.0,-1.9743,-1.945,-1.9325,0.0,-1.945,-1.9247,-1.9095,-1.9008,-1.9008,-1.8751,-1.8385,-1.8174,-1.7794,0.0,0.0,-1.7761,-1.7361,0.0,-1.754,-1.7678,0.0,0.0,0.0,-1.7882,0.0,0.0,0.0,-1.6707,-1.6395,0.0,0.0,0.0,0.0,0.0,0.0,0.0,0.0,0.0,0.0,0.0,0.0,0.0,0.0,0.0,0.0,0.0,-1.3295,-1.2057,-1.0848,-1.0012,-0.9483,-0.9322,-0.9087,-0.8595,-0.8709,-0.8685,-0.843,-0.8428,-0.8384,-0.8384,-0.8032,-0.7856,-0.768,-0.7411,-0.6966,-0.634,-0.5805,-0.468,-0.329,-0.2624,-0.2085,-0.1648,-0.0796,-0.0471,-0.0393,-0.0079,0.0,0.0,0.0,0.0,0.0,0.0,0.0,0.0,0.0,0.0,0.0,0.0,0.0,0.0,0.0,0.0,0.0,0.0,0.0,0.0,0.0,0.0,0.0,0.0,-2.1675,-2.146,-2.146,-2.121,-2.0957,0.0,0.0,0.0,0.0,0.0,0.0,0.0,0.0,0.0,0.0,0.0,0.0,-1.9283,0.0,-1.9091,-1.9265,-1.8944,-1.9026,-1.9301,-1.9301,-1.8888,-1.8398,-1.8629,0.0,-1.7094,-1.7695,-1.7202,0.0,0.0,0.0,0.0,0.0,0.0,0.0,0.0,0.0,-1.6771,0.0,0.0,0.0,0.0,0.0,0.0,0.0,0.0,0.0,0.0,0.0,0.0,0.0,0.0,0.0,0.0,0.0,0.0,0.0,0.0,-1.2216,-1.0738,-1.0046,-0.9473,-0.915,-0.8864,-0.8665,-0.8621,-0.8437,-0.8414,-0.856,-0.8292,-0.8201,-0.8113,-0.794,-0.768,-0.7507,-0.7415,-0.7143,-0.6514,-0.5534,-0.4425,-0.3309,-0.2216,-0.1335,-0.0654,-0.0397,-0.0314,-0.0314,-0.0079,0.0,0.0,0.0,0.0,0.0,0.0,0.0,0.0,0.0,0.0,0.0,0.0,0.0,0.0,0.0,0.0,0.0,0.0,0.0,0.0,-2.213,0.0,0.0,0.0,0.0,0.0,-2.122,-2.0941,-2.082,0.0,0.0,0.0,0.0,0.0,0.0,0.0,-2.0383,0.0,0.0,0.0,-2.0008,0.0,-1.9659,-1.9595,0.0,-1.9256,-1.9265,-1.9301,-1.9301,-1.8399,-1.7441,0.0,-1.7227,-1.5707,0.0,-1.6501,0.0,0.0,0.0,0.0,0.0,0.0,0.0,0.0,-1.5545,0.0,0.0,0.0,0.0,0.0,0.0,0.0,0.0,0.0,0.0,0.0,0.0,0.0,0.0,0.0,0.0,0.0,0.0,0.0,0.0,0.0,0.0,-0.9922,-0.9822,-0.9533,-0.8693,-0.8809,-0.8751,-0.8586,-0.8615,-0.8452,-0.8288,-0.8201,-0.8113,-0.794,-0.768,-0.7507,-0.7507,-0.7234,-0.6248,-0.4556,-0.4196,-0.3035,-0.1338,-0.0787,-0.0513,-0.0418,-0.032,-0.0314,-0.0314,-0.0079,0.0,0.0,0.0,0.0,0.0,0.0,0.0,0.0,0.0,0.0,0.0,0.0,0.0,0.0,0.0,0.0,0.0,0.0,0.0,-2.1741,0.0,0.0,0.0,0.0,0.0,0.0,0.0,-2.1488,-2.1185,-2.0937,-2.086,0.0,0.0,0.0,0.0,0.0,-2.0283,0.0,-1.9943,0.0,0.0,0.0,0.0,0.0,0.0,-1.9393,-1.9301,-1.9301,-1.9152,-1.8717,-1.8215,0.0,-1.7202,0.0,0.0,0.0,0.0,0.0,0.0,0.0,0.0,0.0,0.0,0.0,0.0,0.0,0.0,0.0,-1.3596,0.0,0.0,0.0,0.0,0.0,0.0,0.0,0.0,0.0,0.0,0.0,0.0,0.0,0.0,0.0,0.0,0.0,0.0,0.0,0.0,-0.9123,-0.86,-0.8717,-0.8521,-0.8237,-0.8333,-0.8292,-0.8028,-0.7852,-0.7768,-0.768,-0.7411,-0.7234,-0.7234,-0.6609,-0.5805,-0.4823,-0.3486,-0.231,-0.1406,-0.0524,-0.0171,-0.0165,-0.0162,-0.0159,-0.0079,0.0,0.0,0.0,0.0,0.0,0.0,0.0,0.0,0.0,0.0,0.0,0.0,0.0,0.0,0.0,-2.2505,-2.2456,0.0,0.0,0.0,-2.1438,0.0,0.0,-2.141,0.0,0.0,0.0,0.0,-2.171,-2.1475,-2.1282,0.0,0.0,0.0,0.0,0.0,0.0,0.0,-2.0191,-2.009,0.0,0.0,-1.9688,-1.9798,-1.9698,-1.957,-1.9341,-1.9301,-1.9231,-1.9082,-1.8754,-1.8388,-1.7986,-1.6913,0.0,-1.5319,0.0,0.0,0.0,0.0,0.0,-1.3222,0.0,0.0,0.0,0.0,0.0,0.0,0.0,0.0,0.0,0.0,0.0,0.0,0.0,0.0,0.0,0.0,0.0,0.0,0.0,0.0,0.0,0.0,0.0,0.0,0.0,0.0,0.0,-0.9269,0.0,-0.8521,-0.848,-0.8325,-0.8025,-0.8051,-0.8028,-0.7768,-0.7595,-0.7507,-0.7415,-0.7231,-0.6962,-0.6605,-0.5897,-0.5181,-0.4378,-0.2773,-0.1775,-0.1313,-0.0351,0.0,0.0,0.0,0.0,0.0,0.0,0.0,0.0,-2.1807,-2.1816,0.0,0.0,0.0,0.0,0.0,0.0,0.0,0.0,0.0,0.0,0.0,0.0,0.0,0.0,0.0,-2.1618,-2.1481,0.0,-2.2059,0.0,0.0,-2.1571,0.0,0.0,-2.1319,-2.1713,-2.1713,0.0,0.0,0.0,0.0,0.0,0.0,-2.086,-2.0493,-2.0493,-1.9889,-1.9047,-1.9426,-1.9282,-1.8789,0.0,-1.9152,-1.9002,-1.9002,0.0,0.0,-1.7375,-1.6131,0.0,0.0,0.0,0.0,0.0,0.0,0.0,0.0,0.0,0.0,-1.2693,0.0,0.0,0.0,0.0,-1.2443,0.0,0.0,0.0,0.0,0.0,0.0,0.0,0.0,0.0,0.0,0.0,0.0,0.0,0.0,0.0,0.0,0.0,0.0,-0.9034,-0.9221,-0.8992,-0.8373,-0.8281,-0.8197,-0.8193,-0.8025,-0.7768,-0.7507,-0.7507,-0.7415,-0.7139,-0.7139,-0.6517,-0.5447,-0.5447,-0.42,-0.2149,-0.197,-0.1253,-0.0448,-0.009,0.0,0.0,0.0,0.0,0.0,0.0,0.0,0.0,0.0,0.0,0.0,0.0,0.0,0.0,0.0,-2.2882,0.0,0.0,0.0,0.0,0.0,0.0,-2.2242,0.0,0.0,-2.1557,-2.1222,-2.1084,0.0,0.0,0.0,-2.1259,0.0,0.0,-2.1172,-2.1319,-2.1319,0.0,0.0,0.0,0.0,0.0,0.0,-2.0565,0.0,0.0,0.0,0.0,0.0,-1.9119,-1.87,0.0,0.0,-1.8772,-1.8683,-1.7942,0.0,-1.6296,-1.5304,-1.4307,-1.3626,-1.3215,-1.3052,-1.2875,-1.279,0.0,0.0,0.0,-1.2534,-1.2705,0.0,0.0,0.0,0.0,0.0,0.0,0.0,0.0,0.0,0.0,0.0,0.0,0.0,0.0,0.0,0.0,0.0,0.0,0.0,0.0,0.0,0.0,0.0,-0.9247,-0.8965,-0.8619,0.0,-0.8169,-0.8025,-0.7768,-0.768,-0.7503,-0.7231,-0.6608,-0.6256,-0.6163,-0.5457,-0.502,-0.4645,-0.3844,-0.2953,-0.2059,-0.1254,-0.0628,-0.009,0.0,0.0,0.0,0.0,0.0,0.0,0.0158,0.0236,0.0236,-2.3164,0.0,0.0,0.0,0.0,0.0,0.0,0.0,0.0,0.0,-2.2976,0.0,-2.2907,0.0,-2.2704,0.0,-2.1814,-2.1621,-2.1346,-2.1089,0.0,-2.1713,-2.1328,0.0,0.0,0.0,-2.1181,-2.1328,0.0,-2.1475,0.0,0.0,0.0,0.0,0.0,0.0,0.0,0.0,-1.9066,0.0,0.0,-1.8749,0.0,0.0,-1.8734,-1.8716,0.0,-1.7865,-1.698,-1.5898,-1.4979,-1.4075,-1.3163,-1.2875,-1.2875,-1.279,-1.2705,-1.2705,-1.2619,-1.2534,0.0,-1.2454,-1.2203,0.0,-1.2203,0.0,0.0,0.0,0.0,0.0,0.0,0.0,0.0,0.0,0.0,0.0,0.0,0.0,0.0,0.0,0.0,0.0,0.0,0.0,-0.8732,-0.8999,-0.8648,-0.8384,0.0,0.0,-0.7763,-0.7421,-0.7014,-0.6724,-0.6544,-0.564,-0.5142,-0.5124,-0.4476,-0.3879,-0.3486,-0.2594,-0.1881,-0.1345,-0.0538,-0.0179,0.0,0.0,0.0,0.0,0.0,0.0,0.0,0.0158,0.0236,0.0314,0.0,0.0,0.0,0.0,-2.2558,0.0,0.0,0.0,-2.2602,0.0,-2.2975,-2.2879,-2.3168,-2.2658,-2.2327,-2.2327,-2.197,0.0,-2.1741,-2.1741,0.0,0.0,-2.1355,-2.1319,-2.1695,0.0,0.0,0.0,0.0,0.0,0.0,0.0,0.0,0.0,-2.0924,0.0,-2.0706,-1.957,-1.8966,-1.8854,-1.8318,-1.8305,-1.8614,-1.8631,0.0,-1.888,-1.8536,-1.7969,-1.717,-1.6111,-1.4965,-1.3946,-1.3299,-1.2928,-1.2711,-1.2735,-1.2723,-1.2625,-1.2466,-1.2375,-1.2283,-1.2037,0.0,0.0,0.0,0.0,-1.1699,0.0,0.0,0.0,0.0,0.0,0.0,0.0,0.0,0.0,0.0,0.0,0.0,0.0,0.0,0.0,0.0,-0.7757,-0.7757,-0.8476,-0.8292,-0.8113,0.0,0.0,0.0,-0.7179,-0.6108,-0.5452,-0.5441,-0.454,-0.4159,-0.4072,-0.3896,-0.3133,-0.2062,-0.1791,-0.1076,0.0,0.0,0.0,0.0,0.0,0.0,0.0,0.0,0.0,0.0,0.0,0.0157,0.0393,-2.3868,-2.3275,-2.2806,0.0,-2.2986,-2.2971,0.0,0.0,0.0,0.0,-2.2695,-2.2806,-2.2603,-2.2392,-2.2327,-2.2327,-2.197,0.0,0.0,0.0,0.0,-2.1741,-2.163,-2.1475,-2.1273,-2.1163,0.0,-2.1273,0.0,0.0,-2.1741,0.0,0.0,0.0,0.0,0.0,-2.0595,-2.0291,-1.9709,-1.9101,-1.8922,-1.8939,0.0,0.0,-1.9615,-1.9823,-1.8869,-1.8171,-1.7439,-1.601,-1.5029,-1.4309,-1.3361,-1.2928,-1.2783,-1.3188,-1.2931,-1.2496,-1.2703,-1.2267,-1.1866,-1.1952,-1.178,-1.1527,0.0,0.0,0.0,0.0,0.0,0.0,0.0,0.0,0.0,0.0,0.0,0.0,0.0,0.0,0.0,0.0,0.0,0.0,-0.6782,-0.7224,-0.7489,-0.7496,-0.7312,-0.7316,0.0,0.0,0.0,-0.6147,-0.5771,-0.5282,-0.4529,-0.3658,-0.3106,-0.2931,-0.2177,-0.1559,-0.1009,-0.0813,-0.0628,-0.0269,-0.0088,0.0,0.0,0.0,0.0,0.0,0.0165,0.0324,0.0475,0.0472,0.0707,0.1021,-2.4212,0.0,0.0,-2.3038,0.0,0.0,-2.2358,0.0,0.0,-2.2674,-2.2769,0.0,-2.2868,-2.2382,-2.2135,-2.2309,-2.1796,0.0,0.0,0.0,0.0,-2.1741,-2.1741,-2.1621,-2.1383,-2.1295,0.0,-2.164,0.0,0.0,-2.1988,0.0,0.0,0.0,0.0,-2.1085,0.0,-2.0334,-1.9783,-1.9187,-1.9358,0.0,0.0,-2.0095,-2.0463,-2.0559,-1.9226,-1.8218,-1.7423,-1.5991,-1.4851,-1.4015,-1.3609,-1.3189,-1.2939,-1.3243,-1.2856,-1.24,-1.2463,-1.2057,-1.1699,-1.1699,-1.1521,-1.1354,-1.1527,-1.144,-1.1262,0.0,0.0,0.0,0.0,0.0,0.0,0.0,0.0,0.0,0.0,0.0,0.0,0.0,0.0,0.0,-0.4828,-0.616,-0.6782,-0.6245,-0.6419,-0.6511,0.0,0.0,0.0,-0.5026,-0.4601,-0.404,-0.3524,-0.2693,-0.221,-0.2034,-0.1265,-0.0821,-0.0729,-0.0357,-0.0266,-0.0177,-0.0087,0.0,0.0,0.0,0.0,0.0,0.0161,0.04,0.0638,0.0638,0.0793,0.1021,0.0,0.0,0.0,0.0,0.0,0.0,0.0,-2.2511,0.0,-2.3084,0.0,-2.2884,-2.3272,-2.2373,-2.1878,-2.2217,0.0,-2.142,-2.1796,-2.1869,-2.1896,-2.1896,-2.1841,-2.1814,-2.1724,-2.1509,0.0,0.0,0.0,0.0,0.0,0.0,0.0,0.0,0.0,0.0,0.0,-2.0205,-1.9701,0.0,-1.9812,-2.0155,-2.048,-2.0823,-2.1139,-2.1128,-1.9341,-1.8373,-1.7609,-1.6028,-1.4763,-1.3829,-1.3845,-1.3534,-1.3065,-1.3135,-1.2773,-1.2371,-1.2098,-1.1839,-1.1651,-1.1359,-1.1262,-1.1262,-1.1262,-1.1262,-1.1262,-1.1262,-1.1202,-1.1121,0.0,0.0,0.0,0.0,0.0,0.0,0.0,0.0,0.0,0.0,0.0,0.0,0.0,-0.4828,-0.5714,-0.491,-0.5528,0.0,0.0,0.0,0.0,0.0,-0.3074,0.0,-0.2435,0.0,-0.1312,-0.1309,-0.0894,-0.0633,-0.0632,-0.0177,0.0,0.0,0.0,0.0,0.0,0.0,0.0,0.0079,0.0079,0.0398,0.081,0.081,0.0799,0.0864,0.0,0.0,0.0,0.0,0.0,-2.2786,-2.23,-2.2346,-2.2318,-2.1997,-2.2236,-2.2337,-2.208,-2.1869,-2.1768,-2.1832,-2.2006,0.0,0.0,0.0,0.0,-2.2647,-2.241,-2.2135,-2.1961,-2.1563,-2.1491,0.0,-2.1491,-2.159,0.0,0.0,0.0,0.0,0.0,0.0,-2.1235,-2.0896,0.0,-2.0609,-2.0968,-2.1156,-2.1225,-2.1293,-2.1353,-2.11,-1.9113,-1.8783,-1.8912,-1.5964,-1.5153,-1.5149,-1.3948,-1.335,-1.3135,-1.3377,-1.2983,-1.2348,-1.2348,-1.1991,-1.1684,-1.1397,-1.1262,-1.1262,-1.1262,-1.1262,-1.1176,-1.0814,-1.088,-1.0868,-1.0241,0.0,0.0,0.0,0.0,0.0,0.0,0.0,0.0,0.0,0.0,0.0,0.0,0.0,0.0,0.0,0.0,0.0,0.0,0.0,0.0,0.0,0.0,0.0,0.0,0.0,0.0,-0.0803,-0.0556,-0.0377,-0.0094,0.0,0.0,0.0,0.0,0.0,0.0,0.0,0.0164,0.0471,0.0471,0.0787,0.1186,0.1186,0.1576,0.2046,0.0,0.0,0.0,0.0,0.0,0.0,0.0,-2.2291,0.0,-2.2043,-2.2208,-2.2337,-2.2272,-2.1988,-2.1906,-2.2327,-2.2346,-2.2419,-2.2639,-2.2747,-2.2857,-2.2857,-2.2371,0.0,-2.1978,-2.1409,-2.121,-2.16,-2.121,-2.1309,0.0,0.0,0.0,0.0,0.0,-2.1238,0.0,0.0,0.0,-2.1165,-2.1345,-2.1109,-2.0636,-2.0834,-2.0784,-2.0297,-1.8079,-1.8032,-1.8536,-1.5675,-1.4772,-1.4657,-1.3963,-1.346,-1.3125,-1.3273,-1.2892,-1.2423,-1.2423,-1.2156,-1.1822,-1.1591,-1.1532,-1.1499,-1.1294,-1.1084,-1.0901,-1.0636,-1.0552,-1.0245,-0.9529,-0.8329,0.0,0.0,0.0,0.0,0.0,0.0,0.0,0.0,0.0,0.0,0.0,0.0,0.0,0.0,0.0,0.0,0.0,0.0,0.0,0.0,0.0,0.0,0.0,0.0,0.0,-0.0741,-0.0462,-0.0372,-0.0188,-0.0091,0.0,0.0,0.0,0.0,0.0,0.0,0.0084,0.0249,0.0328,0.0571,0.106,0.1465,0.2047,0.2561,0.0,-2.6048,0.0,0.0,-2.3767,0.0,-2.2857,-2.2263,-2.1851,-2.2162,-2.2199,-2.2364,-2.2777,-2.2327,-2.2254,-2.2802,-2.2804,-2.2813,-2.2966,-2.3162,-2.3112,-2.3112,-2.2532,-2.2231,-2.2137,-2.1204,-2.1094,0.0,-2.1016,-2.0981,0.0,0.0,0.0,0.0,0.0,0.0,0.0,0.0,-2.1114,-2.1302,-2.1379,-2.0812,-1.9949,-2.0165,-1.9971,-1.9186,-1.7029,-1.6884,-1.7337,-1.5275,-1.4332,-1.4002,-1.3756,-1.3443,-1.305,-1.305,-1.2726,-1.2479,-1.2431,-1.2274,-1.207,-1.1833,-1.1774,-1.1725,-1.1542,-1.1138,-1.068,-1.0542,-0.9975,-0.9349,-0.8769,-0.7368,0.0,0.0,0.0,0.0,0.0,0.0,0.0,0.0,0.0,0.0,0.0,0.0,0.0,0.0,0.0,0.0,-0.1435,-0.1352,0.0,0.0,0.0,-0.1003,-0.1024,0.0,-0.064,0.0,-0.0457,-0.0272,-0.0277,-0.009,0.0,0.0,0.0,0.0,0.0,0.0,0.0085,0.0173,0.017,0.0589,0.1261,0.1846,0.2629,0.3343,0.0,0.0,0.0,0.0,0.0,0.0,0.0,-2.2263,-2.175,-2.1786,-2.1796,-2.1942,-2.2337,-2.2657,-2.2774,-2.2857,-2.3584,-2.384,-2.351,-2.3831,-2.3943,-2.3737,-2.325,-2.2752,-2.2372,-2.156,-2.1449,0.0,0.0,-2.1029,-2.1726,0.0,0.0,0.0,0.0,0.0,0.0,-2.1225,-2.1191,-2.096,-2.1276,-2.0812,-1.9894,-1.963,-1.8923,-1.789,-1.6422,-1.5757,-1.5484,-1.4352,-1.4107,-1.4138,-1.3413,-1.3147,-1.305,-1.2856,-1.2845,-1.2684,-1.2474,-1.2398,-1.2323,-1.2075,-1.2016,-1.2102,-1.1989,-1.1613,-1.1096,-1.0442,-0.892,-0.7797,-0.7862,-0.6621,-0.5691,0.0,0.0,0.0,0.0,0.0,0.0,0.0,0.0,0.0,0.0,0.0,0.0,0.0,0.0,-0.1524,-0.1436,-0.1187,-0.1107,-0.1107,0.0,-0.0745,-0.076,-0.0549,0.0,-0.0464,-0.0182,0.0,0.0,0.0,0.0,0.0,0.0,0.0,0.0,0.0,0.0258,0.0676,0.0674,0.143,0.2603,0.2685,0.3777,0.5301,0.0,0.0,0.0,0.0,0.0,0.0,0.0,-2.2263,-2.1823,-2.2061,-2.1878,-2.1887,-2.2282,-2.2703,-2.2957,-2.329,-2.3822,-2.4079,-2.3923,-2.3962,-2.3945,-2.3755,-2.3082,-2.2461,-2.204,-2.1536,-2.1217,0.0,0.0,-2.119,-2.1276,-2.0974,0.0,0.0,0.0,-2.0883,-2.0891,-2.1028,-2.0838,-2.0309,-2.0243,-1.9239,-1.7768,-1.7645,-1.7191,-1.6531,-1.5274,-1.5134,-1.5216,-1.401,-1.3608,-1.347,-1.318,-1.305,-1.2861,-1.2861,-1.2764,-1.2743,-1.2651,-1.2624,-1.2565,-1.2328,-1.2269,-1.2133,-1.1707,-1.1216,-1.0731,-1.0095,-0.8741,-0.7534,-0.7055,-0.6182,-0.5474,0.0,0.0,0.0,0.0,0.0,0.0,0.0,0.0,0.0,0.0,0.0,0.0,0.0,0.0,-0.1188,-0.1005,-0.0932,-0.0843,-0.0833,0.0,-0.0557,-0.0562,-0.0276,-0.0185,-0.0188,-0.0093,0.0,0.0,0.0,0.0,0.0,0.0,0.0,0.0,0.0,0.0091,0.0272,0.0265,0.1128,0.2482,0.2995,0.4187,0.5729,-2.6275,0.0,-2.4811,0.0,-2.3244,-2.2612,-2.2811,-2.2263,-2.1841,-2.2116,-2.2006,-2.2016,-2.2291,-2.2703,-2.3021,-2.3308,-2.3815,-2.4053,-2.3954,-2.3755,-2.3655,-2.3555,-2.2892,0.0,-2.2039,-2.1733,-2.1379,-2.0951,-2.1259,0.0,-2.1208,0.0,0.0,0.0,-2.0968,-2.1037,-2.1028,-2.0925,-2.0379,-1.9606,-1.9376,-1.8015,-1.6119,-1.6213,-1.5776,-1.5045,-1.4298,-1.4382,-1.4561,-1.3721,-1.3244,-1.305,-1.305,-1.2953,-1.2764,-1.2764,-1.2764,-1.2764,-1.2764,-1.2764,-1.2721,-1.2554,-1.2421,-1.2183,-1.1635,-1.1036,-1.0265,-0.9456,-0.818,-0.6923,-0.6242,-0.5634,-0.5099,-0.447,0.0,0.0,0.0,0.0,0.0,0.0,0.0,-0.1536,0.0,0.0,0.0,0.0,0.0,0.0,-0.0747,-0.0662,0.0,0.0,0.0,0.0,0.0,-0.0092,0.0,0.0,0.0,0.0,0.0,0.0,0.0,0.0,0.0,0.0,0.0,0.0,0.0094,0.0188,0.0182,0.1244,0.2798,0.3409,0.4718,0.6207,-2.4858,-2.4776,-2.4638,-2.4225,-2.3483,-2.2857,-2.2857,-2.2263,-2.1741,-2.1741,-2.208,-2.2318,-2.2327,-2.2703,-2.2926,-2.3114,-2.352,-2.3646,-2.3456,-2.3456,-2.3247,0.0,0.0,-2.2837,-2.2636,-2.2175,-2.2158,-2.2619,0.0,0.0,-2.197,0.0,-2.161,-2.1961,-2.1576,-2.1405,-2.1379,-2.1028,-2.0087,-1.8835,-1.9075,-1.7669,-1.5445,-1.5745,-1.4814,-1.3539,-1.3539,-1.3346,-1.3147,-1.3147,-1.2953,-1.2764,-1.2764,-1.2764,-1.2764,-1.2764,-1.2764,-1.2764,-1.2764,-1.2764,-1.2764,-1.2759,-1.237,-1.1975,-1.197,-1.1189,-0.9955,-0.8512,-0.6825,-0.5568,-0.5547,-0.4892,-0.428,-0.3889,0.0,0.0,0.0,0.0,0.0,0.0,-0.1571,-0.1559,-0.1529,0.0,0.0,0.0,0.0,0.0,0.0,0.0,0.0,-0.0381,-0.0187,0.0,0.0,0.0,0.0,0.0,0.0,0.0,0.0,0.0,0.0,0.0,0.0,0.0,0.0,0.0,0.0283,0.0647,0.0724,0.2148,0.4287,0.4287,0.5445,0.7071,-2.4381,-2.4134,-2.3895,-2.3758,-2.3308,-2.2948,-2.3318,-2.2667,-2.2245,-2.2437,-2.219,-2.1924,-2.1924,-2.259,-2.3015,0.0,-2.3323,-2.3447,0.0,-2.3247,-2.3046,-2.3046,-2.2846,-2.2533,-2.2175,-2.2304,-2.2175,-2.1773,0.0,0.0,0.0,-2.1867,-2.173,-2.1585,-2.0685,-2.0199,-1.9971,-1.9075,-1.7968,-1.6741,-1.6644,-1.5681,-1.44,-1.4298,-1.3893,-1.3539,-1.3539,-1.3346,-1.3147,-1.3147,-1.2953,-1.2764,-1.2764,-1.2764,-1.2764,-1.2764,-1.2764,-1.2764,-1.2764,-1.2764,-1.2662,-1.237,-1.2175,-1.1785,-1.1096,-0.9916,-0.8879,-0.8322,-0.69,-0.5782,-0.5573,-0.471,-0.3985,-0.3871,-0.3108,0.0,0.0,0.0,0.0,0.0,0.0,-0.1598,0.0,-0.1588,0.0,0.0,0.0,0.0,0.0,0.0,0.0,0.0,0.0,0.0,0.0,0.0,0.0,0.0,0.0,0.0,0.0,0.0,0.0,0.0,0.0,0.0098,0.0295,0.0289,0.0479,0.0769,0.0743,0.1739,0.3193,0.3773,0.4912,0.6272,-2.4152,-2.395,-2.3767,-2.3767,-2.3437,-2.3167,-2.3501,-2.2988,-2.2593,-2.2703,-2.241,-2.2044,-2.1798,-2.2393,0.0,-2.2742,-2.3036,-2.3247,-2.3147,-2.2946,-2.2846,-2.2846,-2.2644,-2.2432,-2.221,0.0,0.0,-2.1833,-2.2312,-2.2424,-2.2201,-2.2201,-2.1866,-2.1228,-2.0402,-1.9657,-1.8935,-1.8111,-1.6915,-1.5609,-1.5625,-1.4756,-1.3551,-1.3545,-1.3425,-1.3249,-1.3249,-1.3152,-1.2958,-1.2958,-1.2861,-1.2764,-1.2764,-1.2764,-1.2764,-1.2764,-1.2764,-1.2764,-1.2764,-1.2667,-1.237,-1.2078,-1.1688,-1.1096,-0.9916,-0.8726,-0.7806,-0.7419,-0.6323,-0.541,-0.5307,-0.452,-0.3864,-0.3619,-0.2941,-0.2271,-0.2114,0.0,0.0,0.0,0.0,0.0,0.0,-0.1607,0.0,0.0,0.0,0.0,0.0,0.0,0.0,0.0,0.0,0.0,0.0,0.0,0.0,0.0,0.0,0.0,0.0,0.0,0.0,0.0,0.0,0.0098,0.0299,0.0292,0.0387,0.0678,0.1124,0.2022,0.3187,0.4218,0.5267,0.6361,-2.426,-2.4152,0.0,0.0,-2.384,0.0,-2.3584,-2.3226,-2.2813,-2.2419,-2.2592,-2.2571,-2.1978,-2.2116,-2.2167,-2.2055,0.0,0.0,0.0,-2.2526,-2.2644,-2.2644,-2.2644,-2.2644,-2.2644,-2.2644,-2.2644,-2.2644,-2.2544,-2.2544,-2.2644,-2.2443,-2.1818,-2.0869,-2.035,-1.9414,-1.8178,-1.7678,-1.669,-1.5395,-1.5577,-1.4661,-1.3224,-1.3446,-1.3199,-1.2813,-1.2797,-1.2786,-1.2786,-1.277,-1.2764,-1.2764,-1.2764,-1.2764,-1.2764,-1.2764,-1.2764,-1.2764,-1.2764,-1.237,-1.1975,-1.1878,-1.1096,-1.0015,-0.873,-0.7733,-0.6939,-0.6142,-0.5338,-0.481,-0.4732,-0.4317,-0.3726,-0.3243,-0.265,-0.2172,-0.1713,0.0,0.0,0.0,0.0,0.0,0.0,-0.159,-0.1571,0.0,0.0,0.0,0.0,0.0,0.0,0.0,0.0,0.0,0.0,0.0,0.0,0.0,0.0,0.0,0.0,0.0,0.0,0.0,0.0,0.0,0.0,0.0,0.0194,0.0572,0.168,0.2833,0.4034,0.5277,0.6257,0.7084,0.0,0.0,-2.4152,-2.4152,-2.4079,-2.4005,-2.4005,-2.3409,-2.2829,-2.2729,-2.2426,-2.1951,-2.1572,-2.1768,-2.1768,-2.1488,-2.1881,-2.2231,-2.2133,-2.2389,-2.2644,-2.2644,-2.2644,-2.2644,-2.2644,-2.2644,-2.2644,-2.2644,-2.1717,-2.1717,-2.2544,-2.0783,-2.0364,-2.0775,-1.9058,-1.7922,-1.7415,-1.6228,-1.5442,-1.4807,-1.4476,-1.4066,-1.3724,-1.3576,-1.3458,-1.3287,-1.3093,-1.3023,-1.2996,-1.2824,-1.2764,-1.2764,-1.2764,-1.2764,-1.2764,-1.2764,-1.2764,-1.2662,-1.2273,-1.2078,-1.1785,-1.0998,-1.0314,-0.9525,-0.863,-0.7733,-0.6939,-0.6142,-0.5338,-0.4828,-0.4808,-0.4352,-0.3841,-0.33,-0.2772,-0.2173,-0.1713,-0.1597,0.0,0.0,-0.159,-0.1583,-0.1614,-0.159,-0.1473,0.0,0.0,0.0,0.0,-0.0095,0.0,0.0,0.0,0.0,0.0,0.0,0.0,0.0,0.0,0.0,0.0,0.0,0.0,0.0,0.0,0.0097,0.0301,0.0296,0.0587,0.107,0.2002,0.2732,0.3454,0.5063,0.5863,0.6309,-2.4198,-2.4152,-2.4152,-2.4152,-2.4152,-2.4152,-2.4152,-2.3785,-2.3341,-2.3053,-2.2645,-2.2191,-2.1352,-2.1635,-2.1639,-2.1086,-2.1655,-2.1996,-2.1996,-2.2338,-2.2644,-2.2644,-2.2644,-2.2644,-2.2644,-2.2644,-2.2342,-2.1818,-2.12,-2.0987,-2.0987,-1.9746,-1.9228,-1.9339,-1.7982,-1.6984,-1.62,-1.5279,-1.4619,-1.4293,-1.3992,-1.3788,-1.3674,-1.3453,-1.3308,-1.3276,-1.3034,-1.2947,-1.2926,-1.2807,-1.2764,-1.2764,-1.2764,-1.2764,-1.2764,-1.2764,-1.2662,-1.237,-1.2078,-1.1683,-1.1096,-1.0216,-0.9525,-0.8832,-0.8035,-0.7238,-0.6439,-0.5639,-0.5135,-0.4834,-0.4834,-0.4198,-0.3598,-0.3259,-0.2515,-0.1902,-0.1633,-0.1611,0.0,-0.1615,-0.159,-0.1578,-0.1594,-0.1581,-0.1369,-0.097,0.0,0.0,-0.0193,-0.0097,0.0,0.0,0.0,0.0,0.0,0.0,0.0,0.0,0.0,0.0,0.0,0.0,0.0,0.0,0.0,0.0097,0.0199,0.0199,0.0689,0.1451,0.2508,0.3448,0.4358,0.5836,0.6477,0.6722,-2.4161,-2.4152,-2.4152,-2.4152,-2.4152,-2.4152,-2.4053,-2.3998,-2.3735,-2.3098,-2.2956,-2.2583,-2.1395,-2.1656,-2.164,-2.0994,-2.1593,-2.1996,-2.1996,-2.2338,-2.2644,-2.2644,-2.2644,-2.2644,-2.2644,-2.2644,-2.2021,-2.0885,-2.0783,-2.0158,-1.9228,-1.8862,-1.8338,-1.7582,-1.7086,-1.6293,-1.5076,-1.4704,-1.4353,-1.3896,-1.3929,-1.3718,-1.3453,-1.3243,-1.3163,-1.313,-1.2899,-1.2813,-1.2807,-1.2775,-1.2764,-1.2764,-1.2764,-1.2764,-1.2764,-1.2764,-1.2467,-1.198,-1.198,-1.1198,-1.0314,-0.9727,-0.9031,-0.8233,-0.7338,-0.6539,-0.5741,-0.4935,-0.4834,-0.4734,-0.4734,-0.3932,-0.3245,-0.3192,-0.2345,-0.1727,-0.1652,0.0,-0.1611,-0.1616,-0.159,-0.1573,-0.1578,-0.1575,-0.1463,-0.1151,-0.0985,-0.0698,0.0,-0.0197,0.0,0.0,0.0,0.0,0.0,0.0,0.0,0.0,0.0,0.0,0.0,0.0,0.0,0.0,0.0,0.0,0.0,0.0,0.0595,0.1532,0.2915,0.4159,0.5337,0.6629,0.7305,0.7533,-2.4225,-2.4152,-2.4152,-2.3854,-2.3854,-2.3755,-2.3546,-2.3171,-2.293,-2.277,-2.2566,-2.2197,-2.1752,-2.1864,-2.1747,-2.1362,-2.1739,-2.1996,-2.1996,-2.2338,-2.2644,-2.2644,-2.2644,-2.2644,-2.2644,-2.2644,-2.2021,-2.0885,-1.9952,-1.9332,-1.9131,-1.7495,-1.706,-1.7595,-1.6559,-1.5743,-1.5088,-1.4781,-1.4284,-1.389,-1.3789,-1.3653,-1.3475,-1.3437,-1.3421,-1.3389,-1.3141,-1.305,-1.3023,-1.2829,-1.2764,-1.2764,-1.2764,-1.2764,-1.2764,-1.2764,-1.2467,-1.198,-1.198,-1.1198,-1.0314,-0.9727,-0.9031,-0.8233,-0.7338,-0.6539,-0.5741,-0.4935,-0.4834,-0.4634,-0.4234,-0.4033,-0.3633,-0.2734,-0.2426,-0.2122,-0.1724,0.0,-0.1588,-0.1613,-0.159,-0.1581,-0.1607,-0.1586,-0.1471,-0.1173,-0.1162,-0.0878,-0.0402,-0.0402,-0.0202,0.0,0.0,0.0,0.0,0.0,0.0,0.0,0.0,0.0,0.0,0.0,0.0,0.0,0.0,0.0,0.0,0.0,0.0202,0.0782,0.2638,0.3707,0.446,0.6092,0.6907,0.7078,-2.4363,-2.418,-2.3898,-2.3691,-2.3546,-2.3546,-2.3447,-2.3196,-2.3081,-2.2883,-2.2775,-2.2438,-2.1959,-2.2163,-2.2141,-2.1756,-2.2073,-2.2295,-2.2295,-2.2449,-2.2644,-2.2644,-2.2644,-2.2644,-2.2644,-2.203,-2.1103,-1.9788,-1.8837,-1.7922,-1.7005,-1.6555,-1.6203,-1.5994,-1.5684,-1.5039,-1.4459,-1.4167,-1.3877,-1.3685,-1.3697,-1.3572,-1.3464,-1.333,-1.3276,-1.3243,-1.3007,-1.292,-1.2904,-1.2802,-1.2764,-1.2764,-1.2764,-1.2764,-1.2764,-1.2764,-1.2175,-1.1389,-1.0694,-0.9912,-0.9126,-0.8432,-0.7736,-0.7039,-0.6639,-0.5939,-0.5236,-0.4834,-0.4834,-0.4634,-0.4133,-0.3732,-0.3341,-0.2556,-0.2133,0.0,0.0,-0.1615,-0.1601,-0.1615,-0.1605,-0.1595,-0.1593,-0.1594,-0.149,-0.1179,-0.118,-0.1001,-0.0416,-0.0412,-0.031,0.0,0.0,0.0,0.0,0.0,0.0,0.0,0.0,0.0,0.0,0.0,0.0,0.0,0.0,0.0,0.0,0.0,0.0713,0.1933,0.2859,0.4144,0.5567,0.6401,0.6949,0.7343,-2.4557,-2.428,-2.3976,-2.3666,-2.3441,-2.3388,-2.3388,-2.3309,-2.3147,-2.2946,-2.2946,-2.2741,-2.2158,-2.2381,-2.2432,-2.215,-2.2381,-2.2644,-2.2644,-2.2333,-2.2232,-2.2232,-2.192,-2.1818,-2.1818,-2.0987,-1.9831,-1.8563,-1.788,-1.6834,-1.5306,-1.5869,-1.5714,-1.4894,-1.4976,-1.4545,-1.3868,-1.3572,-1.3416,-1.3319,-1.3367,-1.3362,-1.3292,-1.3098,-1.3023,-1.3001,-1.2824,-1.2764,-1.2764,-1.2764,-1.2764,-1.2764,-1.2764,-1.2764,-1.2764,-1.2667,-1.1683,-1.0502,-0.9513,-0.8722,-0.8131,-0.7338,-0.6639,-0.6037,-0.6009,-0.5404,-0.48,-0.4777,-0.4674,-0.4377,-0.3882,-0.3386,-0.2807,-0.2349,0.0,0.0,0.0,-0.1632,-0.1617,-0.1617,-0.1617,-0.1608,-0.1584,-0.1603,-0.1509,-0.1295,-0.121,-0.1033,-0.0536,-0.0424,-0.0318,0.0,0.0,0.0,0.0,0.0,0.0,0.0,0.0,0.0,0.0,0.0,0.0,0.0,0.0,0.0,0.0,0.0,0.1026,0.2707,0.2988,0.439,0.6314,0.6708,0.7065,0.7503,-2.4891,-2.4673,-2.435,-2.4114,-2.3713,-2.3384,-2.3178,-2.2877,-2.2644,-2.2644,-2.2653,-2.2636,-2.261,-2.2526,-2.2636,-2.261,-2.2526,-2.2644,-2.2644,-2.1607,-2.0987,-2.0987,-2.0055,-1.9435,-1.9435,-1.9332,-1.8805,-1.7654,-1.7674,-1.7035,-1.5837,-1.594,-1.5705,-1.5429,-1.4922,-1.4439,-1.3868,-1.3572,-1.3222,-1.2834,-1.305,-1.3007,-1.2813,-1.2797,-1.2786,-1.2786,-1.277,-1.2764,-1.2764,-1.2764,-1.2764,-1.2764,-1.2764,-1.2764,-1.2662,-1.2175,-1.0792,-0.9312,-0.9213,-0.8619,-0.7925,-0.7335,-0.6639,-0.6014,-0.5909,-0.5303,-0.4694,-0.461,-0.4302,-0.3823,-0.3157,-0.2678,-0.2215,-0.1769,0.0,0.0,-0.1615,-0.1618,-0.1617,-0.1617,-0.1617,-0.1615,-0.1613,-0.1615,-0.1628,-0.1654,-0.1346,-0.1053,-0.0871,-0.0546,-0.033,0.0,0.0,0.0,0.0,0.0,0.0,0.0,0.0,0.0,0.0,0.0,0.0,0.0,0.0,0.0,0.0,0.0,0.0625,0.1808,0.2818,0.3924,0.5127,0.6439,0.7024,0.7214,-2.4818,-2.4561,-2.426,-2.392,-2.3756,-2.3487,-2.3151,-2.2989,-2.2818,-2.2679,-2.2644,-2.2644,-2.2644,-2.2644,-2.2644,-2.2644,-2.192,-2.1505,-2.1505,-2.0467,-1.9849,-1.9849,-1.9435,-1.9228,-1.9228,-1.8506,-1.79,-1.7398,-1.6858,-1.6033,-1.5207,-1.5695,-1.5357,-1.4259,-1.4618,-1.4251,-1.345,-1.3512,-1.3373,-1.32,-1.313,-1.3055,-1.2958,-1.2818,-1.2764,-1.2764,-1.2764,-1.2764,-1.2764,-1.2764,-1.2764,-1.2764,-1.2764,-1.257,-1.2047,-1.0642,-0.9344,-0.8157,-0.7292,-0.6911,-0.6617,-0.5854,-0.5492,-0.5211,-0.5216,-0.4946,-0.4694,-0.4316,-0.4119,-0.3729,-0.2857,-0.2532,-0.2217,-0.1727,0.0,-0.1625,-0.1618,-0.1648,-0.1657,-0.1621,-0.1634,-0.1637,-0.1619,-0.1617,-0.152,-0.1429,-0.1226,-0.1032,-0.0635,-0.0325,-0.011,0.0,0.0,0.0,0.0,0.0,0.0,0.0,0.0,0.0,0.0,0.0,0.0,0.0,0.0,0.0,0.0,0.0,0.1071,0.2665,0.2972,0.4168,0.5837,0.6439,0.6773,0.6923,-2.4898,-2.4637,-2.4333,-2.4076,-2.3922,-2.3759,-2.3502,-2.3365,-2.3194,-2.2929,-2.28,-2.2723,-2.2723,-2.2621,-2.2443,-2.2131,-2.1404,-2.0783,-2.0364,-1.9332,-1.8715,-1.8715,-1.8394,-1.8185,-1.8185,-1.7463,-1.6957,-1.6645,-1.6113,-1.5458,-1.4727,-1.5157,-1.4767,-1.364,-1.4156,-1.3893,-1.3233,-1.3405,-1.348,-1.3464,-1.3292,-1.3222,-1.3195,-1.2958,-1.2872,-1.2872,-1.2872,-1.2824,-1.2775,-1.2845,-1.2824,-1.2764,-1.2565,-1.1878,-1.0867,-0.9559,-0.8293,-0.7131,-0.6171,-0.5802,-0.5604,-0.4876,-0.4814,-0.4861,-0.4804,-0.4836,-0.4786,-0.4411,-0.4008,-0.3613,-0.2823,-0.249,-0.2063,-0.1764,-0.1662,-0.1658,-0.1646,-0.1679,-0.1689,-0.1649,-0.1662,-0.1667,-0.1646,-0.1644,-0.1545,-0.1243,-0.114,-0.0835,-0.0319,-0.0109,0.0,0.0,0.0,0.0,0.0,0.0,0.0,0.0,0.0,0.0,0.0,0.0,0.0,0.0,0.0,0.0,0.0,0.0,0.1296,0.3234,0.3112,0.4532,0.6551,0.665,0.6754,0.6969,-2.5221,-2.5026,-2.4821,-2.4821,-2.4496,-2.4239,-2.423,-2.3913,-2.3665,-2.3665,-2.3348,-2.3117,-2.3117,-2.2775,-2.2131,-2.0987,-2.0885,-2.0364,-1.9228,-1.8199,-1.7582,-1.7582,-1.6524,-1.5891,-1.5891,-1.5891,-1.5791,-1.5482,-1.5482,-1.524,-1.4676,-1.4466,-1.4118,-1.3868,-1.3577,-1.348,-1.348,-1.3486,-1.3486,-1.3486,-1.348,-1.348,-1.3453,-1.32,-1.3109,-1.3109,-1.3109,-1.2964,-1.2802,-1.3028,-1.2953,-1.2667,-1.2175,-1.0699,-0.9217,-0.9217,-0.7727,-0.62,-0.62,-0.5659,-0.5063,-0.4881,-0.4906,-0.4973,-0.4971,-0.4973,-0.4947,-0.4857,-0.3935,-0.3233,-0.3233,-0.2325,-0.1628,-0.1658,-0.1663,-0.1673,-0.17,-0.1705,-0.1705,-0.1704,-0.1705,-0.1705,-0.1704,-0.1704,-0.1609,-0.131,-0.1093,-0.0661,0.0,0.0,0.0,0.0,0.0,0.0,0.0,0.0,0.0,0.0,0.0,0.0,0.0,0.0,0.0,0.0,0.0,0.0,0.0,0.0,0.1385,0.3394,0.3436,0.481,0.6801,0.7115,0.7217,0.7197,-2.4923,-2.4812,-2.4821,-2.4821,-2.4727,-2.4556,-2.4273,-2.4136,-2.3965,-2.3699,-2.3348,-2.3117,-2.3117,-2.2042,-2.1302,-2.0885,-1.9443,-1.8087,-1.6935,-1.6624,-1.6418,-1.6418,-1.6105,-1.5891,-1.5891,-1.5684,-1.5583,-1.5482,-1.5261,-1.4915,-1.4466,-1.4356,-1.4019,-1.3583,-1.3642,-1.3717,-1.3728,-1.3906,-1.3981,-1.3965,-1.3787,-1.3717,-1.369,-1.3459,-1.3367,-1.3367,-1.3367,-1.2806,-1.202,-1.2028,-1.1954,-1.1701,-1.0902,-0.9996,-0.8993,-0.7569,-0.6683,-0.6082,-0.5397,-0.5146,-0.5,-0.4945,-0.5,-0.5051,-0.4986,-0.502,-0.497,-0.4578,-0.3842,-0.3324,-0.2933,-0.2263,-0.1713,-0.1722,-0.1723,-0.1719,-0.1706,-0.1741,-0.1752,-0.171,-0.1723,-0.1727,-0.1706,-0.1704,-0.1601,-0.1287,-0.1074,-0.0758,-0.0331,-0.0331,-0.0222,0.0,0.0,0.0,0.0,0.0,0.0,0.0,0.0,0.0,0.0,0.0,0.0,0.0,0.0,0.0457,0.1224,0.1233,0.2675,0.4833,0.4585,0.5497,0.679,0.6807,0.6719,0.6653,-2.4821,-2.4821,-2.4821,-2.4821,-2.4821,-2.4744,-2.4504,-2.4461,-2.4384,-2.4153,-2.3794,-2.3283,-2.2703,-2.1731,-2.0734,-1.9657,-1.7989,-1.663,-1.5998,-1.5891,-1.5891,-1.5891,-1.5791,-1.5791,-1.5791,-1.5583,-1.5374,-1.5154,-1.4934,-1.454,-1.4003,-1.4003,-1.3767,-1.334,-1.3577,-1.3733,-1.3836,-1.4089,-1.4196,-1.418,-1.4029,-1.3965,-1.3943,-1.3706,-1.3615,-1.3615,-1.3615,-1.2822,-1.169,-1.1661,-1.1051,-1.0171,-0.9568,-0.8798,-0.782,-0.6578,-0.5989,-0.5693,-0.5114,-0.5063,-0.5135,-0.5135,-0.5149,-0.5157,-0.5139,-0.5177,-0.5013,-0.4512,-0.3972,-0.3324,-0.28,-0.2225,-0.1767,-0.1767,-0.1767,-0.1761,-0.1742,-0.1772,-0.1781,-0.1744,-0.1756,-0.1761,-0.1742,-0.174,-0.1631,-0.1305,-0.1088,-0.0765,-0.0442,-0.0442,-0.0222,0.0,0.0,0.0,0.0,0.0,0.0,0.0,0.0,0.0,0.0,0.0,0.0,0.0,0.0,0.0457,0.1121,0.1574,0.2919,0.4682,0.4953,0.5889,0.6921,0.6752,0.6643,0.6592,-2.4821,-2.4821,-2.4821,-2.4821,-2.4821,-2.4821,-2.4821,-2.4821,-2.4821,-2.4821,-2.4369,-2.3528,-2.2172,-2.1541,-2.0272,-1.7853,-1.6587,-1.5952,-1.5928,-1.5928,-1.5916,-1.5891,-1.569,-1.5482,-1.5482,-1.5482,-1.5154,-1.4606,-1.4606,-1.4161,-1.3513,-1.3513,-1.3389,-1.3179,-1.3405,-1.3636,-1.3868,-1.4094,-1.4196,-1.4196,-1.4196,-1.4196,-1.4169,-1.3943,-1.3852,-1.3852,-1.3852,-1.287,-1.1652,-1.1521,-1.0141,-0.8371,-0.8183,-0.7241,-0.6283,-0.6187,-0.5726,-0.5257,-0.5257,-0.5318,-0.5382,-0.5382,-0.5318,-0.5277,-0.5363,-0.5382,-0.5268,-0.4592,-0.4039,-0.337,-0.2807,-0.2247,-0.1798,-0.1795,-0.1795,-0.1795,-0.1795,-0.1795,-0.1795,-0.1795,-0.1795,-0.1795,-0.1795,-0.1795,-0.1683,-0.1346,-0.1121,-0.0785,-0.0449,-0.0449,-0.0337,0.0,0.0,0.0,0.0,0.0,0.0,0.0,0.0,0.0,0.0,0.0,0.0,0.0,0.0,0.0112,0.0224,0.1432,0.2646,0.3895,0.4951,0.6058,0.7081,0.6866,0.6779,0.6774,-2.4821,-2.4821,-2.4821,-2.4821,-2.4821,-2.4821,-2.4821,-2.4821,-2.4821,-2.4821,-2.3684,-2.2634,-2.2065,-2.0236,-1.8775,-1.7943,-1.7051,-1.6435,-1.6211,-1.6193,-1.6103,-1.5897,-1.569,-1.5369,-1.5148,-1.4928,-1.4713,-1.4606,-1.4401,-1.4147,-1.3744,-1.3744,-1.3717,-1.3669,-1.3723,-1.3884,-1.4116,-1.4169,-1.4196,-1.4196,-1.4196,-1.4196,-1.4186,-1.4132,-1.4116,-1.4116,-1.4116,-1.2768,-1.0754,-0.9323,-0.8123,-0.7191,-0.739,-0.6907,-0.6305,-0.5738,-0.5447,-0.5351,-0.5351,-0.5367,-0.5382,-0.5382,-0.5367,-0.5357,-0.5377,-0.5382,-0.5268,-0.4592,-0.4076,-0.3417,-0.2812,-0.2155,-0.1823,-0.1799,-0.1795,-0.1795,-0.1795,-0.1795,-0.1795,-0.1795,-0.1795,-0.1795,-0.1795,-0.1795,-0.1795,-0.1683,-0.1683,-0.1346,-0.0785,-0.0795,-0.0572,0.0,0.0,0.0,0.0,0.0,0.0,0.0,0.0,0.0,0.0,0.0,0.0,0.0,0.0,0.0567,0.1456,0.2675,0.3872,0.4924,0.6001,0.6563,0.673,0.6679,0.6597,0.6543,-2.4821,-2.4821,-2.4821,-2.4821,-2.4821,-2.4821,-2.4821,-2.4359,-2.3896,-2.3896,-2.2696,-2.1435,-2.056,-1.9431,-1.8321,-1.7495,-1.695,-1.664,-1.6489,-1.6252,-1.6011,-1.5874,-1.5319,-1.5041,-1.4821,-1.4504,-1.4401,-1.4401,-1.4299,-1.4062,-1.382,-1.382,-1.382,-1.382,-1.382,-1.3959,-1.4196,-1.4196,-1.4196,-1.4196,-1.4196,-1.4196,-1.4196,-1.4196,-1.4196,-1.4083,-1.3527,-1.1706,-0.9341,-0.7642,-0.6716,-0.6144,-0.6194,-0.6141,-0.5868,-0.5479,-0.5382,-0.539,-0.5431,-0.5441,-0.5441,-0.5441,-0.5441,-0.5441,-0.5441,-0.5441,-0.5227,-0.4354,-0.393,-0.3364,-0.2532,-0.207,-0.1835,-0.1819,-0.1804,-0.1795,-0.1795,-0.1795,-0.1795,-0.1795,-0.1795,-0.1795,-0.1795,-0.1795,-0.1795,-0.1795,-0.1795,-0.157,-0.0897,-0.0912,-0.0575,0.0,0.0,0.0,0.0,0.0,0.0339,0.0896,0.0224,0.0,0.0,0.0,0.0,0.0,0.0,0.0339,0.112,0.291,0.3877,0.4463,0.6204,0.6798,0.6779,0.6662,0.6654,0.6733,-2.4821,-2.459,-2.4479,-2.4479,-2.4359,-2.4128,-2.4128,-2.332,-2.2628,-2.2628,-2.1593,-2.0338,-1.9031,-1.8665,-1.8139,-1.6958,-1.6833,-1.6815,-1.6654,-1.6221,-1.5975,-1.5818,-1.5132,-1.4667,-1.4667,-1.4315,-1.4196,-1.4196,-1.4196,-1.4089,-1.3884,-1.3884,-1.3884,-1.3884,-1.3884,-1.3997,-1.4196,-1.4196,-1.4196,-1.4196,-1.4196,-1.4196,-1.4196,-1.4196,-1.4196,-1.4083,-1.2748,-1.057,-0.7976,-0.6572,-0.5811,-0.5482,-0.5265,-0.532,-0.5386,-0.5398,-0.5404,-0.5422,-0.5508,-0.5531,-0.5531,-0.5531,-0.5531,-0.5535,-0.5551,-0.5414,-0.5075,-0.3991,-0.3659,-0.3309,-0.2122,-0.1869,-0.1854,-0.1849,-0.1827,-0.1808,-0.1804,-0.1807,-0.1808,-0.1804,-0.1807,-0.181,-0.181,-0.181,-0.181,-0.181,-0.181,-0.1584,-0.0905,-0.0917,-0.0578,0.0,0.0,0.0117,0.0348,0.0346,0.0913,0.2136,0.1122,0.056,0.056,0.056,0.0448,0.0336,0.0335,0.0335,0.0448,0.2677,0.3646,0.392,0.601,0.6883,0.6929,0.6725,0.6779,0.6991,-2.4821,-2.4016,-2.3207,-2.3207,-2.2281,-2.1586,-2.1586,-2.1472,-2.1358,-2.1358,-2.0343,-1.932,-1.8925,-1.7989,-1.7395,-1.7358,-1.7376,-1.7158,-1.6695,-1.6533,-1.6308,-1.5755,-1.5177,-1.4939,-1.4939,-1.4407,-1.4196,-1.4196,-1.4196,-1.4175,-1.4143,-1.4143,-1.4143,-1.4143,-1.4143,-1.4164,-1.4196,-1.4196,-1.4196,-1.4196,-1.4196,-1.4196,-1.4196,-1.4196,-1.4196,-1.397,-1.2531,-1.0206,-0.7558,-0.6241,-0.5693,-0.5472,-0.5363,-0.5371,-0.5396,-0.5469,-0.549,-0.551,-0.56,-0.5625,-0.5625,-0.5625,-0.5625,-0.5645,-0.5727,-0.5155,-0.45,-0.3873,-0.3334,-0.2753,-0.2008,-0.1904,-0.191,-0.1884,-0.1877,-0.1864,-0.1838,-0.1857,-0.1864,-0.1837,-0.1857,-0.1874,-0.1874,-0.1874,-0.1874,-0.1874,-0.1874,-0.1639,-0.0936,-0.0938,-0.0591,0.0,0.0,0.0474,0.1556,0.1514,0.2178,0.3316,0.3155,0.3134,0.3134,0.3134,0.2574,0.1566,0.1544,0.1547,0.1677,0.3083,0.4152,0.5124,0.6421,0.6907,0.6823,0.679,0.6798,0.6874,-2.3896,-2.3328,-2.2749,-2.2055,-2.1472,-2.1123,-2.1123,-2.0565,-2.0113,-2.0113,-1.9087,-1.8241,-1.8121,-1.7652,-1.7358,-1.7473,-1.7367,-1.7085,-1.685,-1.6356,-1.6,-1.5663,-1.5197,-1.4959,-1.4959,-1.4744,-1.4514,-1.4385,-1.4256,-1.4196,-1.4196,-1.4196,-1.4196,-1.4196,-1.4196,-1.4196,-1.4196,-1.4196,-1.4196,-1.4196,-1.4196,-1.4196,-1.4083,-1.3413,-1.3083,-1.2644,-1.0554,-0.8355,-0.648,-0.5931,-0.5601,-0.5382,-0.5382,-0.5414,-0.5459,-0.5496,-0.5543,-0.5604,-0.5696,-0.572,-0.572,-0.572,-0.572,-0.5612,-0.5292,-0.4647,-0.4028,-0.3854,-0.3402,-0.2682,-0.206,-0.1934,-0.1926,-0.1913,-0.1897,-0.1881,-0.1868,-0.1877,-0.1881,-0.1867,-0.1878,-0.1886,-0.1886,-0.1886,-0.1886,-0.1886,-0.1886,-0.165,-0.1178,-0.1188,-0.0954,-0.0476,-0.0361,0.0361,0.1665,0.1774,0.2804,0.4697,0.4664,0.4288,0.358,0.358,0.3357,0.2796,0.2776,0.2779,0.2908,0.4106,0.4841,0.5343,0.6547,0.691,0.6825,0.7027,0.7016,0.6956]},{"header":{"parameterUnit":"m.s-1","parameterCategory":1,"la1":30.6,"la2":28.766,"lo1":-90.7593,"lo2":-88.6598,"dx":0.0162,"dy":0.0183,"nx":116,"ny":114,"refTime":"2023-01-25T06:00:00:Z","depth":0,"parameterNumber":3,"parameterNumberName":"V-component_of_WINDS"},"data":[0.0,0.0,0.0,0.0,0.0,0.0,0.0,0.0,0.0,0.0,0.0,0.0,0.0,0.0,0.0,0.0,0.0,0.0,0.0,0.0,0.0,0.0,0.0,0.0,0.0,0.0,0.0,0.0,0.0,0.0,0.0,0.0,0.0,0.0,0.0,0.0,0.0,0.0,0.0,0.0,0.0,0.0,0.0,0.0,0.0,0.0,0.0,0.0,0.0,0.0,0.0,0.0,0.0,0.0,0.0,0.0,0.0,0.0,0.0,0.0,0.0,0.0,0.0,0.0,0.0,0.0,0.0,0.0,0.0,0.0,0.0,0.0,0.0,0.0,0.0,0.0,0.0,0.0,0.0,0.0,0.0,0.0,0.0,0.0,0.0,0.0,0.0,0.0,0.0,0.0,0.0,0.0,0.0,0.0,0.0,0.0,0.0,0.0,0.0,0.0,0.0,0.0,0.0,0.0,0.0,0.0,0.0,0.0,0.0,0.0,0.0,0.0,0.0,0.0,0.0,0.0,0.0,0.0,0.0,0.0,0.0,0.0,0.0,0.0,0.0,0.0,0.0,0.0,0.0,0.0,0.0,0.0,0.0,0.0,0.0,0.0,0.0,0.0,0.0,0.0,0.0,0.0,0.0,0.0,0.0,0.0,0.0,0.0,0.0,0.0,0.0,0.0,0.0,0.0,0.0,0.0,0.0,0.0,0.0,0.0,0.0,0.0,0.0,0.0,0.0,0.0,0.0,0.0,0.0,0.0,0.0,0.0,0.0,0.0,0.0,0.0,0.0,0.0,0.0,0.0,0.0,0.0,0.0,0.0,0.0,0.0,0.0,0.0,0.0,0.0,0.0,0.0,0.0,0.0,0.0,0.0,0.0,0.0,0.0,0.0,0.0,0.0,0.0,0.0,0.0,0.0,0.0,0.0,0.0,0.0,0.0,0.0,0.0,0.0,0.0,0.0,0.0,0.0,0.0,0.0,0.0,0.0,0.0,0.0,0.0,0.0,0.0,0.0,0.0,0.0,0.0,0.0,0.0,0.0,0.0,0.0,0.0,0.0,0.0,0.0,0.0,0.0,0.0,0.0,0.0,0.0,0.0,0.0,0.0,0.0,0.0,0.0,0.0,0.0,0.0,0.0,0.0,0.0,0.0,0.0,0.0,0.0,0.0,0.0,0.0,0.0,0.0,0.0,0.0,0.0,0.0,0.0,0.0,0.0,0.0,0.0,0.0,0.0,0.0,0.0,0.0,0.0,0.0,0.0,0.0,0.0,0.0,0.0,0.0,0.0,0.0,0.0,0.0,0.0,0.0,0.0,0.0,0.0,0.0,0.0,0.0,0.0,0.0,0.0,0.0,0.0,0.0,0.0,0.0,0.0,0.0,0.0,0.0,0.0,0.0,0.0,0.0,0.0,0.0,0.0,0.0,0.0,0.0,0.0,0.0,0.0,0.0,0.0,0.0,0.0,0.0,0.0,0.0,0.0,0.0,0.0,0.0,0.0,0.0,0.0,0.0,0.0,0.0,0.0,0.0,0.0,0.0,0.0,0.0,0.0,0.0,0.0,0.0,0.0,0.0,0.0,0.0,0.0,0.0,0.0,0.0,0.0,0.0,0.0,0.0,0.0,0.0,0.0,0.0,0.0,0.0,0.0,0.0,0.0,0.0,0.0,0.0,0.0,0.0,0.0,0.0,0.0,0.0,0.0,0.0,0.0,0.0,0.0,0.0,0.0,0.0,0.0,0.0,0.0,0.0,0.0,0.0,0.0,0.0,0.0,0.0,0.0,0.0,0.0,0.0,0.0,0.0,0.0,0.0,0.0,0.0,0.0,0.0,0.0,0.0,0.0,0.0,0.0,0.0,0.0,0.0,0.0,0.0,0.0,0.0,0.0,0.0,0.0,0.0,0.0,0.0,0.0,0.0,0.0,0.0,0.0,0.0,0.0,0.0,0.0,0.0,0.0,0.0,0.0,0.0,0.0,0.0,0.0,0.0,0.0,0.0,0.0,0.0,0.0,0.0,0.0,0.0,0.0,0.0,0.0,0.0,0.0,0.0,0.0,0.0,0.0,0.0,0.0,0.0,0.0,0.0,0.0,0.0,0.0,0.0,0.0,0.0,0.0,0.0,0.0,0.0,0.0,0.0,0.0,0.0,0.0,0.0,0.0,0.0,0.0,0.0,0.0,0.0,0.0,0.0,0.0,0.0,0.0,0.0,0.0,0.0,0.0,0.0,0.0,0.0,0.0,0.0,0.0,0.0,0.0,0.0,0.0,0.0,0.0,0.0,0.0,0.0,0.0,0.0,0.0,0.0,0.0,0.0,0.0,0.0,0.0,0.0,0.0,0.0,0.0,0.0,0.0,0.0,0.0,0.0,0.0,0.0,0.0,0.0,0.0,0.0,0.0,0.0,0.0,0.0,0.0,0.0,0.0,0.0,0.0,0.0,0.0,0.0,0.0,0.0,0.0,0.0,0.0,0.0,0.0,0.0,0.0,0.0,0.0,0.0,0.0,0.0,0.0,0.0,0.0,0.0,0.0,0.0,0.0,0.0,0.0,0.0,0.0,0.0,0.0,0.0,0.0,0.0,0.0,0.0,0.0,0.0,0.0,0.0,0.0,0.0,0.0,0.0,0.0,0.0,0.0,0.0,0.0,0.0,0.0,0.0,0.0,0.0,0.0,0.0,0.0,0.0,0.0,0.0,0.0,0.0,0.0,0.0,0.0,0.0,0.0,0.0,0.0,0.0,0.0,0.0,0.0,0.0,0.0,0.0,0.0,0.0,0.0,0.0,0.0,0.0,0.0,0.0,0.0,0.0,0.0,0.0,0.0,0.0,0.0,0.0,0.0,0.0,0.0,0.0,0.0,0.0,0.0,0.0,0.0,0.0,0.0,0.0,0.0,0.0,0.0,0.0,0.0,0.0,0.0,0.0,0.0,0.0,0.0,0.0,0.0,0.0,0.0,0.0,0.0,0.0,0.0,0.0,0.0,0.0,0.0,0.0,0.0,0.0,0.0,0.0,0.0,0.0,0.0,0.0,0.0,0.0,0.0,0.0,0.0,0.0,0.0,0.0,0.0,0.0,0.0,0.0,0.0,0.0,0.0,0.0,0.0,0.0,0.0,0.0,0.0,0.0,0.0,0.0,0.0,0.0,0.0,0.0,0.0,0.0,0.0,0.0,0.0,0.0,0.0,0.0,0.0,0.0,0.0,0.0,0.0,0.0,0.0,0.0,0.0,0.0,0.0,0.0,0.0,0.0,0.0,0.0,0.0,0.0,0.0,0.0,0.0,0.0,0.0,0.0,0.0,0.0,0.0,0.0,0.0,0.0,0.0,0.0,0.0,0.0,0.0,0.0,0.0,0.0,0.0,0.0,0.0,0.0,0.0,0.0,0.0,0.0,0.0,0.0,0.0,0.0,0.0,0.0,0.0,0.0,0.0,0.0,0.0,0.0,0.0,0.0,0.0,0.0,0.0,0.0,0.0,0.0,0.0,0.0,0.0,0.0,0.0,0.0,0.0,0.0,0.0,0.0,0.0,0.0,0.0,0.0,0.0,0.0,0.0,0.0,0.0,0.0,0.0,0.0,0.0,0.0,0.0,0.0,0.0,0.0,0.0,0.0,0.0,0.0,0.0,0.0,0.0,0.0,0.0,0.0,0.0,0.0,0.0,0.0,0.0,0.0,0.0,0.0,0.0,0.0,0.0,0.0,0.0,0.0,0.0,0.0,0.0,0.0,0.0,0.0,0.0,0.0,0.0,0.0,0.0,0.0,0.0,0.0,0.0,0.0,0.0,0.0,0.0,0.0,0.0,0.0,0.0,0.0,0.0,0.0,0.0,0.0,0.0,0.0,0.0,0.0,0.0,0.0,0.0,0.0,0.0,0.0,0.0,0.0,0.0,0.0,0.0,0.0,0.0,0.0,0.0,0.0,0.0,0.0,0.0,0.0,0.0,0.0,0.0,0.0,0.0,0.0,0.0,0.0,0.0,0.0,0.0,0.0,0.0,0.0,0.0,0.0,0.0,0.0,0.0,0.0,0.0,0.0,0.0,0.0,0.0,0.0,0.0,0.0,0.0,0.0,0.0,0.0,0.0,0.0,0.0,0.0,0.0,0.0,0.0,0.0,0.0,0.0,0.0,0.0,0.0,0.0,0.0,0.0,0.0,0.0,0.0,0.0,0.0,0.0,0.0,0.0,0.0,0.0,0.0,0.0,0.0,0.0,0.0,0.0,0.0,0.0,0.0,0.0,0.0,0.0,0.0,0.0,0.0,0.0,0.0,0.0,0.0,0.0,0.0,0.0,0.0,0.0,0.0,0.0,0.0,0.0,0.0,0.0,0.0,0.0,0.0,0.0,0.0,0.0,0.0,0.0,0.0,0.0,0.0,0.0,0.0,0.0,0.0,0.0,0.0,0.0,0.0,0.0,0.0,0.0,0.0,0.0,0.0,0.0,0.0,0.0,0.0,0.0,0.0,0.0,0.0,0.0,0.0,0.0,0.0,0.0,0.0,0.0,0.0,0.0,0.0,0.0,0.0,0.0,0.0,0.0,0.0,0.0,0.0,0.0,0.0,0.0,0.0,0.0,0.0,0.0,0.0,0.0,0.0,0.0,0.0,0.0,0.0,0.0,0.0,0.0,0.0,0.0,0.0,0.0,0.0,0.0,0.0,0.0,0.0,0.0,0.0,0.0,0.0,0.0,0.0,0.0,0.0,0.0,0.0,0.0,0.0,0.0,0.0,0.0,0.0,0.0,0.0,0.0,0.0,0.0,0.0,0.0,0.0,0.0,0.0,0.0,0.0,0.0,0.0,0.0,0.0,0.0,0.0,0.0,0.0,0.0,0.0,0.0,0.0,0.0,0.0,0.0,0.0,0.0,0.0,0.0,0.0,0.0,0.0,0.0,0.0,0.0,0.0,0.0,0.0,0.0,0.0,0.0,0.0,0.0,0.0,0.0,0.0,0.0,0.0,0.0,0.0,0.0,0.0,0.0,0.0,0.0,0.0,0.0,0.0,0.0,0.0,0.0,0.0,0.0,0.0,0.0,0.0,0.0,0.0,0.0,0.0,0.0,0.0,0.0,0.0,0.0,0.0,0.0,0.0,0.0,0.0,0.0,0.0,0.0,0.0,0.0,0.0,0.0,0.0,0.0,0.0,0.0,0.0,0.0,0.0,0.0,0.0,0.0,0.0,0.0,0.0,0.0,0.0,0.0,0.0,0.0,0.0,0.0,0.0,0.0,0.0,0.0,0.0,0.0,0.0,0.0,0.0,0.0,0.0,0.0,0.0,0.0,0.0,0.0,0.0,0.0,0.0,0.0,0.0,0.0,0.0,0.0,0.0,0.0,0.0,0.0,0.0,0.0,0.0,0.0,0.0,0.0,0.0,0.0,0.0,0.0,0.0,0.0,0.0,0.0,0.0,0.0,0.0,0.0,0.0,0.0,0.0,0.0,0.0,0.0,0.0,0.0,0.0,0.0,0.0,0.0,0.0,0.0,0.0,0.0,0.0,0.0,0.0,0.0,0.0,0.0,0.0,0.0,0.0,0.0,0.0,0.0,0.0,0.0,0.0,0.0,0.0,0.0,0.0,0.0,0.0,0.0,0.0,0.0,0.0,0.0,0.0,0.0,0.0,0.0,0.0,0.0,0.0,0.0,0.0,0.0,0.0,0.0,0.0,0.0,0.0,0.0,0.0,0.0,0.0,0.0,0.0,0.0,0.0,0.0,0.0,0.0,0.0,0.0,0.0,0.0,0.0,0.0,0.0,0.0,0.0,0.0,0.0,0.0,0.0,0.0,0.0,0.0,0.0,0.0,0.0,0.0,0.0,0.0,0.0,0.0,0.0,0.0,0.0,0.0,0.0,0.0,0.0,0.0,0.0,0.0,0.0,0.0,0.0,0.0,0.0,0.0,0.0,0.0,0.0,0.0,0.0,0.0,0.0,0.0,0.0,0.0,0.0,0.0,0.0,0.0,0.0,0.0,0.0,0.0,0.0,0.0,0.0,0.0,0.0,0.0,0.0,0.0,0.0,0.0,0.0,0.0,0.0,0.0,0.0,0.0,0.0,0.0,0.0,0.0,0.0,0.0,0.0,0.0,0.0,0.0,0.0,0.0268,0.0,0.0,0.0,0.0,0.0,0.0,0.0,0.0,0.0,0.0,0.0,0.0,0.0,0.0,0.0,0.0,0.0,0.0,0.0,0.0,0.0,0.0,0.0,0.0,0.0,0.0,0.0,0.0,0.0,0.0,0.0,0.0,0.0,0.0,0.0,0.0,0.0,0.0,0.0,0.0,0.0,0.0,0.0,0.0,0.0,0.0,0.0,0.0,0.0,0.0,0.0,0.0,0.0,0.0,0.0,0.0,0.0,0.0,0.0,0.0,0.0,0.0,0.0,0.0,0.0,0.0,0.0,0.0,0.0,0.0,0.0,0.0,0.0,0.0,0.0,0.0,0.0,0.0,0.0,0.0,0.0,0.0,0.0,0.0,0.0,0.0,0.0,0.0,0.0,0.0,0.0,0.0,0.0,0.0,0.0,0.0,0.0,0.0,0.0,0.0,0.0,0.0,0.0,0.0,0.0,0.0,0.0,0.0,0.0,0.0,0.0,0.0,0.0,0.0,0.0,0.0,0.0555,0.0,0.0,0.0,0.0,0.0,0.0,0.0,0.0,0.0,0.0,0.0,0.0,0.0,0.0,0.0,0.0,0.0,0.0,0.0,0.0,0.0,0.0,0.0,0.0,0.0,0.0,0.0,0.0,0.0,0.0,0.0,0.0,0.0,0.0,0.0,0.0,0.0,0.0,0.0,0.0,0.0,0.0,0.0,0.0,0.0,0.0,0.0,0.0,0.0,0.0,0.0,0.0,0.0,0.0,0.0,0.0,0.0,0.0,0.0,0.0,0.0,0.0,0.0,0.0,0.0,0.0,0.0,0.0,0.0,0.0,0.0,0.0,0.0,0.0,0.0,0.0,0.0,0.0,0.0,0.0,0.0,0.0,0.0,0.0,0.0,0.0,0.0,0.0,0.0,0.0,0.0,0.0,0.0,0.0,0.0,0.0,0.0,0.0,0.0,0.0,0.0,0.0,0.0,0.0,0.0,0.0,0.0,0.0,0.0,-0.3763,-0.3174,-0.3391,-0.302,-0.2138,-0.0886,-0.0363,-0.0352,0.0,0.0,0.0,0.0,0.0,0.0,0.0,0.0,0.0,0.0,0.0,0.0,0.0,0.0,0.0,0.0,0.0,0.0,0.0,0.0,0.0,0.0,0.0,0.0,0.0,0.0,0.0,0.0,0.0,0.0,0.0,0.0,0.0,0.0,0.0,0.0,0.0,0.0,0.0,0.0,0.0,0.0,0.0,0.0,0.0,0.0,0.0,0.0,0.0,0.0,0.0,0.0,0.0,0.0,0.0,0.0,0.0,0.0,0.0,0.0,0.0,0.0,0.0,0.0,0.0,0.0,0.0,0.0,0.0,0.0,0.0,0.0,0.0,0.0,0.0,0.0,0.0,0.0,0.0,0.0,0.0,0.0,0.0,0.0,0.0,0.0,0.0,0.0219,0.0154,0.0,0.0,0.0,0.0,0.0,0.0,0.0,0.0,0.0,0.0,0.0,0.0,0.0,0.0,-0.393,-0.4094,-0.4138,-0.4141,-0.4301,-0.4192,-0.3962,-0.3962,-0.3805,-0.3494,-0.2019,0.0,-0.0434,-0.0434,0.0,0.0,0.0,0.0,0.0,0.0,0.0,0.0,0.0,0.0,0.0,0.0,0.0,0.0,0.0,0.0,0.0,0.0,0.0,0.0,0.0,0.0,0.0,0.0,0.0,0.0,0.0,0.0,0.0,0.0,0.0,0.0,0.0,0.0,0.0,0.0,0.0,0.0,0.0,0.0,0.0,0.0,0.0,0.0,0.0,0.0,0.0,0.0,0.0,0.0,0.0,0.0,0.0,0.0,0.0,0.0,0.0,0.0,0.0,0.0,0.0,0.0,0.0,0.0,0.0,0.0,0.0,0.0,0.0,0.0,0.0,0.0,0.0,0.0,0.0,0.0,0.0,0.0,0.0,0.0,0.0,0.0,0.0,0.0,0.0,0.051,-0.0152,-0.0301,-0.0925,-0.1327,0.0,0.0,0.0,0.0,0.0,0.0,0.0,0.0,0.0,-0.4469,-0.4199,-0.41,-0.4249,-0.4294,-0.4318,-0.432,-0.4288,-0.4155,-0.4079,-0.3604,-0.329,-0.321,-0.2663,-0.1702,-0.0455,0.0,0.044,0.0787,0.0,0.0,0.0,0.0,0.0,0.1033,0.0,0.0,0.0,0.0,0.0,0.0,0.0,0.0,0.0,0.0,0.0,0.0,0.0,0.0,0.0,0.0,0.0,0.0,0.0,0.0,0.0,0.0,0.0,0.0,0.0,0.0,0.0,0.0,0.0,0.0,0.0,0.0,0.0,0.0,0.0,0.0,0.0,0.0,0.0,0.0,0.0,0.0,0.0,0.0,0.0,0.0,0.0,0.0,0.0,0.0,0.0,0.0,0.0,0.0,0.0,0.0,0.0,0.0,0.0,0.0,0.0,0.0,0.0,0.0,0.0,0.0,0.0,0.0,0.0,0.0,0.0,0.0,0.0,0.0,0.0,0.0,0.0,0.0448,-0.0229,-0.0521,-0.0997,-0.1411,0.0,0.0,0.0,0.0,0.0,0.0,-0.3992,-0.4075,-0.4077,-0.3992,-0.3997,-0.3997,-0.3915,-0.4151,-0.4151,-0.3995,-0.3763,-0.3608,-0.345,-0.2741,-0.2427,-0.2427,-0.2427,-0.1645,-0.047,0.0,0.0452,0.0808,0.0786,0.0775,0.07,0.0626,0.0555,0.0557,0.0,0.0,0.0,0.0,0.0,0.0,0.0,0.0,0.0,0.0,0.0,0.0,0.0,0.0,0.0,0.0,0.0,0.0,0.0,0.0,0.0,0.0,0.0,0.0,0.0,0.0,0.0,0.0,0.0,0.0,0.0,0.0,0.0,0.0,0.0,0.0,0.0,0.0,0.0,0.0,0.0,0.0,0.0,0.0,0.0,0.0,0.0,0.0,0.0,0.0,0.0,0.0,0.0,0.0,0.0,0.0,0.0,0.0,0.0,0.0,0.0,0.0,0.0,0.0,0.0,0.0,0.0,0.0,0.0,0.0,0.0,0.0,0.0,0.0,0.0,0.0,0.0,0.0,0.0,0.0233,-0.0704,0.0,0.0,0.0,0.0,-0.0235,-0.1878,-0.2896,-0.2896,-0.3682,-0.3763,-0.2896,-0.3526,-0.345,-0.2588,-0.345,-0.3528,-0.2902,-0.2668,-0.2273,-0.1724,-0.1488,-0.141,-0.1332,-0.0706,-0.0393,-0.0393,-0.1331,-0.0849,0.0603,0.0441,0.0358,0.0349,0.0477,0.0473,0.0543,0.0,0.0,0.0,0.0,0.0,0.0,0.0,0.0,0.0,0.0,0.0,0.0,0.0,0.0,0.0,0.0,0.0,0.0,0.0,0.0,0.0,0.0,0.0,0.0,0.0,0.0,0.0,0.0,0.0,0.0,0.0,0.0,0.0,0.0,0.0,0.0,0.0,0.0,0.0,0.0,0.0,0.0,0.0,0.0,0.0,0.0,0.0,0.0,0.0,0.0,0.0,0.0,0.0,0.0,0.0,0.0,0.0,0.0,0.0,0.0,0.0,0.0,0.0,0.0,0.0,0.0,0.0,0.0,0.0,0.0,0.0,0.0,0.0,0.0,0.0,0.0,0.0,0.0,0.0,0.094,0.0628,0.0,0.0,-0.0313,-0.0548,-0.0784,-0.1488,-0.1801,-0.1801,-0.2115,-0.2194,-0.2036,-0.2272,-0.2272,-0.2113,-0.2426,-0.2426,-0.2193,-0.2037,-0.1882,-0.1724,-0.0862,-0.0549,-0.0628,-0.0235,0.0078,0.0393,-0.0471,-0.0312,0.0619,0.0528,0.0594,0.0661,0.0716,0.086,0.0947,0.0,0.0,0.0,0.0,0.0,0.0,0.0,0.0,0.0,0.0,0.0,0.0,0.0,0.0,0.0,0.0,0.0,0.0,0.0,0.0,0.0,0.0,0.0,0.0,0.0,0.0,0.0,0.0,0.0,0.0,0.0,0.0,0.0,0.0,0.0,0.0,0.0,0.0,0.0,0.0,0.0,0.0,1.2146,0.0,0.0,0.0,0.0,0.0,0.0,0.0,0.0,0.0,0.0,0.0,0.0,0.0,0.0,0.0,0.0,0.0,0.0,0.0,0.0,0.0,0.0,0.0,0.0,0.0,0.0,0.0,0.0,0.0,0.0,0.0,0.0,0.0,0.0,0.0,0.1729,0.1335,0.1335,0.1099,0.047,0.047,0.0235,-0.0392,-0.0705,-0.0862,-0.0862,-0.1175,-0.1254,-0.1097,-0.1332,-0.1409,-0.1251,-0.1564,-0.1565,-0.1331,-0.1175,-0.1019,-0.0941,0.0,0.0392,0.0236,0.0392,0.0628,0.1021,0.0393,0.0314,0.0705,0.0535,0.0606,0.083,0.0801,0.0877,0.1123,0.0,0.0,0.0,0.0,0.0,0.0,0.0,0.0,0.0,0.0,0.0,0.0,0.0,0.0,0.0,0.0,0.0,0.0,0.0,0.0,0.0,0.0,0.0,0.0,0.0,0.0,0.0,0.0,0.0,0.0,0.0,0.0,0.0,0.0,0.0,0.0,0.0,0.0,0.0,0.0,0.0,0.0,1.2453,0.0,0.0,0.0,0.0,0.0,0.0,0.0,0.0,0.0,0.0,0.0,0.0,0.0,0.0,0.0,0.0,0.0,0.0,0.0,0.0,0.0,0.0,0.0,0.0,0.0,0.0,0.0,0.0,0.0,0.0,0.0,0.0,0.0,0.1964,0.1887,0.1729,0.1336,0.1335,0.1335,0.1335,0.1335,0.1335,0.1335,0.0549,0.0078,0.0078,-0.0783,-0.0862,0.0,-0.0784,-0.0784,0.0,-0.0784,-0.0863,-0.0236,-0.0078,0.0314,0.0943,0.1178,0.1257,0.1257,0.1257,0.1335,0.1257,0.1021,0.0943,0.0862,0.0459,0.0455,0.0603,0.0501,0.0643,0.0952,0.0,0.0,0.0,0.0,0.0,0.0,0.0,0.0,0.0,0.0,0.0,0.0,0.0,0.0,0.0,0.0,0.0,0.0,0.0,0.0,0.0,0.0,0.0,0.0,0.0,0.0,0.0,0.0,0.0,0.0,0.0,0.0,0.0,0.0,0.0,0.0,0.0,0.0,0.0,0.0,0.0,0.0,1.3213,0.0,0.0,0.0,0.0,0.0,0.0,0.0,0.0,0.0,0.0,0.0,0.0,0.0,0.0,0.0,0.0,0.0,0.0,0.0,0.0,0.0,0.0,0.0,0.0,0.0,0.0,0.0,0.0,0.0,0.0,0.0,0.0,0.2433,0.2118,0.2119,0.2042,0.1729,0.1572,0.1493,0.1493,0.1415,0.1335,0.1335,0.1099,0.0942,0.0942,0.0706,0.0706,0.0942,0.0706,0.0706,0.0942,0.0706,0.0707,0.0864,0.0942,0.0942,0.0943,0.1178,0.1178,0.1021,0.1178,0.1335,0.1257,0.1257,0.11,0.0864,0.0468,0.0544,0.0775,0.06,0.0819,0.1129,0.0,0.0,0.0,0.0,0.0,0.0,0.0,0.0,0.0,0.0,0.0,0.0,0.0,0.0,0.0,0.0,0.0,0.0,0.0,0.0,0.0,0.0,0.0,0.0,0.0,0.0,0.0,0.0,0.0,0.0,0.0,0.0,0.0,0.0,0.0,0.0,0.0,0.0,0.0,0.0,0.0,0.0,1.3794,1.3466,1.3206,1.2899,1.2523,1.2218,1.1966,1.1373,0.0,0.0,0.0,0.0,0.0,0.0,0.0,0.0,0.0,0.0,0.0,0.0,0.0,0.0,0.0,0.0,0.0,0.0,0.0,0.0,0.0,0.0,0.0,0.0,0.2527,0.2441,0.2385,0.2289,0.2118,0.1886,0.1807,0.1729,0.1572,0.1493,0.1415,0.1335,0.1335,0.1335,0.1335,0.1335,0.1335,0.1335,0.1335,0.1335,0.1335,0.1335,0.1335,0.1335,0.1335,0.1257,0.11,0.1257,0.1178,0.0,0.1257,0.1335,0.1335,0.1335,0.1178,0.0,0.0,0.0,0.0,0.0,0.0993,0.1064,0.0,0.0,0.0,0.0,0.0,0.0,0.0,0.0,0.0,0.0,0.0,0.0,0.0,0.0,0.0,0.0,0.0,0.0,0.0,0.0,0.0,0.0,0.0,0.0,0.0,0.0,0.0,0.0,0.0,0.0,0.0,0.0,0.0,0.0,0.0,0.0,0.0,0.0,0.0,0.0,0.0,0.0,1.4333,1.3807,1.3479,1.3187,1.2959,1.25,1.1987,1.1557,0.0,0.0,0.0,0.0,0.0,0.0,0.0,0.0,0.0,0.0,0.0,0.0,0.0,0.0,0.0,0.0,0.0,0.0,0.0,0.0,0.0,0.0,0.0,0.0,0.2561,0.2549,0.2604,0.2404,0.2211,0.1967,0.1964,0.1886,0.165,0.165,0.1572,0.1335,0.1335,0.1335,0.1335,0.0,0.0,0.0,0.0,0.1335,0.1335,0.1335,0.1335,0.1335,0.1335,0.1335,0.1335,0.1335,0.1335,0.1335,0.1335,0.1335,0.1335,0.1335,0.1257,0.1178,0.0864,0.0786,0.0943,0.1178,0.1162,0.0,0.0,0.0,0.0,0.0,0.0,0.0,0.0,0.0,0.0,0.0,0.0,0.0,0.0,0.0,0.0,0.0,0.0,0.0,0.0,0.0,0.0,0.0,0.0,0.0,0.0,0.0,0.0,0.0,0.0,0.0,0.0,0.0,0.0,0.0,0.0,0.0,0.0,0.0,0.0,0.0,0.0,0.0,1.5392,1.4399,1.3907,1.3535,1.333,1.2715,1.212,1.2082,1.1758,1.1298,1.0858,0.0,0.0,0.0,0.0,0.0,0.0,0.0,0.0,0.0,0.0,0.0,0.0,0.0,0.0,0.0,0.0,0.0,0.0,0.0,0.0,0.2762,0.2632,0.2661,0.2673,0.2664,0.2538,0.2364,0.2276,0.2118,0.2118,0.1963,0.1729,0.1572,0.1572,0.1493,0.1335,0.1335,0.0,0.1335,0.1335,0.1335,0.1335,0.1335,0.1335,0.1335,0.0,0.0,0.1335,0.1335,0.1335,0.1335,0.1335,0.1335,0.1335,0.1335,0.1178,0.1021,0.11,0.1021,0.0943,0.1178,0.1254,0.1249,0.0,0.0,0.0,0.0,0.0,0.0,0.0,0.0,0.0,0.0,0.0,0.0,0.0,0.0,0.0,0.0,0.0,0.0,0.0,0.0,0.0,0.0,0.0,0.0,0.0,0.0,0.0,0.0,0.0,0.0,0.0,0.0,0.0,0.0,0.0,0.0,0.0,0.0,0.0,0.0,0.0,0.0,1.6393,1.5418,1.472,1.4298,1.373,1.3003,1.2257,1.1922,1.1539,1.1156,1.0803,1.0719,1.0749,0.0,0.0,0.0,0.0,0.0,0.0,0.0,0.0,0.0,0.0,0.0,0.0,0.0,0.0,0.528,0.0,0.0,0.3729,0.3188,0.286,0.2703,0.2733,0.2711,0.267,0.2608,0.2493,0.2395,0.2236,0.2134,0.1963,0.1729,0.1729,0.1729,0.1572,0.1493,0.1415,0.1415,0.1335,0.1335,0.1335,0.1335,0.1335,0.1335,0.1335,0.1335,0.1335,0.1335,0.1335,0.1335,0.1335,0.1335,0.1335,0.1335,0.1257,0.11,0.1257,0.1414,0.1569,0.1805,0.2196,0.2585,0.0,0.0,0.0,0.0,0.0,0.0,0.0,0.0,0.0,0.0,0.0,0.0,0.0,0.0,0.0,0.0,0.0,0.0,0.0,0.0,0.0,0.0,0.0,0.0,0.0,0.0,0.0,0.0,0.0,0.0,0.0,0.0,0.0,0.0,0.0,0.0,0.0,0.0,0.0,0.0,0.0,0.0,1.7134,1.6253,1.5543,1.4989,1.4041,1.3201,1.2406,1.1821,1.1391,1.1076,1.0755,1.0647,1.0622,1.0942,1.0924,0.0,0.0,0.0,0.0,0.0,0.0,0.0,0.0,0.0,0.7466,0.6572,0.6115,0.5743,0.4853,0.438,0.3992,0.3549,0.318,0.283,0.2794,0.2759,0.2728,0.2728,0.2653,0.2525,0.2372,0.2313,0.2201,0.1977,0.197,0.1964,0.1887,0.1729,0.165,0.165,0.1493,0.1415,0.1336,0.1492,0.157,0.1571,0.1727,0.1804,0.1804,0.1804,0.1804,0.1804,0.1804,0.1804,0.1804,0.157,0.1571,0.1571,0.1571,0.1961,0.2508,0.251,0.2978,0.3599,0.0,0.0,0.0,0.0,0.0,0.0,0.0,0.0,0.0,0.0,0.0,0.0,0.0,0.0,0.0,0.0,0.0,0.0,0.0,0.0,0.0,0.0,0.0,0.0,0.0,0.0,0.0,0.0,0.0,0.0,0.0,0.0,0.0,0.0,0.0,0.0,0.0,0.0,0.0,0.0,0.0,0.0,1.7435,1.6553,1.5943,1.5289,1.425,1.3326,1.2644,1.2338,1.1895,1.1359,1.0876,1.1033,1.131,1.0888,0.0,1.1075,1.1105,1.1111,1.0881,0.99,0.9909,0.9907,0.0,0.0,0.7383,0.7319,0.6338,0.5355,0.4785,0.4695,0.4415,0.3646,0.3524,0.3388,0.2952,0.2858,0.2854,0.2854,0.2704,0.2623,0.2677,0.2578,0.2375,0.2263,0.2224,0.2119,0.1887,0.1887,0.1887,0.1887,0.1808,0.1729,0.1572,0.2273,0.2507,0.2354,0.3132,0.3519,0.3519,0.3519,0.3519,0.3519,0.3519,0.3519,0.3441,0.2665,0.2354,0.2354,0.2354,0.2898,0.3521,0.2744,0.2588,0.2743,0.0,0.0,0.0,0.0,0.0,0.0,0.0,0.0,0.0,0.0,0.0,0.0,0.0,0.0,0.0,0.0,0.0,0.0,0.0,0.0,0.0,0.0,0.0,0.0,0.0,0.0,0.0,0.0,0.0,0.0,0.0,0.0,0.0,0.0,0.0,0.0,0.0,0.0,0.0,0.0,0.0,0.0,1.7014,1.648,1.5879,1.5048,1.3993,1.313,0.0,0.0,1.149,1.1021,1.0791,1.0773,1.0816,1.0743,1.0797,0.0,1.1069,0.0,0.0,0.0,1.0539,1.0237,0.9422,0.869,0.8086,0.7666,0.7232,0.6691,0.6088,0.5697,0.5295,0.0,0.4186,0.4014,0.414,0.361,0.3505,0.4319,0.3745,0.3113,0.2771,0.2614,0.2717,0.318,0.2679,0.2588,0.2978,0.2431,0.2041,0.2041,0.1886,0.1729,0.1807,0.2353,0.2663,0.2663,0.3443,0.383,0.383,0.383,0.383,0.383,0.391,0.391,0.3752,0.3522,0.3366,0.3288,0.3288,0.3443,0.383,0.3912,0.4304,0.4774,0.0,0.0,0.0,0.0,0.0,0.0,0.0,0.0,0.0,0.0,0.0,0.0,0.0,0.0,0.0,0.0,0.0,0.0,0.0,0.0,0.0,0.0,0.0,0.0,0.0,0.0,0.0,0.0,0.0,0.0,0.0,0.0,0.0,0.0,0.0,0.0,0.0,0.0,0.0,0.0,0.0,0.0,1.6413,1.5959,1.5297,1.4543,1.36,1.289,0.0,0.0,1.1202,1.093,1.0852,1.0755,1.0683,1.0797,1.0828,1.0888,1.1154,0.0,0.0,1.1727,1.1433,1.1006,1.0569,0.9734,0.9013,0.8438,0.8177,0.7893,0.7228,0.6776,0.0,0.5716,0.5272,0.5156,0.5339,0.4692,0.4563,0.5499,0.4804,0.4024,0.3409,0.3262,0.3519,0.411,0.3536,0.3454,0.4182,0.3456,0.2984,0.3082,0.2752,0.2588,0.2668,0.3212,0.3444,0.3597,0.4297,0.4686,0.4686,0.4686,0.4686,0.4686,0.4844,0.4766,0.4608,0.4455,0.4375,0.4219,0.4144,0.4144,0.4222,0.5082,0.5631,0.5944,0.0,0.0,0.0,0.0,0.0,0.0,0.0,0.0,0.0,0.0,0.0,0.0,0.0,0.0,0.0,0.0,0.0,0.0,0.0,0.0,0.0,0.0,0.0,0.0,0.0,0.0,0.0,0.0,0.0,0.0,0.0,0.0,0.0,0.0,0.0,0.0,0.0,0.0,0.0,0.0,0.0,0.0,1.5758,1.4903,1.4202,1.3599,1.3168,0.0,0.0,0.0,1.1292,1.1461,1.1184,1.128,0.0,1.1178,1.1099,0.0,0.0,0.0,1.1968,1.2228,1.2345,1.2374,1.2286,1.1292,1.0196,1.0007,0.898,0.8121,0.7863,0.7746,0.7566,0.7122,0.7034,0.6858,0.6407,0.6207,0.5952,0.5781,0.5591,0.5309,0.0,0.5001,0.4977,0.509,0.4991,0.5053,0.5245,0.5064,0.4975,0.5165,0.4983,0.4768,0.4608,0.5392,0.5702,0.5544,0.6398,0.6784,0.6784,0.6784,0.6784,0.6784,0.6784,0.6784,0.6707,0.5693,0.5229,0.5229,0.5002,0.5002,0.5082,0.5944,0.5709,0.516,0.0,0.0,0.0,0.0,0.0,0.0,0.0,0.0,0.0,0.0,0.0,0.0,0.0,0.0,0.0,0.0,0.0,0.0,0.0,0.0,0.0,0.0,0.0,0.0,0.0,0.0,0.0,0.0,0.0,0.0,0.0,0.0,0.0,0.0,0.0,0.0,0.0,0.0,0.0,0.0,0.0,0.0,1.4349,1.4048,1.3447,1.2702,0.0,0.0,0.0,0.0,0.0,0.0,1.0882,0.0,0.0,1.1087,0.0,0.0,0.0,0.0,1.2506,1.2783,1.2762,1.266,1.266,1.1984,1.1197,1.0563,1.0133,0.941,0.832,0.8199,0.8107,0.7501,0.7501,0.7618,0.7861,0.719,0.6993,0.762,0.7053,0.0,0.0,0.0,0.0,0.5771,0.5338,0.5291,0.6058,0.5381,0.5056,0.5331,0.4983,0.4844,0.4924,0.5467,0.5702,0.5783,0.6553,0.6865,0.6865,0.6865,0.6865,0.6942,0.7022,0.7022,0.6861,0.6472,0.6318,0.617,0.5941,0.5941,0.6096,0.6257,0.618,0.6096,0.0,0.0,0.0,0.0,0.0,0.0,0.0,0.0,0.0,0.0,0.0,0.0,0.0,0.0,0.0,0.0,0.0,0.0,0.0,0.0,0.0,0.0,0.0,0.0,0.0,0.0,0.0,0.0,0.0,0.0,0.0,0.0,0.0,0.0,0.0,0.0,0.0,0.0,0.0,0.0,0.0,0.0,1.332,1.332,1.2899,0.0,0.0,0.0,0.0,0.0,0.0,0.0,0.0,0.0,0.0,0.0,0.0,0.0,0.0,1.259,1.3061,1.3338,1.3324,1.3304,1.3211,1.2659,1.1994,1.1337,1.0919,1.0403,0.9297,0.9101,0.8941,0.8434,0.8357,0.85,0.8887,0.8299,0.8113,0.8869,0.8286,0.0,0.0,0.0,0.0,0.688,0.6499,0.6524,0.7116,0.6482,0.6152,0.629,0.5871,0.5774,0.5854,0.6163,0.6321,0.6479,0.6942,0.7096,0.7096,0.7096,0.7096,0.7096,0.7253,0.7407,0.7553,0.7472,0.7548,0.7625,0.748,0.748,0.7553,0.7326,0.7326,0.7403,0.0,0.0,0.0,0.0,0.0,0.0,0.0,0.0,0.0,0.0,0.0,0.0,0.0,0.0,0.0,0.0,0.0,0.0,0.0,0.0,0.0,0.0,0.0,0.0,0.0,0.0,0.0,0.0,0.0,0.0,0.0,0.0,0.0,0.0,0.0,0.0,0.0,0.0,0.0,0.0,0.0,0.0,1.2775,1.2775,0.0,0.0,0.0,0.0,0.0,0.0,0.0,0.0,0.0,0.0,0.0,0.0,0.0,1.2397,1.2668,1.3133,1.3598,1.3857,1.4099,1.4208,1.3948,1.3297,1.2591,1.2095,1.146,1.0808,0.0,0.0,0.9907,0.9922,0.9591,0.9417,0.963,0.9488,0.9344,0.0,0.0,0.0,0.0,0.0,0.0,0.8159,0.0,0.8604,0.837,0.818,0.8074,0.8008,0.7667,0.7484,0.7484,0.7561,0.7557,0.7557,0.7633,0.7633,0.7633,0.7633,0.7633,0.7557,0.7557,0.8016,0.8699,0.8461,0.8912,0.9599,0.9372,0.9296,0.9296,0.9074,0.9003,0.8927,0.0,0.0,0.0,0.0,0.0,0.0,0.0,0.0,0.0,0.0,0.0,0.0,0.0,0.0,0.0,0.0,0.0,0.0,0.0,0.0,0.0,0.0,0.0,0.0,0.0,0.0,0.0,0.0,0.0,0.0,0.0,0.0,0.0,0.0,0.0,0.0,0.0,0.0,0.0,0.0,0.0,0.0,1.2163,0.0,0.0,0.0,0.0,0.0,0.0,0.0,0.0,0.0,0.0,0.0,1.1612,0.0,0.0,1.2705,1.3181,1.355,1.387,1.4129,1.4099,1.3936,1.3676,1.3159,1.2555,1.1893,1.1464,1.1109,0.0,0.0,0.0,1.0704,1.031,0.0,1.0353,1.0081,0.0,0.0,0.0,0.9336,0.9178,0.9308,0.0,0.0,0.8783,0.8743,0.88,0.8486,0.8391,0.8509,0.7994,0.7723,0.7723,0.8174,0.8399,0.8394,0.8993,0.9291,0.9291,0.9291,0.8993,0.8399,0.8399,0.8475,0.8699,0.8461,0.8912,0.9599,0.9372,0.9372,0.9448,0.915,0.9226,0.9448,0.0,0.0,0.0,0.0,0.0,0.0,0.0,0.0,0.0,0.0,0.0,0.0,0.0,0.0,0.0,0.0,0.0,0.0,0.0,0.0,0.0,0.0,0.0,0.0,0.0,0.0,0.0,0.0,0.0,0.0,0.0,0.0,0.0,0.0,0.0,0.0,0.0,0.0,0.0,0.0,0.0,0.0,0.0,0.0,0.0,0.0,0.0,0.0,0.0,0.0,0.0,1.1784,1.1794,1.1932,1.2123,1.2533,0.0,1.2982,1.3399,1.3707,1.3912,1.3948,1.393,1.3773,1.3272,1.2831,1.2374,1.187,1.1537,0.0,0.0,0.0,0.0,0.0,0.0,0.0,1.0569,1.0524,1.0404,0.0,1.0198,0.0,0.9858,0.9795,0.9899,0.0,0.9601,0.9199,0.9132,0.8841,0.8644,0.8677,0.823,0.8102,0.8479,0.8775,0.915,0.9518,0.9965,1.019,1.019,1.004,0.982,0.9372,0.0,0.9453,0.9755,0.9593,1.0045,1.0795,1.0651,1.072,1.072,1.0426,1.0426,1.0651,0.0,0.0,0.0,0.0,0.0,0.0,0.0,0.0,0.0,0.0,0.0,0.0,0.0,0.0,0.0,0.0,0.0,0.0,0.0,0.0,0.0,0.0,0.0,0.0,0.0,0.0,0.0,0.0,0.0,0.0,0.0,0.0,0.0,0.0,0.0,0.0,0.0,0.0,0.0,0.0,0.0,0.0,0.0,0.0,0.0,0.0,0.0,0.0,0.0,0.0,1.2205,1.2241,1.228,1.2485,1.2806,1.3149,1.3225,1.3276,1.3574,1.3829,1.3839,1.358,1.3658,1.3598,1.2911,1.2535,1.2198,1.2049,0.0,0.0,1.198,0.0,1.1025,1.1059,0.0,1.0448,1.0724,1.0853,1.1069,1.1295,1.0982,1.0804,1.0804,1.0554,1.0626,1.145,1.0682,1.0086,0.9742,0.9523,0.9299,0.9004,0.8663,0.8775,0.9448,0.9599,0.997,1.064,1.0789,1.0789,1.0789,1.064,1.049,1.0415,0.0,0.0,1.1186,1.1186,1.1632,1.2305,1.2305,1.2305,1.2298,1.2224,1.215,1.2144,0.0,0.0,0.0,0.0,0.0,0.0,0.0,0.0,0.0,0.0,0.0,0.0,0.0,0.0,0.0,0.0,0.0,0.0,0.0,0.0,0.0,0.0,0.0,0.0,0.0,0.0,0.0,0.0,0.0,0.0,0.0,0.0,0.0,0.0,0.0,0.0,0.0,0.0,0.0,0.0,0.0,0.0,0.0,0.0,0.0,0.0,0.0,0.0,0.0,0.0,1.2879,1.2434,1.2504,1.2724,1.3131,1.3774,1.3863,1.3749,1.4264,1.4248,1.4124,1.3859,1.3566,1.3197,1.3098,1.2506,0.0,0.0,0.0,1.2258,1.2524,1.2092,0.0,1.2056,0.0,0.0,0.0,0.0,1.0979,0.0,0.0,0.0,0.0,0.0,0.0,0.0,0.0,0.0,1.1727,1.1473,1.1134,1.0481,1.0385,1.034,1.0265,1.095,1.1329,1.1477,1.215,1.2445,1.2445,1.2445,1.207,1.1403,0.0,0.0,1.1558,1.1409,1.1855,1.2526,1.2378,1.2305,1.2372,1.2799,1.3091,1.331,0.0,0.0,0.0,0.0,0.0,0.0,0.0,0.0,0.0,0.0,0.0,0.0,0.0,0.0,0.0,0.0,0.0,0.0,0.0,0.0,0.0,0.0,0.0,0.0,0.0,0.0,0.0,0.0,0.0,0.0,0.0,0.0,0.0,0.0,0.0,0.0,0.0,0.0,0.0,0.0,0.0,0.0,0.0,0.0,0.0,0.0,0.0,0.0,0.0,0.0,1.3969,1.3755,1.2919,1.3187,1.3981,1.4467,1.4785,1.5021,1.5402,1.5438,1.5273,1.505,1.4613,1.4108,1.3932,0.0,0.0,0.0,0.0,1.3454,1.3665,0.0,0.0,0.0,0.0,0.0,0.0,0.0,0.0,0.0,0.0,0.0,0.0,0.0,0.0,0.0,0.0,0.0,1.2257,1.1988,1.1504,1.0962,1.095,1.1099,1.1391,1.1848,1.2231,1.2673,1.3046,1.32,1.32,1.3119,1.2826,1.2452,1.2378,0.0,1.2305,1.2077,1.2317,1.2757,1.2607,1.2825,1.3191,1.3482,1.3741,1.4106,0.0,0.0,0.0,0.0,0.0,0.0,0.0,0.0,0.0,0.0,0.0,0.0,0.0,0.0,0.0,0.0,0.0,0.0,0.0,0.0,0.0,0.0,0.0,0.0,0.0,0.0,0.0,0.0,0.0,0.0,0.0,0.0,0.0,0.0,0.0,0.0,0.0,0.0,0.0,0.0,0.0,0.0,0.0,0.0,0.0,0.0,0.0,0.0,0.0,0.0,1.5081,1.5022,1.3693,1.3973,1.4853,1.5092,1.5584,1.6062,1.6331,1.6476,1.6423,1.6011,1.5584,1.5198,1.4866,1.4428,0.0,0.0,1.4467,1.459,1.4768,0.0,0.0,0.0,0.0,0.0,0.0,0.0,0.0,0.0,0.0,0.0,0.0,0.0,0.0,0.0,0.0,0.0,1.3107,1.2537,1.2099,1.187,1.1806,1.2003,1.2599,1.2599,1.29,1.3492,1.3492,1.3492,1.3492,1.3346,1.3382,1.366,1.3506,0.0,0.0,1.3593,1.3546,1.3636,1.3485,1.3737,1.4193,1.4342,1.4613,1.4958,0.0,0.0,0.0,0.0,0.0,0.0,0.0,0.0,0.0,0.0,0.0,0.0,0.0,0.0,0.0,0.0,0.0,0.0,0.0,0.0,0.0,0.0,0.0,0.0,0.0,0.0,0.0,0.0,0.0,0.0,0.0,0.0,0.0,0.0,0.0,0.0,0.0,0.0,0.0,0.0,0.0,0.0,0.0,0.0,0.0,0.0,0.0,0.0,0.0,0.0,0.0,1.5814,1.4952,1.5059,1.5451,1.5707,0.0,0.0,1.6406,1.6635,1.6622,1.5986,1.5568,1.5461,1.5721,0.0,0.0,0.0,1.5767,1.5274,1.5304,1.5116,0.0,0.0,0.0,0.0,0.0,0.0,0.0,0.0,0.0,0.0,0.0,0.0,0.0,0.0,0.0,0.0,0.0,1.4396,1.4005,1.4283,1.399,1.3775,1.3645,1.3645,1.3645,1.3492,1.3492,1.3492,1.3492,1.3499,1.4094,1.5118,0.0,0.0,0.0,1.6447,1.6113,1.5781,1.5618,1.5348,1.5141,1.5859,1.6123,1.6237,0.0,0.0,0.0,0.0,0.0,0.0,0.0,0.0,0.0,0.0,0.0,0.0,0.0,0.0,0.0,0.0,0.0,0.0,0.0,0.0,0.0,0.0,0.0,0.0,0.0,0.0,0.0,0.0,0.0,0.0,0.0,0.0,0.0,0.0,0.0,0.0,0.0,0.0,0.0,0.0,0.0,0.0,0.0,0.0,0.0,0.0,0.0,0.0,0.0,0.0,0.0,0.0,1.6542,1.6457,0.0,0.0,1.6928,1.7718,1.7787,1.8098,1.8172,1.7648,1.7106,1.6606,1.6544,0.0,0.0,1.6579,1.6711,1.6694,1.6919,1.6839,1.6823,0.0,0.0,0.0,0.0,0.0,0.0,0.0,0.0,0.0,0.0,0.0,0.0,0.0,0.0,0.0,0.0,1.5226,1.4579,1.4636,1.4233,1.4065,1.3992,1.3992,1.392,1.3848,1.4201,1.4137,1.3717,1.4617,1.517,1.552,0.0,0.0,0.0,1.6811,1.6569,1.6276,1.6049,1.6101,1.634,1.6634,1.6863,1.7097,0.0,0.0,0.0,0.0,0.0,0.0,0.0,0.0,0.0,0.0,0.0,0.0,0.0,0.0,0.0,0.0,0.0,0.0,0.0,0.0,0.0,0.0,0.0,0.0,0.0,0.0,0.0,0.0,0.0,0.0,0.0,0.0,0.0,0.0,0.0,0.0,0.0,0.0,0.0,0.0,0.0,0.0,0.0,0.0,0.0,0.0,0.0,0.0,0.0,0.0,0.0,0.0,0.0,0.0,0.0,0.0,1.7505,1.8357,1.8432,1.865,1.8861,1.8458,1.7904,1.7467,0.0,0.0,1.6767,1.7357,1.7509,1.7735,1.8132,1.8201,1.8201,0.0,0.0,0.0,0.0,0.0,0.0,0.0,0.0,0.0,0.0,0.0,0.0,0.0,0.0,0.0,0.0,1.6434,1.56,1.494,1.4506,1.4201,1.4201,1.441,1.4482,1.4418,1.5046,1.5046,1.4561,1.5596,1.6156,1.6383,0.0,0.0,0.0,1.7843,1.7597,1.7234,1.7207,1.7324,1.7407,1.7407,1.7599,1.7803,0.0,0.0,0.0,0.0,0.0,0.0,0.0,0.0,0.0,0.0,0.0,0.0,0.0,0.0,0.0,0.0,0.0,0.0,0.0,0.0,0.0,0.0,0.0,0.0,0.0,0.0,0.0,0.0,0.0,0.0,0.0,0.0,0.0,0.0,0.0,0.0,0.0,0.0,0.0,0.0,0.0,0.0,0.0,0.0,0.0,0.0,0.0,0.0,0.0,0.0,0.0,0.0,0.0,0.0,0.0,0.0,1.7483,1.7585,1.7747,1.7971,1.8036,1.7614,1.7504,1.7495,0.0,0.0,1.7724,1.854,1.8398,1.8213,1.8621,1.87,1.87,1.87,1.8451,0.0,0.0,0.0,0.0,0.0,0.0,0.0,0.0,0.0,0.0,0.0,0.0,0.0,0.0,1.8485,1.745,1.5742,1.4998,1.4497,1.4425,1.5117,1.5401,1.5204,1.5956,1.6306,1.6298,1.6298,1.6942,0.0,0.0,0.0,0.0,2.0266,1.9935,1.9194,1.9706,1.9274,1.8482,1.8482,1.8492,1.8607,0.0,0.0,0.0,0.0,0.0,0.0,0.0,0.0,0.0,0.0,0.0,0.0,0.0,0.0,0.0,0.0,0.0,0.0,0.0,0.0,0.0,0.0,0.0,0.0,0.0,0.0,0.0,0.0,0.0,0.0,0.0,0.0,0.0,0.0,0.0,0.0,0.0,0.0,0.0,0.0,0.0,0.0,0.0,0.0,0.0,0.0,0.0,0.0,0.0,0.0,0.0,0.0,0.0,0.0,0.0,0.0,0.0,0.0,1.8014,1.8253,1.8396,1.8037,1.7924,1.7859,1.7586,0.0,1.7671,1.8216,1.8109,1.81,1.8797,1.8761,1.8674,1.8674,1.8643,0.0,0.0,0.0,0.0,0.0,0.0,0.0,0.0,0.0,0.0,0.0,0.0,0.0,0.0,1.8939,1.8258,1.7665,1.6571,1.6035,1.621,1.6422,1.6493,1.6498,1.7399,1.753,1.6904,1.7891,0.0,0.0,0.0,0.0,0.0,2.0042,1.9887,1.9758,1.9582,1.9344,1.9085,1.9085,1.9253,1.9617,0.0,0.0,0.0,0.0,0.0,0.0,0.0,0.0,0.0,0.0,0.0,0.0,0.0,0.0,0.0,0.0,0.0,0.0,0.0,0.0,0.0,0.0,0.0,0.0,0.0,0.0,0.0,0.0,0.0,0.0,0.0,0.0,0.0,0.0,0.0,0.0,0.0,0.0,0.0,0.0,0.0,0.0,0.0,0.0,0.0,0.0,0.0,0.0,0.0,0.0,0.0,0.0,0.0,0.0,0.0,0.0,0.0,0.0,0.0,1.8242,1.819,1.7915,1.7849,0.0,0.0,0.0,0.0,1.8725,1.8942,1.9134,1.985,2.0029,2.0051,2.0051,1.9832,0.0,0.0,0.0,0.0,0.0,0.0,0.0,0.0,0.0,0.0,0.0,0.0,0.0,0.0,0.0,1.9663,1.9735,1.791,1.7001,1.7179,1.7451,1.759,1.7668,1.8566,1.8624,1.8075,1.8988,0.0,0.0,0.0,0.0,0.0,2.0278,2.0329,2.0468,2.0167,2.0074,2.0172,2.0172,2.0409,2.0696,0.0,0.0,0.0,0.0,0.0,0.0,0.0,0.0,0.0,0.0,0.0,0.0,0.0,0.0,0.0,0.0,0.0,0.0,0.0,0.0,0.0,0.0,0.0,0.0,0.0,0.0,0.0,0.0,0.0,0.0,0.0,0.0,0.0,0.0,0.0,0.0,0.0,0.0,0.0,0.0,0.0,0.0,0.0,0.0,0.0,0.0,0.0,0.0,0.0,0.0,0.0,0.0,0.0,0.0,0.0,0.0,0.0,0.0,0.0,0.0,0.0,0.0,0.0,0.0,0.0,0.0,0.0,0.0,0.0,2.0966,2.1415,2.1861,2.2232,2.2275,2.1607,0.0,0.0,0.0,0.0,0.0,0.0,0.0,0.0,0.0,0.0,0.0,0.0,0.0,0.0,0.0,2.1522,2.1662,1.9089,1.7609,1.7609,1.8259,1.8607,1.8643,1.9362,1.9703,1.9615,1.9671,0.0,0.0,0.0,0.0,0.0,2.0893,2.113,2.1396,2.1363,2.1514,2.1678,2.1678,2.1741,2.1854,0.0,0.0,0.0,0.0,0.0,0.0,0.0,0.0,0.0,0.0,0.0,0.0,0.0,0.0,0.0,0.0,0.0,0.0,0.0,0.0,0.0,0.0,0.0,0.0,0.0,0.0,0.0,0.0,0.0,0.0,0.0,0.0,0.0,0.0,0.0,0.0,0.0,0.0,0.0,0.0,0.0,0.0,0.0,0.0,0.0,0.0,2.1101,0.0,0.0,0.0,0.0,0.0,0.0,0.0,0.0,0.0,0.0,0.0,0.0,0.0,0.0,0.0,0.0,0.0,0.0,0.0,0.0,0.0,0.0,0.0,0.0,0.0,0.0,0.0,0.0,0.0,0.0,0.0,0.0,0.0,0.0,0.0,0.0,0.0,0.0,0.0,0.0,0.0,0.0,0.0,2.24,2.2411,2.1073,1.9966,1.932,1.9666,1.98,1.9594,2.0356,2.0478,2.0009,2.0259,0.0,0.0,0.0,0.0,2.1932,2.1407,2.1735,2.2409,2.2186,2.2209,2.2347,2.2347,2.2834,2.342,0.0,0.0,0.0,0.0,0.0,0.0,0.0,0.0,0.0,0.0,0.0,0.0,0.0,0.0,0.0,0.0,0.0,0.0,0.0,0.0,0.0,0.0,0.0,0.0,0.0,0.0,0.0,0.0,0.0,0.0,0.0,0.0,0.0,0.0,0.0,0.0,0.0,0.0,0.0,0.0,0.0,0.0,0.0,0.0,0.0,0.0,2.2075,2.1939,0.0,2.2013,2.1628,2.1101,0.0,0.0,0.0,0.0,2.2672,0.0,0.0,0.0,0.0,0.0,0.0,0.0,0.0,0.0,0.0,0.0,0.0,0.0,0.0,0.0,0.0,0.0,0.0,0.0,0.0,0.0,0.0,0.0,0.0,0.0,0.0,0.0,0.0,0.0,0.0,0.0,0.0,0.0,2.2329,2.2329,2.1571,2.0967,2.0518,2.0632,2.0742,2.084,2.1229,2.1284,2.0906,2.135,0.0,0.0,0.0,0.0,2.2823,2.2408,2.2783,2.3629,2.3203,2.3408,2.3878,2.3878,2.4341,2.491,0.0,0.0,0.0,0.0,0.0,0.0,0.0,0.0,0.0,0.0,0.0,0.0,0.0,0.0,0.0,0.0,0.0,0.0,0.0,0.0,0.0,0.0,0.0,0.0,0.0,0.0,0.0,0.0,0.0,0.0,0.0,0.0,0.0,0.0,0.0,0.0,0.0,0.0,0.0,0.0,0.0,0.0,0.0,0.0,0.0,0.0,0.0,0.0,0.0,2.28,2.2334,2.1951,2.2641,0.0,0.0,0.0,0.0,0.0,0.0,0.0,0.0,0.0,0.0,0.0,0.0,0.0,0.0,0.0,0.0,0.0,0.0,0.0,0.0,0.0,0.0,0.0,0.0,0.0,0.0,0.0,0.0,0.0,0.0,0.0,0.0,0.0,0.0,0.0,0.0,0.0,0.0,2.224,2.1725,2.1474,2.1526,2.1429,2.1608,2.2132,2.2078,2.2132,2.2303,2.2619,0.0,0.0,0.0,0.0,2.3666,2.3604,2.4096,2.4853,2.4437,2.4824,2.5563,2.5605,2.5918,2.6332,0.0,0.0,0.0,0.0,0.0,0.0,0.0,0.0,0.0,0.0,0.0,0.0,0.0,0.0,0.0,0.0,0.0,0.0,0.0,0.0,0.0,0.0,0.0,0.0,0.0,0.0,0.0,0.0,0.0,0.0,0.0,0.0,0.0,0.0,0.0,0.0,0.0,0.0,0.0,0.0,0.0,0.0,0.0,0.0,0.0,0.0,0.0,0.0,0.0,2.3078,2.2944,2.2971,2.3393,0.0,0.0,0.0,0.0,0.0,0.0,0.0,0.0,0.0,0.0,0.0,0.0,0.0,0.0,0.0,0.0,0.0,0.0,0.0,0.0,0.0,0.0,0.0,0.0,0.0,0.0,0.0,0.0,0.0,0.0,0.0,0.0,0.0,0.0,0.0,0.0,0.0,0.0,2.367,2.288,2.2641,2.2955,2.2531,2.2538,2.305,2.2738,2.3074,2.4024,2.3328,2.3509,0.0,0.0,2.4717,2.5326,2.5016,2.5143,2.555,2.5578,2.592,2.6336,2.6515,2.7034,2.7685,0.0,0.0,0.0,0.0,0.0,0.0,0.0,0.0,0.0,0.0,0.0,0.0,0.0,0.0,0.0,0.0,0.0,0.0,0.0,0.0,0.0,0.0,0.0,0.0,0.0,0.0,0.0,0.0,0.0,0.0,0.0,0.0,0.0,0.0,0.0,0.0,0.0,0.0,0.0,0.0,0.0,0.0,0.0,0.0,0.0,0.0,0.0,0.0,0.0,0.0,2.3078,2.3178,2.3679,0.0,0.0,0.0,0.0,0.0,2.5541,2.4927,0.0,0.0,0.0,0.0,0.0,0.0,0.0,0.0,0.0,0.0,0.0,0.0,0.0,0.0,0.0,0.0,0.0,0.0,0.0,0.0,0.0,0.0,0.0,0.0,0.0,0.0,0.0,0.0,0.0,0.0,0.0,0.0,2.3893,2.3728,2.3949,2.3981,2.4278,2.4857,2.4353,2.4538,2.5371,2.4892,2.4776,2.4993,0.0,2.5481,2.5784,2.5715,2.5865,2.619,2.6625,2.6975,2.7348,2.8066,2.8623,2.913,0.0,0.0,0.0,0.0,0.0,0.0,0.0,0.0,0.0,0.0,0.0,0.0,0.0,0.0,0.0,0.0,0.0,0.0,0.0,0.0,0.0,0.0,0.0,0.0,0.0,0.0,0.0,0.0,0.0,0.0,0.0,0.0,0.0,0.0,0.0,0.0,0.0,0.0,0.0,0.0,0.0,0.0,0.0,0.0,0.0,0.0,0.0,0.0,0.0,0.0,0.0,0.0,0.0,0.0,0.0,0.0,0.0,2.6245,2.5889,2.516,0.0,0.0,0.0,0.0,0.0,0.0,0.0,0.0,0.0,0.0,0.0,0.0,0.0,0.0,0.0,0.0,0.0,0.0,0.0,0.0,0.0,0.0,0.0,0.0,0.0,0.0,0.0,0.0,0.0,0.0,0.0,0.0,2.465,2.4697,2.4854,2.5256,2.5851,2.6506,2.5761,2.5907,2.6794,2.6304,2.5952,2.5673,2.6096,2.6272,2.6272,2.6379,2.6616,2.7004,2.754,2.8066,2.8576,2.9553,3.0117,3.046,0.0,0.0,0.0,0.0,0.0,0.0,0.0,0.0,0.0,0.0,0.0,0.0,0.0,0.0,0.0,0.0,0.0,0.0,0.0,0.0,0.0,0.0,0.0,0.0,0.0,0.0,0.0,0.0,0.0,0.0,0.0,0.0,0.0,0.0,0.0,0.0,0.0,0.0,0.0,0.0,0.0,0.0,0.0,0.0,0.0,0.0,0.0,0.0,0.0,0.0,0.0,0.0,0.0,0.0,0.0,0.0,0.0,2.6339,2.5799,2.5181,0.0,0.0,0.0,0.0,0.0,0.0,0.0,0.0,0.0,0.0,0.0,0.0,0.0,0.0,0.0,0.0,0.0,0.0,0.0,0.0,0.0,0.0,0.0,0.0,0.0,0.0,0.0,0.0,0.0,0.0,0.0,0.0,0.0,2.5273,2.5903,2.5974,2.6497,2.7371,2.6208,2.6715,2.8623,2.7035,2.6553,2.7063,2.7233,2.7299,2.7284,2.7423,2.7745,2.8192,2.8275,2.9023,3.0093,3.069,3.1083,3.1466,0.0,0.0,0.0,0.0,0.0,0.0,0.0,0.0,0.0,0.0,0.0,0.0,0.0,0.0,0.0,0.0,0.0,0.0,0.0,0.0,0.0,0.0,0.0,0.0,0.0,0.0,0.0,0.0,0.0,0.0,0.0,0.0,0.0,0.0,0.0,0.0,0.0,0.0,0.0,0.0,0.0,0.0,0.0,0.0,0.0,0.0,0.0,0.0,0.0,0.0,0.0,0.0,0.0,0.0,0.0,0.0,0.0,2.6483,2.6189,2.5552,0.0,0.0,0.0,0.0,0.0,0.0,0.0,0.0,0.0,0.0,0.0,0.0,0.0,0.0,0.0,0.0,0.0,0.0,0.0,0.0,0.0,0.0,0.0,0.0,0.0,0.0,0.0,0.0,0.0,0.0,0.0,0.0,0.0,2.651,2.6759,2.6826,2.7263,2.7998,2.7144,2.735,2.837,2.7743,2.7565,2.7765,2.8143,2.8143,2.7978,2.8432,2.856,2.8591,2.9416,3.0377,3.1206,3.1411,3.1765,3.2144,0.0,0.0,0.0,0.0,0.0,0.0,0.0,0.0,0.0,0.0,0.0,0.0,0.0,0.0,0.0,0.0,0.0,0.0,0.0,0.0,0.0,0.0,0.0,0.0,0.0,0.0,0.0,0.0,0.0,0.0,0.0,0.0,0.0,0.0,0.0,0.0,0.0,0.0,0.0,0.0,0.0,0.0,0.0,0.0,0.0,0.0,0.0,0.0,0.0,0.0,0.0,0.0,0.0,0.0,0.0,0.0,0.0,0.0,2.646,2.5884,0.0,0.0,0.0,0.0,0.0,0.0,0.0,0.0,0.0,0.0,0.0,0.0,0.0,0.0,0.0,0.0,0.0,0.0,0.0,0.0,0.0,0.0,0.0,0.0,0.0,0.0,0.0,0.0,0.0,0.0,0.0,0.0,0.0,0.0,2.7645,2.771,2.8072,2.8652,2.8324,2.8278,2.8487,2.8381,2.8384,2.8544,2.8903,2.8949,2.8795,2.9284,2.9448,2.9504,3.0558,3.1376,3.1965,3.2001,3.2266,3.2606,0.0,0.0,0.0,0.0,0.0,0.0,0.0,0.0,0.0,0.0,0.0,0.0,0.0,0.0,0.0,0.0,0.0,0.0,0.0,0.0,0.0,0.0,0.0,0.0,0.0,0.0,0.0,0.0,0.0,0.0,0.0,0.0,0.0,0.0,0.0,0.0,0.0,0.0,0.0,0.0,0.0,0.0,0.0,0.0,0.0,0.0,0.0,0.0,0.0,0.0,0.0,0.0,0.0,0.0,0.0,0.0,2.7508,2.6878,2.6258,0.0,0.0,0.0,0.0,0.0,0.0,0.0,0.0,0.0,0.0,0.0,0.0,0.0,0.0,0.0,0.0,0.0,0.0,0.0,0.0,0.0,0.0,0.0,0.0,0.0,0.0,0.0,0.0,0.0,0.0,0.0,0.0,0.0,0.0,0.0,2.8685,2.8559,2.8841,2.9504,2.9625,2.9589,2.9391,2.8934,2.895,2.9406,2.9657,2.9729,2.9729,2.9989,3.0493,3.1167,3.1617,3.202,3.2318,3.2456,3.2621,3.2827,0.0,0.0,0.0,0.0,0.0,0.0,0.0,0.0,0.0,0.0,0.0,0.0,0.0,0.0,0.0,0.0,0.0,0.0,0.0,0.0,0.0,0.0,0.0,0.0,0.0,0.0,0.0,0.0,0.0,0.0,0.0,0.0,0.0,0.0,0.0,0.0,0.0,0.0,0.0,0.0,0.0,0.0,0.0,0.0,0.0,0.0,0.0,0.0,0.0,0.0,0.0,0.0,0.0,0.0,0.0,0.0,2.8561,2.8266,2.7593,0.0,0.0,0.0,0.0,0.0,0.0,0.0,0.0,0.0,0.0,0.0,0.0,0.0,0.0,0.0,0.0,0.0,0.0,0.0,0.0,0.0,0.0,0.0,0.0,0.0,0.0,0.0,0.0,0.0,0.0,0.0,0.0,0.0,0.0,0.0,2.8685,2.9088,2.939,2.9625,2.9772,2.9694,2.9464,2.987,3.0031,3.0159,3.0714,3.0788,3.0485,3.0714,3.1227,3.1896,3.2197,3.2404,3.2603,3.2784,3.2943,3.3111,0.0,0.0,0.0,0.0,0.0,0.0,0.0,0.0,0.0,0.0,0.0,0.0,0.0,0.0,0.0,0.0,0.0,0.0,0.0,0.0,0.0,0.0,0.0,0.0,0.0,0.0,0.0,0.0,0.0,0.0,0.0,0.0,0.0,0.0,0.0,0.0,0.0,0.0,0.0,0.0,0.0,0.0,0.0,0.0,0.0,0.0,0.0,0.0,0.0,0.0,0.0,0.0,0.0,0.0,0.0,2.8919,2.9031,2.8647,0.0,0.0,0.0,0.0,0.0,0.0,0.0,0.0,0.0,0.0,0.0,0.0,0.0,0.0,0.0,0.0,0.0,0.0,0.0,0.0,0.0,0.0,0.0,0.0,0.0,0.0,0.0,0.0,0.0,0.0,0.0,0.0,0.0,0.0,0.0,0.0,2.9524,2.9876,3.0218,3.0468,3.0551,3.0534,3.0435,3.0633,3.0771,3.0931,3.1432,3.1524,3.1317,3.1511,3.186,3.2335,3.2521,3.2798,3.3075,3.3129,3.3408,3.3715,0.0,0.0,0.0,0.0,0.0,0.0,0.0,0.0,0.0,0.0,0.0,0.0,0.0,0.0,0.0,0.0,0.0,0.0,0.0,0.0,0.0,0.0,0.0,0.0,0.0,0.0,0.0,0.0,0.0,0.0,0.0,0.0,0.0,0.0,0.0,0.0,0.0,0.0,0.0,0.0,0.0,0.0,0.0,0.0,0.0,0.0,0.0,0.0,0.0,0.0,0.0,0.0,0.0,0.0,0.0,2.9522,2.926,0.0,0.0,0.0,0.0,0.0,0.0,0.0,0.0,0.0,0.0,0.0,0.0,0.0,0.0,0.0,0.0,0.0,0.0,0.0,0.0,0.0,0.0,0.0,0.0,0.0,0.0,0.0,0.0,0.0,0.0,0.0,0.0,0.0,0.0,0.0,0.0,0.0,3.0788,3.0845,3.1123,0.0,3.1617,3.1709,3.18,3.1244,3.1244,3.1654,3.1858,3.202,3.2144,3.2283,3.242,3.2606,3.2813,3.3207,3.3634,3.3512,3.3935,3.4486,0.0,0.0,0.0,0.0,0.0,0.0,0.0,0.0,0.0,0.0,0.0,0.0,0.0,0.0,0.0,0.0,0.0,0.0,0.0,0.0,0.0,0.0,0.0,0.0,0.0,0.0,0.0,0.0,0.0,0.0,0.0,0.0,0.0,0.0,0.0,0.0,0.0,0.0,0.0,0.0,0.0,0.0,0.0,0.0,0.0,0.0,0.0,0.0,0.0,0.0,0.0,0.0,3.0253,3.0291,3.0193,3.0877,3.0594,0.0,0.0,0.0,0.0,0.0,0.0,0.0,0.0,0.0,0.0,0.0,0.0,0.0,0.0,0.0,0.0,0.0,0.0,0.0,0.0,0.0,0.0,0.0,0.0,0.0,0.0,0.0,0.0,0.0,0.0,0.0,0.0,0.0,0.0,0.0,0.0,3.0584,3.0804,3.1157,3.15,0.0,3.1746,3.1856,3.2037,3.1785,3.1821,3.2073,3.2179,3.2318,3.2506,3.257,3.2921,3.3372,3.3411,3.3723,3.4152,3.4171,3.4311,3.4508,0.0,0.0,0.0,0.0,0.0,0.0,0.0,0.0,0.0,0.0,0.0,0.0,0.0,0.0,0.0,0.0,0.0,0.0,0.0,0.0,0.0,0.0,0.0,0.0,0.0,0.0,0.0,0.0,0.0,0.0,0.0,0.0,0.0,0.0,0.0,0.0,0.0,0.0,0.0,0.0,0.0,0.0,0.0,0.0,0.0,0.0,0.0,0.0,0.0,0.0,0.0,0.0,0.0,0.0,3.0567,3.0941,0.0,0.0,0.0,0.0,0.0,0.0,0.0,0.0,0.0,0.0,0.0,0.0,0.0,0.0,0.0,0.0,0.0,0.0,0.0,0.0,0.0,0.0,0.0,0.0,0.0,0.0,0.0,0.0,0.0,0.0,0.0,0.0,0.0,0.0,0.0,0.0,3.0754,3.1067,3.13,3.1617,3.1837,3.1929,3.1929,3.2126,3.2454,3.2144,3.2161,3.2404,3.2438,3.2619,3.2947,3.3087,3.3393,3.3854,3.3956,3.42,3.4529,3.4508,3.4656,3.4888,0.0,0.0,0.0,0.0,0.0,0.0,0.0,0.0,0.0,0.0,0.0,0.0,0.0,0.0,0.0,0.0,0.0,0.0,0.0,0.0,0.0,0.0,0.0,0.0,0.0,0.0,0.0,0.0,0.0,0.0,0.0,0.0,0.0,0.0,0.0,0.0,0.0,0.0,0.0,0.0,0.0,0.0,0.0,0.0,0.0,0.0,0.0,0.0,0.0,3.1841,0.0,0.0,0.0,0.0,3.0743,0.0,0.0,0.0,0.0,0.0,0.0,0.0,0.0,0.0,0.0,0.0,0.0,0.0,0.0,0.0,0.0,0.0,0.0,0.0,0.0,0.0,0.0,0.0,0.0,0.0,0.0,0.0,0.0,0.0,0.0,0.0,0.0,0.0,0.0,0.0,3.0616,3.1072,3.1189,3.149,3.1948,3.2073,3.2161,3.2232,3.2283,3.257,3.2921,3.2586,3.2537,3.2719,3.2784,3.2996,3.3395,3.3625,3.3906,3.4242,3.4401,3.4653,3.487,3.4754,3.498,3.53,0.0,0.0,0.0,0.0,0.0,0.0,0.0,0.0,0.0,0.0,0.0,0.0,0.0,0.0,0.0,0.0,0.0,0.0,0.0,0.0,0.0,0.0,0.0,0.0,0.0,0.0,0.0,0.0,0.0,0.0,0.0,0.0,0.0,0.0,0.0,0.0,0.0,0.0,0.0,0.0,0.0,0.0,0.0,0.0,0.0,0.0,0.0,0.0,0.0,0.0,0.0,0.0,0.0,0.0,0.0,0.0,0.0,0.0,0.0,0.0,0.0,0.0,0.0,0.0,0.0,0.0,0.0,0.0,0.0,0.0,0.0,0.0,0.0,0.0,0.0,0.0,0.0,0.0,0.0,0.0,0.0,0.0,0.0,0.0,0.0,0.0,0.0,0.0,0.0,3.1582,3.1694,3.1768,3.1912,3.1984,3.2073,3.2197,3.2403,3.2716,3.3136,3.3343,3.34,3.3423,3.3356,3.3232,3.34,3.3533,3.367,3.4056,3.4401,3.4694,3.4733,3.4945,3.5245,3.5209,3.5273,3.5379,0.0,0.0,0.0,0.0,0.0,0.0,0.0,0.0,0.0,0.0,0.0,0.0,0.0,0.0,0.0,0.0,0.0,0.0,0.0,0.0,0.0,0.0,0.0,0.0,0.0,0.0,0.0,0.0,0.0,0.0,0.0,3.1133,3.0933,0.0,0.0,0.0,0.0,0.0,0.0,0.0,0.0,0.0,0.0,0.0,0.0,0.0,0.0,0.0,0.0,0.0,0.0,0.0,0.0,0.0,0.0,0.0,0.0,0.0,0.0,0.0,0.0,0.0,0.0,0.0,0.0,0.0,0.0,0.0,0.0,0.0,0.0,0.0,0.0,0.0,0.0,0.0,0.0,0.0,0.0,0.0,0.0,0.0,0.0,0.0,0.0,0.0,0.0,0.0,3.1839,3.1894,3.193,3.202,3.2214,3.2318,3.2318,3.2636,3.3167,3.3888,3.4265,3.4687,3.5183,3.5377,3.48,3.3634,3.3802,3.4056,3.4334,3.4508,3.4774,3.5072,3.5072,3.5157,3.5304,3.5354,3.5383,3.5412,0.0,0.0,0.0,0.0,0.0,0.0,0.0,0.0,0.0,0.0,0.0,0.0,0.0,0.0,0.0,0.0,0.0,0.0,0.0,0.0,0.0,0.0,0.0,0.0,0.0,0.0,0.0,0.0,0.0,0.0,3.1341,3.1695,3.1537,0.0,3.227,0.0,0.0,0.0,0.0,0.0,0.0,0.0,0.0,0.0,0.0,0.0,0.0,0.0,0.0,0.0,0.0,0.0,0.0,0.0,0.0,0.0,0.0,0.0,0.0,0.0,0.0,0.0,0.0,0.0,0.0,0.0,0.0,0.0,0.0,0.0,0.0,0.0,0.0,0.0,0.0,0.0,0.0,0.0,0.0,0.0,0.0,0.0,0.0,0.0,0.0,0.0,0.0,0.0,3.2073,3.202,3.2055,3.2179,3.2422,3.2557,3.259,3.3093,3.3868,3.4908,3.5214,3.5838,3.6721,3.6929,3.6124,3.4498,3.4545,3.4677,3.4832,3.4908,3.5072,3.5308,3.5308,3.5304,3.533,3.5379,3.5412,3.5422,0.0,0.0,0.0,0.0,0.0,0.0,0.0,0.0,0.0,0.0,0.0,0.0,0.0,0.0,0.0,0.0,0.0,0.0,0.0,0.0,0.0,0.0,0.0,0.0,0.0,0.0,0.0,0.0,0.0,0.0,3.2205,3.1562,3.1224,3.1224,3.1864,3.2976,3.4395,0.0,0.0,0.0,0.0,0.0,0.0,0.0,0.0,0.0,0.0,0.0,0.0,0.0,0.0,0.0,0.0,0.0,0.0,0.0,0.0,0.0,0.0,0.0,0.0,0.0,0.0,0.0,0.0,0.0,0.0,0.0,0.0,0.0,0.0,0.0,0.0,0.0,0.0,0.0,0.0,0.0,0.0,0.0,0.0,0.0,0.0,0.0,0.0,0.0,0.0,0.0,3.2108,3.2144,3.2284,3.2456,3.2539,3.2672,3.2884,3.34,3.4252,3.5479,3.5726,3.6355,3.726,3.7348,3.6937,3.616,3.5986,3.5513,3.4906,3.5157,3.5273,3.53,3.53,3.535,3.5398,3.5398,3.5435,3.5502,0.0,0.0,0.0,0.0,0.0,0.0,0.0,0.0,0.0,0.0,0.0,0.0,0.0,0.0,0.0,0.0,0.0,0.0,0.0,0.0,0.0,0.0,0.0,0.0,0.0,0.0,0.0,0.0,0.0,3.3457,3.3,3.322,3.3305,3.3305,3.3043,3.3246,3.3863,3.481,0.0,0.0,0.0,0.0,0.0,0.0,0.0,0.0,0.0,0.0,0.0,0.0,0.0,0.0,0.0,0.0,0.0,0.0,0.0,0.0,0.0,0.0,0.0,0.0,0.0,0.0,0.0,0.0,0.0,0.0,0.0,0.0,0.0,0.0,0.0,0.0,0.0,0.0,0.0,0.0,0.0,0.0,0.0,0.0,0.0,0.0,0.0,0.0,0.0,0.0,3.2284,3.2488,3.257,3.2573,3.3045,3.3723,3.4559,3.4763,3.5727,3.7422,3.751,3.8052,3.8956,3.9083,3.8688,3.7909,3.7965,3.6915,3.5157,3.5261,3.5324,3.5364,3.5364,3.5412,3.546,3.5449,3.5489,3.5515,0.0,0.0,0.0,0.0,0.0,0.0,0.0,0.0,0.0,0.0,0.0,0.0,0.0,0.0,0.0,0.0,0.0,0.0,0.0,0.0,0.0,0.0,0.0,0.0,0.0,0.0,0.0,0.0,0.0,0.0,0.0,0.0,3.4134,3.4117,3.388,0.0,0.0,0.0,0.0,3.5622,0.0,0.0,3.5571,0.0,0.0,0.0,0.0,0.0,0.0,0.0,0.0,0.0,0.0,0.0,0.0,0.0,0.0,0.0,0.0,0.0,0.0,0.0,0.0,0.0,0.0,0.0,0.0,0.0,0.0,0.0,0.0,0.0,0.0,0.0,0.0,0.0,0.0,0.0,0.0,0.0,0.0,0.0,0.0,0.0,0.0,0.0,0.0,0.0,3.2539,3.2749,3.3015,3.3378,3.3925,3.4763,3.5987,3.5987,3.6864,3.8572,3.8572,3.9072,3.9954,4.0077,3.968,3.8899,3.9045,3.7833,3.5729,3.5764,3.5648,3.5457,3.5441,3.5468,3.5534,3.5515,3.5502,3.5531,0.0,0.0,0.0,0.0,0.0,0.0,0.0,0.0,0.0,0.0,0.0,0.0,0.0,0.0,0.0,0.0,0.0,0.0,0.0,0.0,0.0,0.0,0.0,0.0,0.0,0.0,0.0,0.0,0.0,0.0,0.0,0.0,3.3474,0.0,3.4201,3.4928,3.5571,0.0,3.4945,3.5622,0.0,3.5728,3.547,0.0,0.0,0.0,3.2751,3.2519,0.0,0.0,0.0,0.0,0.0,0.0,0.0,0.0,0.0,0.0,0.0,0.0,0.0,0.0,0.0,0.0,0.0,0.0,0.0,0.0,0.0,0.0,0.0,0.0,0.0,0.0,0.0,0.0,0.0,0.0,0.0,0.0,0.0,0.0,0.0,0.0,0.0,0.0,0.0,3.2539,3.2903,3.2952,3.3587,3.4945,3.5172,3.5813,3.6996,3.7033,3.7627,3.8738,3.8738,3.9216,4.0117,4.0176,3.9814,3.9138,3.9133,3.8191,3.6654,3.6684,3.6273,3.5635,3.5554,3.554,3.5607,3.5534,3.5546,3.5621,0.0,0.0,0.0,0.0,0.0,0.0,0.0,0.0,0.0,0.0,0.0,0.0,0.0,0.0,0.0,0.0,0.0,0.0,0.0,0.0,0.0,0.0,0.0,0.0,0.0,0.0,0.0,0.0,0.0,0.0,0.0,0.0,0.0,0.0,3.5216,3.5419,3.5605,3.5402,0.0,0.0,3.5622,3.5667,0.0,0.0,0.0,0.0,0.0,3.3048,0.0,0.0,3.3601,3.4165,0.0,0.0,0.0,0.0,0.0,0.0,3.5694,0.0,0.0,0.0,0.0,0.0,0.0,0.0,0.0,0.0,0.0,0.0,0.0,0.0,0.0,0.0,0.0,0.0,0.0,0.0,0.0,0.0,0.0,0.0,0.0,0.0,0.0,0.0,3.2669,3.2876,3.3105,3.3946,3.4565,3.4854,3.5928,3.6752,3.7286,3.791,3.8734,3.9715,3.9755,3.9948,4.0252,4.0308,4.0229,4.0034,4.0104,3.9185,3.7648,3.7025,3.669,3.6488,3.5873,3.5668,3.5674,3.571,3.5725,3.5755,0.0,0.0,0.0,0.0,0.0,0.0,0.0,0.0,0.0,0.0,0.0,0.0,0.0,0.0,0.0,0.0,0.0,0.0,0.0,0.0,0.0,0.0,0.0,0.0,0.0,0.0,0.0,0.0,0.0,0.0,0.0,0.0,0.0,0.0,0.0,0.0,0.0,0.0,0.0,0.0,3.546,0.0,0.0,3.5249,3.4652,0.0,0.0,0.0,3.2757,3.3105,3.3688,0.0,3.4854,0.0,0.0,0.0,0.0,0.0,0.0,0.0,0.0,0.0,0.0,0.0,0.0,3.1859,0.0,0.0,0.0,0.0,0.0,0.0,0.0,0.0,0.0,0.0,0.0,0.0,0.0,0.0,0.0,0.0,0.0,0.0,0.0,0.0,3.2921,3.3196,3.356,3.443,3.5212,3.5826,3.671,3.7605,3.8514,3.9026,3.9581,4.0176,4.0234,4.0272,4.0307,4.0362,4.0415,4.0449,4.0479,4.001,3.909,3.7912,3.7055,3.6442,3.5893,3.5735,3.5781,3.5807,3.5825,3.5846,0.0,0.0,0.0,0.0,0.0,0.0,0.0,0.0,0.0,0.0,0.0,0.0,0.0,0.0,0.0,0.0,0.0,0.0,0.0,0.0,0.0,3.574,3.5673,3.5622,0.0,0.0,0.0,0.0,0.0,0.0,0.0,0.0,0.0,0.0,0.0,0.0,0.0,0.0,0.0,3.581,3.5326,3.5505,0.0,0.0,3.4477,0.0,3.4277,3.3579,3.3046,3.3727,3.4347,3.4799,3.5001,3.5501,0.0,0.0,3.6199,0.0,0.0,0.0,0.0,0.0,0.0,0.0,3.3333,3.3012,3.2737,0.0,0.0,0.0,0.0,0.0,0.0,0.0,0.0,0.0,0.0,0.0,0.0,0.0,0.0,0.0,0.0,0.0,3.2734,3.2934,3.3196,3.3606,3.4278,3.4786,3.5771,3.7286,3.7578,3.8439,3.9945,4.0059,4.0176,4.031,4.031,4.0309,4.0307,4.0379,4.0466,4.0515,4.0523,4.0544,4.0471,3.8937,3.7459,3.6156,3.5853,3.58,3.5899,3.5841,3.586,3.591,0.0,0.0,0.0,0.0,0.0,0.0,0.0,0.0,0.0,0.0,0.0,0.0,0.0,0.0,0.0,0.0,0.0,0.0,0.0,0.0,3.6552,3.6552,3.596,3.5622,3.5622,0.0,0.0,0.0,0.0,0.0,0.0,0.0,0.0,0.0,0.0,0.0,0.0,0.0,0.0,3.6122,3.5908,0.0,3.6148,3.5839,3.5486,3.5139,3.4984,3.445,3.3783,0.0,3.3231,3.3416,0.0,0.0,0.0,0.0,0.0,0.0,0.0,0.0,0.0,0.0,0.0,0.0,3.4657,3.4306,3.3688,0.0,0.0,0.0,0.0,0.0,0.0,0.0,0.0,0.0,0.0,0.0,0.0,0.0,0.0,0.0,0.0,0.0,3.2983,3.3284,3.3787,3.453,3.5566,3.6389,3.7045,3.7547,3.8859,3.947,3.9223,3.991,4.0272,4.031,4.0345,4.0381,4.0379,4.0444,4.0549,4.0662,4.0655,4.038,3.9824,3.8793,3.8201,3.7779,3.645,3.5962,3.5986,3.5971,3.5973,3.5975,0.0,0.0,0.0,0.0,0.0,0.0,0.0,0.0,0.0,0.0,0.0,0.0,0.0,0.0,0.0,0.0,0.0,0.0,0.0,0.0,3.6941,3.733,3.7005,3.6847,3.6847,3.7002,0.0,0.0,0.0,0.0,0.0,0.0,0.0,0.0,0.0,0.0,0.0,0.0,3.6552,3.6199,3.5778,0.0,3.6199,3.5821,3.5725,3.5749,3.5749,3.5266,3.4576,3.418,3.4181,0.0,0.0,3.5622,3.5993,0.0,3.6773,3.6447,0.0,0.0,0.0,3.626,0.0,0.0,0.0,3.5028,3.496,0.0,0.0,0.0,0.0,0.0,0.0,0.0,0.0,0.0,0.0,0.0,0.0,0.0,0.0,0.0,0.0,0.0,3.3325,3.3813,3.467,3.5206,3.5392,3.6706,3.7489,3.7604,3.888,3.9586,3.9661,4.008,4.0309,4.0309,4.0381,4.0415,4.0449,4.0479,4.0539,4.0602,4.0662,4.0295,3.959,3.8739,3.8185,3.7737,3.6476,3.5993,3.5994,3.5996,3.5996,3.5996,0.0,0.0,0.0,0.0,0.0,0.0,0.0,0.0,0.0,0.0,0.0,0.0,0.0,0.0,0.0,0.0,0.0,0.0,0.0,0.0,0.0,0.0,3.8116,3.8125,3.8125,3.8265,3.8003,0.0,0.0,0.0,0.0,0.0,0.0,0.0,0.0,0.0,0.0,0.0,0.0,3.6266,0.0,3.5904,3.6232,3.5628,3.5783,3.6301,3.6301,3.5901,3.5342,3.5221,0.0,3.5839,3.6482,3.6889,0.0,0.0,0.0,0.0,0.0,0.0,0.0,0.0,0.0,3.6379,0.0,0.0,0.0,0.0,0.0,0.0,0.0,0.0,0.0,0.0,0.0,0.0,0.0,0.0,0.0,0.0,0.0,0.0,0.0,0.0,3.4026,3.4582,3.5622,3.5981,3.5379,3.692,3.7909,3.8099,3.886,3.9584,4.0272,4.0308,4.0307,4.0325,4.0379,4.0449,4.0502,4.0499,4.0508,4.0554,4.066,4.0403,3.9824,3.9019,3.8238,3.7455,3.6404,3.5995,3.5995,3.5996,3.5996,3.5996,0.0,0.0,0.0,0.0,0.0,0.0,0.0,0.0,0.0,0.0,0.0,0.0,0.0,0.0,0.0,0.0,0.0,0.0,3.9115,0.0,0.0,0.0,0.0,0.0,3.8282,3.8368,3.8345,0.0,0.0,0.0,0.0,0.0,0.0,0.0,3.8336,0.0,0.0,0.0,3.7629,0.0,3.6973,3.6853,0.0,3.6215,3.6232,3.6301,3.6301,3.611,3.5759,0.0,3.532,3.5488,0.0,3.5794,0.0,0.0,0.0,0.0,0.0,0.0,0.0,0.0,3.6622,0.0,0.0,0.0,0.0,0.0,0.0,0.0,0.0,0.0,0.0,0.0,0.0,0.0,0.0,0.0,0.0,0.0,0.0,0.0,0.0,0.0,0.0,3.5778,3.6656,3.7196,3.7281,3.8156,3.9071,3.9967,4.0101,4.0195,4.0289,4.0307,4.0325,4.0379,4.0449,4.0502,4.0502,4.0511,4.0596,4.0781,4.0781,4.0844,4.0876,4.007,3.9215,3.8298,3.6639,3.5995,3.5995,3.5996,3.5996,3.5996,0.0,0.0,0.0,0.0,0.0,0.0,0.0,0.0,0.0,0.0,0.0,0.0,0.0,0.0,0.0,0.0,0.0,3.9221,0.0,0.0,0.0,0.0,0.0,0.0,0.0,3.9782,3.9635,3.917,3.9232,0.0,0.0,0.0,0.0,0.0,3.8146,0.0,3.7508,0.0,0.0,0.0,0.0,0.0,0.0,3.6473,3.6301,3.6301,3.6402,3.6342,3.6334,0.0,3.6889,0.0,0.0,0.0,0.0,0.0,0.0,0.0,0.0,0.0,0.0,0.0,0.0,0.0,0.0,0.0,3.7868,0.0,0.0,0.0,0.0,0.0,0.0,0.0,0.0,0.0,0.0,0.0,0.0,0.0,0.0,0.0,0.0,0.0,0.0,0.0,0.0,3.8002,3.7623,3.8918,3.9661,3.9602,4.006,4.0308,4.0362,4.0396,4.0432,4.0449,4.0479,4.0511,4.0511,4.0579,4.0662,4.0751,4.0867,4.0677,4.0268,4.0016,3.9082,3.7773,3.7031,3.6445,3.5996,3.5996,3.5996,3.5996,0.0,0.0,0.0,0.0,0.0,0.0,0.0,0.0,0.0,0.0,0.0,0.0,3.998,4.0097,0.0,0.0,0.0,3.9076,0.0,0.0,3.8824,0.0,0.0,0.0,0.0,4.0617,4.0388,4.0026,0.0,0.0,0.0,0.0,0.0,0.0,0.0,3.7974,3.7784,0.0,0.0,3.7223,3.7431,3.7439,3.7197,3.6567,3.6301,3.636,3.6461,3.6609,3.6881,3.7708,3.7987,0.0,3.8888,0.0,0.0,0.0,0.0,0.0,3.895,0.0,0.0,0.0,0.0,0.0,0.0,0.0,0.0,0.0,0.0,0.0,0.0,0.0,0.0,0.0,0.0,0.0,0.0,0.0,0.0,0.0,0.0,0.0,0.0,0.0,0.0,0.0,3.861,0.0,3.8042,3.947,4.0022,3.9446,4.0018,4.0362,4.0432,4.0485,4.0502,4.0499,4.0492,4.0519,4.0559,4.0668,4.0726,4.0801,4.0941,4.0645,4.0096,4.0213,3.9375,3.7988,3.7754,3.7129,3.6328,3.6094,3.5996,3.5996,3.777,3.7787,0.0,0.0,0.0,0.0,0.0,0.0,0.0,0.0,0.0,0.0,0.0,0.0,0.0,0.0,0.0,4.0444,3.9564,0.0,4.0628,0.0,0.0,3.9937,0.0,0.0,4.0095,4.0836,4.0836,0.0,0.0,0.0,0.0,0.0,0.0,3.9232,3.8543,3.8543,3.7802,3.6589,3.7317,3.7238,3.6678,0.0,3.6402,3.6502,3.6502,0.0,0.0,3.7261,3.7774,0.0,0.0,0.0,0.0,0.0,0.0,0.0,0.0,0.0,0.0,3.9064,0.0,0.0,0.0,0.0,3.9165,0.0,0.0,0.0,0.0,0.0,0.0,0.0,0.0,0.0,0.0,0.0,0.0,0.0,0.0,0.0,0.0,0.0,0.0,3.8746,3.9545,3.9737,3.8974,3.9812,4.0288,4.0269,4.0342,4.0432,4.0502,4.0502,4.0499,4.0489,4.0489,4.0574,4.0692,4.0692,4.082,4.0998,4.1007,4.1016,4.1052,4.1133,4.0625,3.9726,3.8887,3.8027,3.7168,3.6309,3.5996,3.5996,0.0,0.0,0.0,0.0,0.0,0.0,0.0,4.0035,0.0,0.0,0.0,0.0,0.0,0.0,4.1395,0.0,0.0,4.0543,3.9704,3.9445,0.0,0.0,0.0,3.9772,0.0,0.0,3.9819,4.0095,4.0095,0.0,0.0,0.0,0.0,0.0,0.0,3.8881,0.0,0.0,0.0,0.0,0.0,3.7321,3.6702,0.0,0.0,3.6643,3.6667,3.6992,0.0,3.7703,3.8117,3.8523,3.8748,3.8931,3.9007,3.9045,3.9073,0.0,0.0,0.0,3.9156,3.9101,0.0,0.0,0.0,0.0,0.0,0.0,0.0,0.0,0.0,0.0,0.0,0.0,0.0,0.0,0.0,0.0,0.0,0.0,0.0,0.0,0.0,0.0,0.0,3.9659,4.0024,4.012,0.0,4.0154,4.0342,4.0432,4.0449,4.0482,4.0492,4.0024,4.0061,4.0629,4.0099,4.0156,4.0771,4.0855,4.0948,4.1003,4.1055,4.1108,4.1172,4.1191,4.0351,3.9004,3.8711,3.7715,3.6406,3.6113,3.5995,3.5995,4.0121,0.0,0.0,0.0,0.0,0.0,0.0,0.0,0.0,0.0,4.1238,0.0,4.219,0.0,4.2255,0.0,4.1026,4.0664,4.0146,3.9664,0.0,4.0836,4.0112,0.0,0.0,0.0,3.9836,4.0112,0.0,4.0388,0.0,0.0,0.0,0.0,0.0,0.0,0.0,0.0,3.7019,0.0,0.0,3.74,0.0,0.0,3.7167,3.7132,0.0,3.7246,3.7914,3.8381,3.8518,3.867,3.9341,3.9333,3.9045,3.9073,3.9101,3.9101,3.9129,3.9156,0.0,3.9202,3.9301,0.0,3.9301,0.0,0.0,0.0,0.0,0.0,0.0,0.0,0.0,0.0,0.0,0.0,0.0,0.0,0.0,0.0,0.0,0.0,0.0,0.0,4.0215,4.0176,4.0253,4.0309,0.0,0.0,3.9936,4.0041,3.9777,3.9649,3.9639,3.9502,3.9727,4.0281,4.0063,4.0282,4.0867,4.0953,4.1031,4.1072,4.1129,4.0976,4.0762,4.1074,4.0176,3.8594,3.8594,3.7715,3.6426,3.6113,3.5995,3.5995,0.0,0.0,0.0,0.0,4.0487,0.0,0.0,0.0,4.0776,0.0,4.1663,4.2139,4.2893,4.2391,4.1992,4.1992,4.1319,0.0,4.0888,4.0888,0.0,0.0,4.0164,4.0095,4.0802,0.0,0.0,0.0,0.0,0.0,0.0,0.0,0.0,0.0,3.9353,0.0,3.9777,3.7594,3.7224,3.8023,3.7351,3.7532,3.8164,3.8199,0.0,3.8076,3.7178,3.7672,3.8792,3.9138,3.8984,3.8842,4.0036,3.9788,3.912,3.9194,3.9157,3.9147,3.9239,3.9248,3.9256,3.9373,0.0,0.0,0.0,0.0,3.9495,0.0,0.0,0.0,0.0,0.0,0.0,0.0,0.0,0.0,0.0,0.0,0.0,0.0,0.0,0.0,0.0,4.0375,4.0375,4.031,4.0308,4.0325,0.0,0.0,0.0,3.9211,3.8562,3.8187,3.811,3.9093,3.9567,3.9576,4.0457,4.0954,4.1061,4.1016,4.108,4.1191,4.1152,4.0684,4.0039,4.0801,4.0137,3.8594,3.8555,3.8008,3.7148,3.6309,3.5996,3.5994,4.2619,4.1988,4.1355,0.0,4.1255,4.1017,0.0,0.0,0.0,0.0,4.2016,4.2666,4.2287,4.2112,4.1992,4.1992,4.1319,0.0,0.0,0.0,0.0,4.0888,4.0681,4.0388,4.0008,3.9802,0.0,4.0008,0.0,0.0,4.0888,0.0,0.0,0.0,0.0,0.0,3.9988,3.9398,3.9103,3.8947,3.8796,3.8831,0.0,0.0,4.0217,4.042,3.8474,3.8528,3.9399,3.8651,3.8897,3.9583,4.0222,3.9788,3.9342,4.0587,4.0095,3.9332,3.9984,3.9813,3.9425,3.9399,3.9451,3.9546,0.0,0.0,0.0,0.0,0.0,0.0,0.0,0.0,0.0,0.0,0.0,0.0,0.0,0.0,0.0,0.0,0.0,0.0,4.053,4.0454,4.0406,4.0444,4.0438,4.0457,0.0,0.0,0.0,3.9367,3.9799,3.9453,3.8268,3.9813,4.0604,4.0637,4.1544,4.2002,4.2019,4.1379,4.1089,4.1093,4.0488,4.0469,4.082,4.041,3.959,3.8535,3.789,3.7108,3.6305,3.6071,3.6009,3.6001,4.368,0.0,0.0,4.243,0.0,0.0,4.0754,0.0,0.0,4.1761,4.2597,0.0,4.3009,4.2095,4.163,4.1957,4.0991,0.0,0.0,0.0,0.0,4.0888,4.0888,4.0664,4.0215,4.0262,0.0,4.0698,0.0,0.0,4.1354,0.0,0.0,0.0,0.0,4.0504,0.0,4.0341,3.9896,3.934,3.9691,0.0,0.0,4.12,4.1955,4.2386,4.0535,4.0442,4.1045,4.0597,4.0529,4.0702,4.1271,4.0894,4.0421,4.137,4.0775,3.9935,4.0448,4.0061,3.9495,3.9495,3.9527,3.9596,3.9546,3.9571,3.9602,0.0,0.0,0.0,0.0,0.0,0.0,0.0,0.0,0.0,0.0,0.0,0.0,0.0,0.0,0.0,4.0789,4.061,4.053,4.0577,4.053,4.0535,0.0,0.0,0.0,3.9506,3.9616,3.9265,3.8354,3.9753,4.0486,4.0496,4.1406,4.1828,4.179,4.0955,4.0585,4.0527,3.9687,3.9394,3.9492,3.9375,3.8594,3.7402,3.6914,3.6658,3.6576,3.6576,3.6339,3.6001,0.0,0.0,0.0,0.0,0.0,0.0,0.0,4.2115,0.0,4.2738,0.0,4.3266,4.3768,4.2078,4.1147,4.1785,0.0,4.0284,4.0991,4.1129,4.1181,4.1181,4.1078,4.1026,4.1073,4.1099,0.0,0.0,0.0,0.0,0.0,0.0,0.0,0.0,0.0,0.0,0.0,4.0972,4.0393,0.0,4.0621,4.1323,4.199,4.2693,4.3342,4.3803,4.2935,4.2763,4.3041,4.3155,4.2572,4.1939,4.2612,4.2281,4.1754,4.1977,4.1456,4.0782,4.0843,4.0289,3.9652,3.9614,3.9602,3.9602,3.9602,3.9602,3.9602,3.9602,3.972,3.9763,0.0,0.0,0.0,0.0,0.0,0.0,0.0,0.0,0.0,0.0,0.0,0.0,0.0,4.0789,4.0655,4.0721,4.0622,0.0,0.0,0.0,0.0,0.0,3.9059,0.0,3.8438,0.0,4.0076,3.9978,4.0967,4.144,4.1401,4.0605,4.0234,4.0176,3.9316,3.8457,3.7695,3.832,3.7578,3.5996,3.5996,3.6463,3.712,3.712,3.6632,3.6005,0.0,0.0,0.0,0.0,0.0,4.2854,4.194,4.2026,4.1974,4.1371,4.1819,4.2009,4.1526,4.1129,4.094,4.106,4.1388,0.0,0.0,0.0,0.0,4.2817,4.2147,4.185,4.1964,4.1423,4.1504,0.0,4.1504,4.1475,0.0,0.0,0.0,0.0,0.0,0.0,4.2358,4.2374,0.0,4.2254,4.2991,4.3377,4.3518,4.3658,4.3781,4.399,4.4486,4.452,4.4019,4.2136,4.2206,4.3078,4.2927,4.234,4.1977,4.3415,4.2801,4.1686,4.1686,4.114,4.0415,3.9746,3.9602,3.9602,3.9602,3.9602,3.9626,3.9665,4.0255,4.0561,3.9958,0.0,0.0,0.0,0.0,0.0,0.0,0.0,0.0,0.0,0.0,0.0,0.0,0.0,0.0,0.0,0.0,0.0,0.0,0.0,0.0,0.0,0.0,0.0,0.0,0.0,0.0,4.089,4.2477,4.324,4.3222,4.2344,4.1953,4.1914,4.1094,4.0254,3.9394,3.8828,3.7578,3.5993,3.5993,3.6085,3.6231,3.6231,3.6098,3.6036,0.0,0.0,0.0,0.0,0.0,0.0,0.0,4.1923,0.0,4.1457,4.1767,4.2009,4.2109,4.1354,4.1198,4.1992,4.2026,4.2164,4.2578,4.3007,4.3214,4.3214,4.2521,0.0,4.222,4.1568,4.1627,4.2392,4.1627,4.1598,0.0,0.0,0.0,0.0,0.0,4.2597,0.0,0.0,0.0,4.3395,4.3763,4.4008,4.4253,4.4678,4.4572,4.4281,4.4747,4.4914,4.475,4.3658,4.3518,4.3804,4.362,4.3349,4.3268,4.4101,4.3521,4.2621,4.2621,4.2047,4.1229,4.0422,4.0215,4.0103,3.9714,3.9631,3.9642,3.9693,4.0079,4.034,4.0074,4.0939,0.0,0.0,0.0,0.0,0.0,0.0,0.0,0.0,0.0,0.0,0.0,0.0,0.0,0.0,0.0,0.0,0.0,0.0,0.0,0.0,0.0,0.0,0.0,0.0,0.0,4.2454,4.238,4.2596,4.2988,4.1699,4.0859,4.041,4.0019,3.9355,3.8555,3.8594,3.8379,3.7987,3.7538,3.7359,3.7348,3.7276,3.7503,3.7804,0.0,4.5807,0.0,0.0,4.4699,0.0,4.3214,4.1871,4.1095,4.1681,4.175,4.2061,4.2837,4.1992,4.1854,4.3111,4.2888,4.2906,4.3421,4.3561,4.3698,4.3698,4.3054,4.2705,4.2753,4.2068,4.2079,0.0,4.1922,4.1852,0.0,0.0,0.0,0.0,0.0,0.0,0.0,0.0,4.3289,4.3676,4.3834,4.4127,4.4545,4.5027,4.4856,4.439,4.4363,4.4565,4.4872,4.4998,4.4774,4.4407,4.43,4.4314,4.4411,4.4411,4.4018,4.352,4.3351,4.2806,4.2093,4.1267,4.106,4.0891,4.0253,4.0164,4.0207,4.0042,4.0006,4.0096,4.0387,4.1261,0.0,0.0,0.0,0.0,0.0,0.0,0.0,0.0,0.0,0.0,0.0,0.0,0.0,0.0,0.0,0.0,4.1088,4.1286,0.0,0.0,0.0,4.1785,4.2663,0.0,4.189,0.0,4.1853,4.1562,4.2362,4.123,4.0332,3.9687,3.9687,3.8984,3.791,3.8594,3.918,3.955,3.8867,3.8589,3.8534,3.8432,3.8817,3.9194,0.0,0.0,0.0,0.0,0.0,0.0,0.0,4.1871,4.0905,4.0974,4.0991,4.1267,4.2009,4.2612,4.3059,4.3214,4.4354,4.4837,4.4216,4.482,4.5269,4.5356,4.4662,4.4414,4.4628,4.3243,4.3255,0.0,0.0,4.2177,4.3576,0.0,0.0,0.0,0.0,0.0,0.0,4.3518,4.3447,4.2973,4.3623,4.4127,4.4421,4.3832,4.3781,4.4002,4.3633,4.3587,4.3726,4.4172,4.4743,4.5183,4.4568,4.4383,4.4411,4.4468,4.443,4.4233,4.3501,4.3238,4.2975,4.2111,4.1905,4.186,4.1811,4.1876,4.1774,4.1116,4.0654,4.0586,4.1409,4.1803,4.2511,0.0,0.0,0.0,0.0,0.0,0.0,0.0,0.0,0.0,0.0,0.0,0.0,0.0,0.0,4.1085,4.1108,4.1858,4.229,4.229,0.0,4.2708,4.3567,4.193,0.0,4.2517,4.1621,4.1621,4.2422,4.3066,4.3301,4.3223,4.3223,4.1875,3.9668,3.9746,3.9355,3.8705,3.8627,3.8528,3.8427,3.8402,3.835,3.8326,0.0,0.0,0.0,0.0,0.0,0.0,0.0,4.1871,4.1043,4.1492,4.1147,4.1164,4.1905,4.2699,4.3404,4.3802,4.4803,4.5285,4.4992,4.5303,4.5511,4.5632,4.5057,4.4562,4.4205,4.367,4.3261,0.0,0.0,4.2969,4.3144,4.2531,0.0,0.0,0.0,4.2816,4.2833,4.3114,4.3444,4.3802,4.366,4.3984,4.4536,4.4227,4.3923,4.3633,4.3738,4.3642,4.3572,4.4097,4.4509,4.4755,4.4495,4.4411,4.4487,4.4487,4.4515,4.4439,4.412,4.4026,4.382,4.2994,4.2787,4.2664,4.2215,4.2227,4.2252,4.2047,4.1571,4.1152,4.1058,4.1989,4.3032,0.0,0.0,0.0,0.0,0.0,0.0,0.0,0.0,0.0,0.0,0.0,0.0,0.0,0.0,4.1878,4.1882,4.2705,4.2941,4.2414,0.0,4.2574,4.2926,4.2226,4.2324,4.3183,4.2851,4.2598,4.2402,4.2754,4.293,4.293,4.293,4.2949,4.2871,4.1836,4.1504,4.1562,4.0546,3.9769,3.9179,3.9143,3.9014,3.8916,4.6442,0.0,4.4531,0.0,4.3716,4.2526,4.3128,4.1871,4.1078,4.1595,4.1388,4.1405,4.1923,4.2699,4.3525,4.4301,4.5027,4.5476,4.5528,4.5632,4.5684,4.5736,4.5416,0.0,4.4445,4.4313,4.3834,4.2956,4.3588,0.0,4.3483,0.0,0.0,0.0,4.2991,4.3131,4.3114,4.2903,4.3209,4.3779,4.3518,4.3761,4.4287,4.4544,4.4244,4.3693,4.4005,4.3936,4.3836,4.4188,4.4354,4.4411,4.4411,4.444,4.4515,4.4515,4.4515,4.4515,4.4515,4.4515,4.4364,4.3782,4.3678,4.3563,4.3045,4.3061,4.3171,4.3096,4.2581,4.1932,4.115,4.2085,4.3078,4.3442,0.0,0.0,0.0,0.0,0.0,0.0,0.0,4.3977,0.0,0.0,0.0,0.0,0.0,0.0,4.2806,4.3374,0.0,0.0,0.0,0.0,0.0,4.2285,4.2461,4.3301,4.3086,4.2637,4.2051,4.2285,4.2402,4.2422,4.2949,4.3574,4.416,4.3183,4.2988,4.3164,4.1738,4.0704,4.0019,3.9972,3.9858,3.9753,4.6751,4.6596,4.6337,4.5561,4.4165,4.3214,4.3214,4.1871,4.0888,4.0888,4.1526,4.1974,4.1992,4.2699,4.3575,4.4402,4.5182,4.5667,4.5787,4.5787,4.5871,0.0,0.0,4.6055,4.6154,4.5466,4.5431,4.6119,0.0,0.0,4.5045,0.0,4.4308,4.5027,4.4237,4.3886,4.3834,4.3114,4.2591,4.2305,4.3096,4.3459,4.3615,4.4462,4.4596,4.4285,4.4285,4.4344,4.4383,4.4383,4.444,4.4515,4.4515,4.4515,4.4515,4.4515,4.4515,4.4515,4.4515,4.4515,4.4515,4.4496,4.4605,4.4693,4.4674,4.4876,4.4906,4.4307,4.3709,4.302,4.2136,4.2119,4.25,4.3361,0.0,0.0,0.0,0.0,0.0,0.0,4.4992,4.4641,4.3782,0.0,0.0,0.0,0.0,0.0,0.0,0.0,0.0,4.369,4.2851,0.0,4.3672,4.2031,4.1621,4.2402,4.1601,4.1211,4.123,4.2031,4.2402,4.25,4.4219,4.4004,4.25,4.334,4.3183,4.2339,4.1458,4.0979,4.0791,4.0791,4.0672,4.062,4.5855,4.5389,4.4941,4.4682,4.3837,4.3387,4.3854,4.263,4.1836,4.242,4.1733,4.1233,4.1233,4.2936,4.4212,0.0,4.5284,4.577,0.0,4.5871,4.5972,4.5972,4.6073,4.5944,4.5466,4.573,4.5466,4.4641,0.0,0.0,0.0,4.4834,4.4553,4.4255,4.4359,4.4068,4.3571,4.3608,4.3379,4.3051,4.336,4.3676,4.3992,4.4333,4.4401,4.4285,4.4285,4.4344,4.4383,4.4383,4.444,4.4515,4.4515,4.4515,4.4515,4.4515,4.4515,4.4515,4.4515,4.4515,4.4524,4.4605,4.4659,4.4764,4.4919,4.5194,4.5151,4.4363,4.4191,4.3918,4.3059,4.3004,4.3372,4.4245,4.4442,0.0,0.0,0.0,0.0,0.0,0.0,4.5773,0.0,4.546,0.0,0.0,0.0,0.0,0.0,0.0,0.0,0.0,4.2851,0.0,4.1992,4.2012,4.1875,4.1582,4.248,4.2891,4.293,4.3789,4.418,4.4199,4.4766,4.5019,4.4999,4.4081,4.3884,4.4036,4.2552,4.1917,4.1733,4.1057,4.074,4.0751,4.5423,4.5044,4.4699,4.4699,4.4078,4.3801,4.4199,4.3233,4.2492,4.2699,4.2147,4.1678,4.1432,4.3016,0.0,4.4156,4.5212,4.5871,4.5922,4.6023,4.6073,4.6073,4.6172,4.5993,4.5536,0.0,0.0,4.4764,4.5747,4.5975,4.5519,4.5519,4.5334,4.5011,4.5027,4.4675,4.4073,4.3996,4.3779,4.3474,4.3821,4.4101,4.4322,4.4651,4.4606,4.4373,4.4373,4.4401,4.4458,4.4458,4.4487,4.4515,4.4515,4.4515,4.4515,4.4515,4.4515,4.4515,4.4515,4.4542,4.4605,4.4685,4.4789,4.4919,4.5194,4.5419,4.5428,4.4938,4.4987,4.487,4.4017,4.3928,4.4167,4.4737,4.4865,4.5216,4.6104,0.0,0.0,0.0,0.0,0.0,0.0,4.6007,0.0,0.0,0.0,0.0,0.0,0.0,0.0,4.3242,4.2676,0.0,4.166,4.2461,4.2461,4.166,4.2715,4.3047,4.2793,4.3633,4.4023,4.4043,4.4375,4.5019,4.5722,4.4647,4.4315,4.437,4.2934,4.21,4.1656,4.0994,4.0696,4.0737,4.5388,4.5423,0.0,0.0,4.4837,0.0,4.4354,4.3682,4.2906,4.2164,4.2714,4.2901,4.222,4.294,4.3506,4.3519,0.0,0.0,0.0,4.6186,4.6172,4.6172,4.6172,4.6172,4.6172,4.6172,4.6172,4.6172,4.6221,4.6221,4.6172,4.627,4.6525,4.6873,4.6248,4.5737,4.5276,4.4592,4.4054,4.3778,4.4604,4.479,4.4645,4.5394,4.5283,4.4684,4.4627,4.459,4.459,4.4533,4.4515,4.4515,4.4515,4.4515,4.4515,4.4515,4.4515,4.4515,4.4515,4.4605,4.4693,4.4719,4.4919,4.5173,4.5438,4.5599,4.5746,4.588,4.596,4.5763,4.5025,4.4832,4.4845,4.4961,4.4941,4.5221,4.616,0.0,0.0,0.0,0.0,0.0,0.0,4.5519,4.4992,0.0,0.0,0.0,0.0,0.0,4.332,4.2519,4.2422,4.2422,4.248,4.3281,4.3281,4.248,4.248,4.2129,4.1484,4.2246,4.2617,4.2715,4.3398,4.4238,4.5098,4.5019,4.4511,4.3707,4.276,4.1818,4.0954,4.0773,4.0654,4.0696,0.0,0.0,4.5423,4.5423,4.5285,4.5147,4.5147,4.4027,4.3162,4.2973,4.2624,4.2168,4.144,4.2723,4.3423,4.2865,4.4371,4.533,4.5378,4.5905,4.6172,4.6172,4.6172,4.6172,4.6172,4.6172,4.6172,4.6172,4.6572,4.6572,4.6221,4.6954,4.7115,4.6936,4.7469,4.7305,4.6577,4.6797,4.6487,4.5913,4.6265,4.637,4.633,4.6577,4.6551,4.6336,4.566,4.5416,4.5322,4.4721,4.4515,4.4515,4.4515,4.4515,4.4515,4.4515,4.4515,4.4524,4.4632,4.4685,4.4764,4.4943,4.5125,4.5298,4.5457,4.5599,4.5746,4.588,4.596,4.5938,4.5744,4.5201,4.5032,4.576,4.5325,4.5241,4.616,4.5734,0.0,0.0,4.5539,4.5343,4.6222,4.5519,4.4995,0.0,0.0,0.0,0.0,4.3691,4.3613,4.3398,4.2754,4.2715,4.3398,4.3594,4.3594,4.3398,4.3398,4.3633,4.4101,4.4297,4.4746,4.5312,4.4199,4.457,4.5936,4.5272,4.4879,4.4596,4.3665,4.3117,4.2692,4.1233,4.1068,4.1594,4.551,4.5423,4.5423,4.5423,4.5423,4.5423,4.5423,4.4734,4.4129,4.3817,4.3502,4.2857,4.1905,4.2922,4.3401,4.2759,4.4155,4.5098,4.5098,4.58,4.6172,4.6172,4.6172,4.6172,4.6172,4.6172,4.6319,4.6525,4.6788,4.6863,4.6863,4.7378,4.7591,4.7567,4.8096,4.796,4.7385,4.7731,4.7447,4.675,4.6862,4.6922,4.6915,4.6532,4.6411,4.6298,4.5453,4.5153,4.5078,4.4665,4.4515,4.4515,4.4515,4.4515,4.4515,4.4515,4.4524,4.4605,4.4685,4.477,4.4919,4.5148,4.5298,4.5438,4.5566,4.57,4.5819,4.5925,4.5964,4.5997,4.5997,4.5686,4.5718,4.6605,4.6064,4.5859,4.6768,4.6144,0.0,4.6241,4.5539,4.5187,4.5656,4.5285,4.4823,4.4442,0.0,0.0,4.4316,4.4297,4.4101,4.3711,4.3633,4.3828,4.4297,4.4297,4.4492,4.4883,4.4473,4.4531,4.498,4.459,4.4883,4.5625,4.4277,4.4453,4.5703,4.5624,4.5112,4.4332,4.4167,4.381,4.3277,4.2196,4.2082,4.244,4.5441,4.5423,4.5423,4.5423,4.5423,4.5423,4.5476,4.5372,4.5114,4.4609,4.4572,4.4083,4.2911,4.3436,4.364,4.3044,4.4273,4.5098,4.5098,4.58,4.6172,4.6172,4.6172,4.6172,4.6172,4.6172,4.6429,4.6908,4.6954,4.7204,4.7591,4.7884,4.8087,4.8306,4.8587,4.8344,4.7816,4.8095,4.7691,4.6911,4.7023,4.7065,4.6918,4.6186,4.5904,4.5791,4.4984,4.4684,4.4665,4.4552,4.4515,4.4515,4.4515,4.4515,4.4515,4.4515,4.4578,4.4712,4.4712,4.4914,4.5125,4.5275,4.54,4.5531,4.5684,4.5805,4.5932,4.5986,4.5997,4.6007,4.6007,4.6102,4.641,4.7118,4.6699,4.655,4.7295,0.0,4.6144,4.628,4.5539,4.5051,4.5187,4.509,4.4683,4.395,4.5145,4.5698,0.0,4.5195,4.4922,4.4316,4.4746,4.5058,4.5195,4.5078,4.5508,4.6484,4.5605,4.5273,4.5351,4.4355,4.4375,4.5156,4.4414,4.4512,4.5254,4.6133,4.5445,4.3879,4.4475,4.4199,4.3463,4.3067,4.3076,4.3275,4.5561,4.5423,4.5423,4.5581,4.5581,4.5632,4.5718,4.5231,4.4761,4.4689,4.4771,4.4519,4.3628,4.4336,4.4589,4.3799,4.4571,4.5098,4.5098,4.58,4.6172,4.6172,4.6172,4.6172,4.6172,4.6172,4.6429,4.6908,4.7291,4.7548,4.765,4.9064,4.9196,4.8343,4.9491,4.9182,4.7853,4.8725,4.8222,4.6892,4.7695,4.7612,4.6993,4.6861,4.6805,4.6692,4.5829,4.551,4.5416,4.474,4.4515,4.4515,4.4515,4.4515,4.4515,4.4515,4.4578,4.4712,4.4712,4.4914,4.5125,4.5275,4.54,4.5531,4.5684,4.5805,4.5932,4.5986,4.5997,4.6017,4.6075,4.6093,4.6166,4.6365,4.6284,4.6279,4.6472,0.0,4.548,4.6202,4.5539,4.5285,4.6027,4.5421,4.4937,4.4809,4.4379,4.4698,4.6033,4.6092,4.6367,4.6973,4.5703,4.5351,4.6094,4.5371,4.5801,4.7383,4.6504,4.6484,4.7148,4.5527,4.5273,4.6094,4.5957,4.5976,4.6172,4.7031,4.6367,4.4778,4.4727,4.4612,4.4288,4.2673,4.3003,4.4064,4.6306,4.6203,4.6152,4.5754,4.5718,4.5718,4.577,4.5525,4.5299,4.5399,4.5431,4.525,4.4528,4.519,4.5396,4.4606,4.5256,4.5712,4.5712,4.6028,4.6172,4.6172,4.6172,4.6172,4.6172,4.6447,4.6575,4.6618,4.7516,4.7618,4.704,4.9121,4.9136,4.7455,4.8996,4.881,4.7292,4.7829,4.7609,4.6952,4.7376,4.7331,4.6955,4.6486,4.6298,4.6186,4.5359,4.5059,4.5003,4.4646,4.4515,4.4515,4.4515,4.4515,4.4515,4.4515,4.4659,4.4846,4.4976,4.5175,4.5361,4.5495,4.5618,4.5731,4.5791,4.5887,4.5953,4.5997,4.5997,4.6017,4.6084,4.6138,4.6325,4.6825,4.6533,0.0,0.0,4.6241,4.5851,4.6241,4.5948,4.5675,4.5617,4.5656,4.5503,4.5043,4.5063,4.5868,4.7615,4.7264,4.7401,4.8262,4.7051,4.6816,4.7695,4.7305,4.7734,4.8984,4.8125,4.8164,4.8945,4.7207,4.6875,4.7676,4.7207,4.6738,4.6406,4.7754,4.6674,4.4274,4.5124,4.5103,4.4536,4.4148,4.45,4.5089,4.7174,4.7142,4.7056,4.6447,4.6255,4.615,4.615,4.5993,4.5922,4.6023,4.6023,4.5863,4.5431,4.5888,4.5993,4.5414,4.5888,4.6172,4.6172,4.6301,4.635,4.635,4.6477,4.6525,4.6525,4.6863,4.7003,4.6826,4.7821,4.7868,4.7107,4.9203,4.9089,4.7239,4.8604,4.8327,4.6817,4.6945,4.6786,4.6448,4.6617,4.6599,4.6354,4.5679,4.5416,4.5341,4.4721,4.4515,4.4515,4.4515,4.4515,4.4515,4.4515,4.4515,4.4515,4.4542,4.477,4.5042,4.5241,4.54,4.553,4.5684,4.5791,4.5854,4.5641,4.5658,4.5666,4.5453,4.5424,4.5454,4.5518,4.5558,4.5891,4.6777,0.0,0.0,0.0,4.6729,4.63,4.63,4.63,4.6046,4.5363,4.5909,4.6108,4.5646,4.6215,4.7352,4.9099,4.8553,4.8593,4.9453,4.8066,4.7812,4.8887,4.8906,4.9336,5.0195,4.9512,4.9551,5.0156,4.8594,4.8262,4.8867,4.8418,4.7598,4.6719,4.8262,4.702,4.4253,4.5586,4.559,4.4929,4.5563,4.5905,4.6073,4.7815,4.7906,4.8049,4.8103,4.7561,4.7157,4.7259,4.6645,4.6172,4.6172,4.6189,4.6154,4.6102,4.6186,4.6154,4.6102,4.6186,4.6172,4.6172,4.6602,4.6863,4.6863,4.7248,4.7506,4.7506,4.7548,4.7738,4.8176,4.8231,4.844,4.8742,4.9796,4.9809,4.8934,4.9193,4.8359,4.6817,4.6945,4.611,4.4759,4.551,4.5359,4.4684,4.4627,4.459,4.459,4.4533,4.4515,4.4515,4.4515,4.4515,4.4515,4.4515,4.4515,4.4524,4.4659,4.4953,4.5263,4.5283,4.54,4.5526,4.5665,4.5791,4.568,4.4886,4.4804,4.4656,4.386,4.3675,4.37,4.3773,4.3785,4.4104,4.5024,0.0,0.0,4.6261,4.6339,4.63,4.63,4.63,4.6261,4.6202,4.6261,4.6612,4.7354,4.7461,4.825,4.9914,5.0016,5.037,5.1191,4.8086,4.7207,4.8887,4.8906,4.9336,5.0195,5.0137,5.0137,5.0176,4.9238,4.8848,4.8945,4.9687,4.9062,4.7578,4.8516,4.775,4.6019,4.6066,4.6005,4.5886,4.5819,4.6306,4.687,4.8972,4.8993,4.8925,4.8505,4.8172,4.789,4.7467,4.7134,4.6783,4.6242,4.6172,4.6172,4.6172,4.6172,4.6172,4.6172,4.6477,4.6649,4.6649,4.7071,4.7335,4.7335,4.7506,4.7591,4.7591,4.7897,4.7876,4.7479,4.8274,4.8266,4.7508,4.9403,4.9079,4.7006,4.857,4.8109,4.6146,4.6738,4.6636,4.6035,4.5791,4.5528,4.519,4.4702,4.4515,4.4515,4.4515,4.4515,4.4515,4.4515,4.4515,4.4515,4.4515,4.457,4.4572,4.4326,4.4438,4.4552,4.4168,4.4901,4.5636,4.5228,4.5549,4.5739,4.4913,4.516,4.5618,4.5872,4.5929,4.6099,4.6709,4.6376,4.6158,4.655,0.0,4.6534,4.6339,4.7198,4.7451,4.6417,4.6788,4.6885,4.6358,4.63,4.644,4.6775,4.68,4.7313,4.8492,4.9608,5.0566,5.1367,5.0137,4.9785,5.0449,5.0449,5.0625,5.0937,5.0937,5.0937,5.0937,5.0605,5.0449,5.0469,5.0801,5.0293,4.9277,5.0117,4.907,4.6936,4.6918,4.6474,4.588,4.5819,4.6008,4.6321,4.9938,4.9958,4.989,4.9363,4.9047,4.8714,4.8187,4.7906,4.7555,4.7011,4.6748,4.659,4.659,4.6379,4.627,4.6398,4.6695,4.6954,4.7115,4.7548,4.7816,4.7816,4.7919,4.7999,4.7999,4.8307,4.8218,4.7665,4.8507,4.8289,4.7066,4.8814,4.8301,4.6049,4.7791,4.7665,4.6148,4.6749,4.7012,4.6955,4.6354,4.611,4.6017,4.519,4.489,4.489,4.489,4.4721,4.4552,4.4796,4.4721,4.4515,4.4551,4.4719,4.4834,4.4493,4.4746,4.5025,4.4614,4.5609,4.648,4.5442,4.5802,4.6249,4.5705,4.6016,4.6512,4.6883,4.6997,4.7225,4.7866,4.7513,4.724,4.7545,4.7608,4.749,4.7139,4.8076,4.8369,4.7217,4.7608,4.7744,4.7139,4.7081,4.7201,4.7464,4.7486,4.7864,4.8749,4.9922,5.082,5.1387,5.1406,5.1406,5.1406,5.1406,5.1406,5.1406,5.1406,5.1406,5.1406,5.1406,5.1406,5.1406,5.1406,5.0937,5.0215,5.0508,4.9495,4.7742,4.7476,4.7067,4.6612,4.6578,4.6583,4.663,5.0585,5.0747,5.0891,5.0891,5.0224,4.9697,4.9679,4.903,4.8521,4.8521,4.7871,4.7397,4.7397,4.6695,4.6398,4.6863,4.6908,4.7115,4.7591,4.8035,4.8306,4.8306,4.8678,4.8909,4.8909,4.8909,4.8962,4.9101,4.9101,4.8706,4.8002,4.8065,4.766,4.6817,4.6963,4.7012,4.7012,4.703,4.703,4.703,4.7012,4.7012,4.6918,4.6035,4.5716,4.5716,4.5716,4.5209,4.4646,4.5435,4.5172,4.4542,4.4659,4.4995,4.5302,4.5302,4.6174,4.7094,4.7094,4.7811,4.8172,4.6443,4.6676,4.7317,4.7298,4.7317,4.7065,4.621,4.6141,4.6235,4.6235,4.6289,4.6612,4.749,4.7627,4.79,4.8681,4.8818,4.8818,4.8798,4.8818,4.8818,4.8798,4.8798,4.9153,5.0022,5.0086,5.0464,5.1348,5.1387,5.1387,5.1406,5.1406,5.1406,5.1406,5.1406,5.1406,5.1406,5.1406,5.1406,5.1406,5.1406,5.1406,5.1406,5.1406,5.0957,5.0137,4.9277,4.8808,4.8534,4.765,4.7766,4.8392,4.8327,4.8292,4.8156,5.0819,5.0873,5.0891,5.0891,5.0697,5.0346,4.9767,4.9486,4.9135,4.8591,4.7871,4.7397,4.7397,4.7002,4.6742,4.6908,4.7524,4.8056,4.8495,4.8623,4.8714,4.8714,4.8839,4.8909,4.8909,4.8996,4.9049,4.9101,4.915,4.8786,4.8065,4.8078,4.7709,4.6982,4.7575,4.7838,4.7875,4.8495,4.8758,4.8701,4.8082,4.7838,4.7744,4.6936,4.6617,4.6617,4.6617,4.6572,4.6479,4.6093,4.581,4.5653,4.5851,4.6037,4.6263,4.6477,4.681,4.6991,4.6465,4.6985,4.757,4.7045,4.757,4.8055,4.7434,4.7764,4.83,4.8652,4.8814,4.9067,4.9738,4.9362,4.9052,4.9306,4.9345,4.9228,4.8857,4.9852,5.0165,4.8954,4.9345,4.9462,4.8857,4.8798,4.8919,4.9163,4.9226,4.9643,5.0507,5.0565,5.082,5.1387,5.1406,5.1406,5.1406,5.1406,5.1406,5.1406,5.1406,5.1406,5.1426,5.2031,5.1973,5.1465,5.2695,5.2361,5.1001,5.1352,5.1043,5.0197,4.873,4.8242,4.8314,4.768,4.7062,4.6598,5.0891,5.0891,5.0891,5.0891,5.0891,5.0733,5.0241,5.0153,4.9995,4.9521,4.8784,4.8272,4.8137,4.7684,4.7402,4.7457,4.8114,4.8642,4.8874,4.8909,4.8909,4.8909,4.8962,4.8962,4.8962,4.9049,4.9135,4.9183,4.923,4.8696,4.7653,4.7653,4.7234,4.6523,4.735,4.7894,4.8251,4.9133,4.9509,4.9452,4.8927,4.8701,4.8626,4.78,4.7481,4.7481,4.7481,4.7438,4.7327,4.6771,4.6478,4.6358,4.6506,4.6897,4.7366,4.7555,4.7908,4.8102,4.7656,4.8172,4.8852,4.8852,4.8988,4.9066,4.8891,4.926,4.9787,5.0306,5.0469,5.0711,5.1291,5.0967,5.0614,5.0614,5.0614,5.0438,4.9891,5.0731,5.1004,4.995,5.0282,5.0418,4.9872,4.9833,4.9836,4.9827,4.9871,5.0111,5.0642,5.0662,5.0898,5.1387,5.1406,5.1406,5.1406,5.1406,5.1406,5.1406,5.1406,5.1406,5.1426,5.1953,5.1894,5.1465,5.2519,5.2342,5.1355,5.1519,5.1401,5.0957,4.9185,4.8845,4.9243,4.8043,4.727,4.6902,5.0891,5.0891,5.0891,5.0891,5.0891,5.0891,5.0891,5.0891,5.0891,5.0891,5.0242,4.9605,4.9221,4.8668,4.8343,4.8394,4.8863,4.9094,4.902,4.902,4.8983,4.8909,4.9015,4.9101,4.9101,4.9101,4.9183,4.9308,4.9308,4.8584,4.7124,4.7124,4.6692,4.596,4.6749,4.7556,4.8363,4.9152,4.9509,4.9509,4.9509,4.9509,4.9415,4.8626,4.8307,4.8307,4.8307,4.8032,4.7618,4.753,4.7204,4.6876,4.7008,4.7735,4.854,4.8631,4.9297,5.0017,5.0017,5.06,5.1202,5.1202,5.06,5.0212,5.1027,5.1202,5.1194,5.1201,5.1326,5.1413,5.1408,5.1455,5.1492,5.1414,5.1394,5.1394,5.1394,5.1394,5.1394,5.1394,5.1394,5.1394,5.1394,5.1394,5.1398,5.1408,5.1394,5.14,5.1404,5.1463,5.1522,5.1523,5.1523,5.1543,5.1621,5.1484,5.1406,5.1406,5.1406,5.1406,5.1406,5.1484,5.1465,5.1406,5.1484,5.1465,5.1328,5.0468,5.0497,5.0906,4.9165,4.9336,5.0384,4.8856,4.8237,4.8198,5.0891,5.0891,5.0891,5.0891,5.0891,5.0891,5.0891,5.0891,5.0891,5.0891,5.0503,4.9955,4.9269,4.9774,4.9884,4.9297,5.0232,5.058,4.9893,4.9837,4.9559,4.8927,4.9015,4.9116,4.9164,4.9211,4.9276,4.9308,4.9409,4.8933,4.7932,4.7932,4.7838,4.7669,4.7856,4.842,4.9227,4.9415,4.9509,4.9509,4.9509,4.9509,4.9471,4.9283,4.9227,4.9227,4.9227,4.9372,4.9529,4.9103,4.8544,4.8118,4.872,4.9146,4.9561,5.0358,5.0763,5.0911,5.0911,5.1066,5.1202,5.1202,5.1066,5.0969,5.1163,5.1202,5.1194,5.1201,5.1793,5.2134,5.1505,5.1967,5.2195,5.1511,5.1394,5.1394,5.1394,5.1394,5.1394,5.1394,5.1394,5.1394,5.1394,5.1394,5.1394,5.1398,5.1398,5.1408,5.14,5.2045,5.2419,5.2422,5.2422,5.2754,5.3437,5.207,5.1406,5.1406,5.1406,5.1406,5.1426,5.2109,5.2051,5.1445,5.2129,5.2009,5.1307,5.1043,5.0614,4.9992,4.8871,4.8227,4.7889,4.7521,4.6941,4.6554,5.0891,5.0891,5.0891,5.0891,5.0891,5.0891,5.0891,5.107,5.1245,5.1245,5.1276,5.1117,5.057,5.0952,5.1029,5.0451,5.1028,5.1212,5.0748,5.0393,5.0019,4.9591,4.9336,4.9197,4.9244,4.9358,4.9409,4.9409,4.9459,4.9039,4.8194,4.8194,4.8194,4.8194,4.8194,4.8683,4.9509,4.9509,4.9509,4.9509,4.9509,4.9509,4.9509,4.9509,4.9509,4.9521,4.9615,4.9714,4.9795,4.965,4.935,4.9149,4.9556,5.0015,5.052,5.1054,5.1202,5.128,5.1668,5.1766,5.1766,5.1766,5.1766,5.1766,5.1766,5.1766,5.1905,5.2397,5.2881,5.3097,5.2713,5.2674,5.2546,5.2097,5.1668,5.1394,5.1394,5.1394,5.1394,5.1394,5.1394,5.1394,5.1394,5.1394,5.1394,5.1394,5.1394,5.1402,5.1398,5.2238,5.2692,5.2695,5.3105,5.334,5.3379,5.248,5.1796,5.134,5.1386,5.1406,5.1426,5.1875,5.1836,5.1426,5.1875,5.1796,5.1335,5.1245,5.0672,4.9761,4.8767,4.8372,4.8237,4.7405,4.7347,4.7908,5.0891,5.0981,5.1034,5.1034,5.107,5.1158,5.1158,5.1467,5.1732,5.1732,5.2131,5.2298,5.1935,5.1985,5.1943,5.1807,5.1806,5.1751,5.1639,5.1059,5.0666,5.0552,4.9884,4.9514,4.9514,4.9515,4.9509,4.9509,4.9509,4.9133,4.842,4.842,4.842,4.842,4.842,4.8814,4.9509,4.9509,4.9509,4.9509,4.9509,4.9509,4.9509,4.9509,4.9509,4.9521,4.974,4.9729,4.9656,4.9921,5.0035,5.0052,5.0095,5.0619,5.1241,5.1358,5.1416,5.1591,5.2407,5.262,5.262,5.262,5.262,5.2659,5.2814,5.2613,5.2705,5.3699,5.4017,5.4098,5.4021,5.3522,5.3093,5.2956,5.2312,5.1785,5.1648,5.1746,5.1785,5.1648,5.1746,5.1843,5.1843,5.1843,5.1843,5.1843,5.1843,5.1831,5.1847,5.2531,5.2985,5.3144,5.3691,5.3711,5.3124,5.2831,5.2297,5.1499,5.1413,5.1364,5.1364,5.1364,5.1365,5.1366,5.1229,5.1249,5.1365,5.1082,5.0552,4.9807,4.8949,4.8972,4.9301,4.785,4.8237,4.9745,5.0891,5.1211,5.1518,5.1518,5.1861,5.2112,5.2112,5.2159,5.2206,5.2206,5.2652,5.2724,5.1995,5.2243,5.2753,5.3423,5.3478,5.32,5.2548,5.2436,5.2117,5.1532,5.0829,5.0432,5.0432,4.9834,4.9509,4.9509,4.9509,4.9434,4.9321,4.9321,4.9321,4.9321,4.9321,4.9396,4.9509,4.9509,4.9509,4.9509,4.9509,4.9509,4.9509,4.9509,4.9509,4.9532,4.9795,5.0164,5.0571,5.0829,5.0952,5.0996,5.1027,5.1105,5.1338,5.2037,5.2232,5.2426,5.3281,5.3514,5.3514,5.3514,5.3514,5.3708,5.4485,5.3541,5.2758,5.3708,5.4507,5.4814,5.4123,5.4517,5.4693,5.3951,5.3737,5.3385,5.2624,5.3171,5.3366,5.2605,5.319,5.3659,5.3659,5.3659,5.3659,5.3659,5.3659,5.3647,5.3644,5.3761,5.4176,5.4922,5.4336,5.4275,5.4861,5.3377,5.2513,5.2336,5.1583,5.1232,5.1232,5.1232,5.1263,5.1265,5.0523,5.0621,5.1242,5.0413,4.9964,4.9796,4.9606,4.9146,4.8546,4.8314,4.8372,4.8914,5.1245,5.1485,5.1701,5.1958,5.2159,5.2281,5.2281,5.2544,5.274,5.274,5.3162,5.3354,5.3003,5.3141,5.3423,5.3775,5.3851,5.3777,5.3442,5.3084,5.2744,5.2457,5.172,5.1321,5.1321,5.0997,5.0616,5.0166,4.9715,4.9509,4.9509,4.9509,4.9509,4.9509,4.9509,4.9509,4.9509,4.9509,4.9509,4.9509,4.9509,4.9509,4.9521,4.9625,4.9693,4.9787,5.0191,5.0604,5.0937,5.1063,5.1139,5.1202,5.1202,5.1513,5.194,5.229,5.2737,5.3319,5.4194,5.4427,5.4427,5.4427,5.4427,5.4536,5.4961,5.449,5.4206,5.5119,5.5619,5.5834,5.5509,5.5376,5.5162,5.4791,5.4322,5.3873,5.3483,5.3756,5.3854,5.3463,5.3776,5.401,5.401,5.401,5.401,5.401,5.401,5.3998,5.3991,5.446,5.4679,5.4588,5.5155,5.5135,5.4486,5.419,5.3501,5.2368,5.1998,5.1599,5.1203,5.1203,5.1218,5.1213,5.0842,5.0901,5.1206,5.0752,5.0275,4.9792,4.9727,4.9165,4.8566,4.9997,4.9919,4.9494]}]]